[[{"header":{"parameterUnit":"m.s-1","parameterCategory":1,"la1":30.6,"la2":28.766,"lo1":-90.7593,"lo2":-88.6598,"dy":0.0162,"dx":0.0183,"nx":116,"ny":114,"refTime":"2023-10-25T12:00:00:Z","depth":0,"parameterNumber":2,"parameterNumberName":"U-component_of_WINDS"},"data":[0.0,0.0,0.0,0.0,0.0,0.0,0.0,0.0,0.0,0.0,0.0,0.0,0.0,0.0,0.0,0.0,0.0,0.0,0.0,0.0,0.0,0.0,0.0,0.0,0.0,0.0,0.0,0.0,0.0,0.0,0.0,0.0,0.0,0.0,0.0,0.0,0.0,0.0,0.0,0.0,0.0,0.0,0.0,0.0,0.0,0.0,0.0,0.0,0.0,0.0,0.0,0.0,0.0,0.0,0.0,0.0,0.0,0.0,0.0,0.0,0.0,0.0,0.0,0.0,0.0,0.0,0.0,0.0,0.0,0.0,0.0,0.0,0.0,0.0,0.0,0.0,0.0,0.0,0.0,0.0,0.0,0.0,0.0,0.0,0.0,0.0,0.0,0.0,0.0,0.0,0.0,0.0,0.0,0.0,0.0,0.0,0.0,0.0,0.0,0.0,0.0,0.0,0.0,0.0,0.0,0.0,0.0,0.0,0.0,0.0,0.0,0.0,0.0,0.0,0.0,0.0,0.0,0.0,0.0,0.0,0.0,0.0,0.0,0.0,0.0,0.0,0.0,0.0,0.0,0.0,0.0,0.0,0.0,0.0,0.0,0.0,0.0,0.0,0.0,0.0,0.0,0.0,0.0,0.0,0.0,0.0,0.0,0.0,0.0,0.0,0.0,0.0,0.0,0.0,0.0,0.0,0.0,0.0,0.0,0.0,0.0,0.0,0.0,0.0,0.0,0.0,0.0,0.0,0.0,0.0,0.0,0.0,0.0,0.0,0.0,0.0,0.0,0.0,0.0,0.0,0.0,0.0,0.0,0.0,0.0,0.0,0.0,0.0,0.0,0.0,0.0,0.0,0.0,0.0,0.0,0.0,0.0,0.0,0.0,0.0,0.0,0.0,0.0,0.0,0.0,0.0,0.0,0.0,0.0,0.0,0.0,0.0,0.0,0.0,0.0,0.0,0.0,0.0,0.0,0.0,0.0,0.0,0.0,0.0,0.0,0.0,0.0,0.0,0.0,0.0,0.0,0.0,0.0,0.0,0.0,0.0,0.0,0.0,0.0,0.0,0.0,0.0,0.0,0.0,0.0,0.0,0.0,0.0,0.0,0.0,0.0,0.0,0.0,0.0,0.0,0.0,0.0,0.0,0.0,0.0,0.0,0.0,0.0,0.0,0.0,0.0,0.0,0.0,0.0,0.0,0.0,0.0,0.0,0.0,0.0,0.0,0.0,0.0,0.0,0.0,0.0,0.0,0.0,0.0,0.0,0.0,0.0,0.0,0.0,0.0,0.0,0.0,0.0,0.0,0.0,0.0,0.0,0.0,0.0,0.0,0.0,0.0,0.0,0.0,0.0,0.0,0.0,0.0,0.0,0.0,0.0,0.0,0.0,0.0,0.0,0.0,0.0,0.0,0.0,0.0,0.0,0.0,0.0,0.0,0.0,0.0,0.0,0.0,0.0,0.0,0.0,0.0,0.0,0.0,0.0,0.0,0.0,0.0,0.0,0.0,0.0,0.0,0.0,0.0,0.0,0.0,0.0,0.0,0.0,0.0,0.0,0.0,0.0,0.0,0.0,0.0,0.0,0.0,0.0,0.0,0.0,0.0,0.0,0.0,0.0,0.0,0.0,0.0,0.0,0.0,0.0,0.0,0.0,0.0,0.0,0.0,0.0,0.0,0.0,0.0,0.0,0.0,0.0,0.0,0.0,0.0,0.0,0.0,0.0,0.0,0.0,0.0,0.0,0.0,0.0,0.0,0.0,0.0,0.0,0.0,0.0,0.0,0.0,0.0,0.0,0.0,0.0,0.0,0.0,0.0,0.0,0.0,0.0,0.0,0.0,0.0,0.0,0.0,0.0,0.0,0.0,0.0,0.0,0.0,0.0,0.0,0.0,0.0,0.0,0.0,0.0,0.0,0.0,0.0,0.0,0.0,0.0,0.0,0.0,0.0,0.0,0.0,0.0,0.0,0.0,0.0,0.0,0.0,0.0,0.0,0.0,0.0,0.0,0.0,0.0,0.0,0.0,0.0,0.0,0.0,0.0,0.0,0.0,0.0,0.0,0.0,0.0,0.0,0.0,0.0,0.0,0.0,0.0,0.0,0.0,0.0,0.0,0.0,0.0,0.0,0.0,0.0,0.0,0.0,0.0,0.0,0.0,0.0,0.0,0.0,0.0,0.0,0.0,0.0,0.0,0.0,0.0,0.0,0.0,0.0,0.0,0.0,0.0,0.0,0.0,0.0,0.0,0.0,0.0,0.0,0.0,0.0,0.0,0.0,0.0,0.0,0.0,0.0,0.0,0.0,0.0,0.0,0.0,0.0,0.0,0.0,0.0,0.0,0.0,0.0,0.0,0.0,0.0,0.0,0.0,0.0,0.0,0.0,0.0,0.0,0.0,0.0,0.0,0.0,0.0,0.0,0.0,0.0,0.0,0.0,0.0,0.0,0.0,0.0,0.0,0.0,0.0,0.0,0.0,0.0,0.0,0.0,0.0,0.0,0.0,0.0,0.0,0.0,0.0,0.0,0.0,0.0,0.0,0.0,0.0,0.0,0.0,0.0,0.0,0.0,0.0,0.0,0.0,0.0,0.0,0.0,0.0,0.0,0.0,0.0,0.0,0.0,0.0,0.0,0.0,0.0,0.0,0.0,0.0,0.0,0.0,0.0,0.0,0.0,0.0,0.0,0.0,0.0,0.0,0.0,0.0,0.0,0.0,0.0,0.0,0.0,0.0,0.0,0.0,0.0,0.0,0.0,0.0,0.0,0.0,0.0,0.0,0.0,0.0,0.0,0.0,0.0,0.0,0.0,0.0,0.0,0.0,0.0,0.0,0.0,0.0,0.0,0.0,0.0,0.0,0.0,0.0,0.0,0.0,0.0,0.0,0.0,0.0,0.0,0.0,0.0,0.0,0.0,0.0,0.0,0.0,0.0,0.0,0.0,0.0,0.0,0.0,0.0,0.0,0.0,0.0,0.0,0.0,0.0,0.0,0.0,0.0,0.0,0.0,0.0,0.0,0.0,0.0,0.0,0.0,0.0,0.0,0.0,0.0,0.0,0.0,0.0,0.0,0.0,0.0,0.0,0.0,0.0,0.0,0.0,0.0,0.0,0.0,0.0,0.0,0.0,0.0,0.0,0.0,0.0,0.0,0.0,0.0,0.0,0.0,0.0,0.0,0.0,0.0,0.0,0.0,0.0,0.0,0.0,0.0,0.0,0.0,0.0,0.0,0.0,0.0,0.0,0.0,0.0,0.0,0.0,0.0,0.0,0.0,0.0,0.0,0.0,0.0,0.0,0.0,0.0,0.0,0.0,0.0,0.0,0.0,0.0,0.0,0.0,0.0,0.0,0.0,0.0,0.0,0.0,0.0,0.0,0.0,0.0,0.0,0.0,0.0,0.0,0.0,0.0,0.0,0.0,0.0,0.0,0.0,0.0,0.0,0.0,0.0,0.0,0.0,0.0,0.0,0.0,0.0,0.0,0.0,0.0,0.0,0.0,0.0,0.0,0.0,0.0,0.0,0.0,0.0,0.0,0.0,0.0,0.0,0.0,0.0,0.0,0.0,0.0,0.0,0.0,0.0,0.0,0.0,0.0,0.0,0.0,0.0,0.0,0.0,0.0,0.0,0.0,0.0,0.0,0.0,0.0,0.0,0.0,0.0,0.0,0.0,0.0,0.0,0.0,0.0,0.0,0.0,0.0,0.0,0.0,0.0,0.0,0.0,0.0,0.0,0.0,0.0,0.0,0.0,0.0,0.0,0.0,0.0,0.0,0.0,0.0,0.0,0.0,0.0,0.0,0.0,0.0,0.0,0.0,0.0,0.0,0.0,0.0,0.0,0.0,0.0,0.0,0.0,0.0,0.0,0.0,0.0,0.0,0.0,0.0,0.0,0.0,0.0,0.0,0.0,0.0,0.0,0.0,0.0,0.0,0.0,0.0,0.0,0.0,0.0,0.0,0.0,0.0,0.0,0.0,0.0,0.0,0.0,0.0,0.0,0.0,0.0,0.0,0.0,0.0,0.0,0.0,0.0,0.0,0.0,0.0,0.0,0.0,0.0,0.0,0.0,0.0,0.0,0.0,0.0,0.0,0.0,0.0,0.0,0.0,0.0,0.0,0.0,0.0,0.0,0.0,0.0,0.0,0.0,0.0,0.0,0.0,0.0,0.0,0.0,0.0,0.0,0.0,0.0,0.0,0.0,0.0,0.0,0.0,0.0,0.0,0.0,0.0,0.0,0.0,0.0,0.0,0.0,0.0,0.0,0.0,0.0,0.0,0.0,0.0,0.0,0.0,0.0,0.0,0.0,0.0,0.0,0.0,0.0,0.0,0.0,0.0,0.0,0.0,0.0,0.0,0.0,0.0,0.0,0.0,0.0,0.0,0.0,0.0,0.0,0.0,0.0,0.0,0.0,0.0,0.0,0.0,0.0,0.0,0.0,0.0,0.0,0.0,0.0,0.0,0.0,0.0,0.0,0.0,0.0,0.0,0.0,0.0,0.0,0.0,0.0,0.0,0.0,0.0,0.0,0.0,0.0,0.0,0.0,0.0,0.0,0.0,0.0,0.0,0.0,0.0,0.0,0.0,0.0,0.0,0.0,0.0,0.0,0.0,0.0,0.0,0.0,0.0,0.0,0.0,0.0,0.0,0.0,0.0,0.0,0.0,0.0,0.0,0.0,0.0,0.0,0.0,0.0,0.0,0.0,0.0,0.0,0.0,0.0,0.0,0.0,0.0,0.0,0.0,0.0,0.0,0.0,0.0,0.0,0.0,0.0,0.0,0.0,0.0,0.0,0.0,0.0,0.0,0.0,0.0,0.0,0.0,0.0,0.0,0.0,0.0,0.0,0.0,0.0,0.0,0.0,0.0,0.0,0.0,0.0,0.0,0.0,0.0,0.0,0.0,0.0,0.0,0.0,0.0,0.0,0.0,0.0,0.0,0.0,0.0,0.0,0.0,0.0,0.0,0.0,0.0,0.0,0.0,0.0,0.0,0.0,0.0,0.0,0.0,0.0,0.0,0.0,0.0,0.0,0.0,0.0,0.0,0.0,0.0,0.0,0.0,0.0,0.0,0.0,0.0,0.0,0.0,0.0,0.0,0.0,0.0,0.0,0.0,0.0,0.0,0.0,0.0,0.0,0.0,0.0,0.0,0.0,0.0,0.0,0.0,0.0,0.0,0.0,0.0,0.0,0.0,0.0,0.0,0.0,0.0,0.0,0.0,0.0,0.0,0.0,0.0,0.0,0.0,0.0,0.0,0.0,0.0,0.0,0.0,0.0,0.0,0.0,0.0,0.0,0.0,0.0,0.0,0.0,0.0,0.0,0.0,0.0,0.0,0.0,0.0,0.0,0.0,0.0,0.0,0.0,0.0,0.0,0.0,0.0,0.0,0.0,0.0,0.0,0.0,0.0,0.0,0.0,0.0,0.0,0.0,0.0,0.0,0.0,0.0,0.0,0.0,0.0,0.0,0.0,0.0,0.0,0.0,0.0,0.0,0.0,0.0,0.0,0.0,0.0,0.0,0.0,0.0,0.0,0.0,0.0,0.0,0.0,0.0,0.0,0.0,0.0,0.0,0.0,0.0,0.0,0.0,0.0,0.0,0.0,0.0,0.0,0.0,0.0,0.0,0.0,0.0,0.0,0.0,0.0,0.0,0.0,0.0,0.0,0.0,0.0,0.0,0.0,0.0,0.0,0.0,0.0,0.0,0.0,0.0,0.0,0.0,0.0,0.0,0.0,0.0,0.0,0.0,0.0,0.0,0.0,0.0,0.0,0.0,0.0,0.0,0.0,0.0,0.0,0.0,0.0,0.0,0.0,0.0,0.0,0.0,0.0,0.0,0.0,0.0,0.0,0.0,0.0,0.0,0.0,0.0,0.0,0.0,0.0,0.0,0.0,0.0,0.0,0.0,0.0,0.0,0.0,0.0,0.0,0.0,0.0,0.0,0.0,0.0,0.0,0.0,0.0,0.0,0.0,0.0,0.0,0.0,0.0,0.0,0.0,0.0,0.0,0.0,0.0,0.0,0.0,0.0,0.0,0.0,0.0,0.0,0.0,0.0,0.0,0.0,0.0,0.0,0.0,0.0,0.0,0.0,0.0,0.0,-0.2656,0.0,0.0,0.0,0.0,0.0,0.0,0.0,0.0,0.0,0.0,0.0,0.0,0.0,0.0,0.0,0.0,0.0,0.0,0.0,0.0,0.0,0.0,0.0,0.0,0.0,0.0,0.0,0.0,0.0,0.0,0.0,0.0,0.0,0.0,0.0,0.0,0.0,0.0,-0.2276,-0.3078,-0.4004,-0.5009,-0.5005,-0.3918,-0.1939,0.0,0.0,0.0,0.0,0.0,0.0,0.0,0.0,0.0,0.0,0.0,0.0,0.0,0.0,0.0,0.0,0.0,0.0,0.0,0.0,0.0,0.0,0.0,0.0,0.0,0.0,0.0,0.0,0.0,0.0,0.0,0.0,0.0,0.0,0.0,0.0,0.0,0.0,0.0,0.0,0.0,0.0,0.0,0.0,0.0,0.0,0.0,0.0,0.0,0.0,0.0,0.0,0.0,0.0,0.0,0.0,0.0,0.0,0.0,0.0,0.0,0.0,0.0,0.0,0.0,0.0,0.0,0.0,0.0,0.0,0.0,-0.2595,0.0,0.0,0.0,0.0,0.0,0.0,0.0,0.0,0.0,0.0,0.0,0.0,0.0,0.0,0.0,0.0,0.0,0.0,0.0,0.0,0.0,0.0,0.0,-0.2654,-0.2758,-0.2811,-0.2871,-0.3057,0.0,0.0,0.0,0.0,0.0,0.0,-0.3237,-0.2708,-0.274,-0.3386,-0.5119,-0.7056,-0.9143,-0.898,-0.689,-0.3291,-0.2899,0.0,0.0,0.0,0.0,0.0,0.0,0.0,0.0,0.0,0.0,0.0,0.0,0.0,0.0,0.0,0.0,0.0,0.0,0.0,0.0,0.0,0.0,0.0,0.0,0.0,0.0,0.0,0.0,0.0,0.0,0.0,0.0,0.0,0.0,0.0,0.0,0.0,0.0,0.0,0.0,0.0,0.0,0.0,0.0,0.0,0.0,0.0,0.0,0.0,0.0,0.0,0.0,0.0,0.0,0.0,0.0,0.0,0.0,0.0,0.0,0.0,0.0,0.0,-0.7772,-0.7942,-0.7873,-0.8181,-0.8151,-0.7703,-0.5484,-0.4779,-0.5144,0.0,0.0,0.0,0.0,0.0,0.0,0.0,0.0,0.0,0.0,0.0,0.0,0.0,0.0,0.0,0.0,0.0,0.0,0.0,0.0,0.0,0.0,-0.2791,-0.2883,-0.289,-0.3154,-0.327,-0.316,0.0,0.0,0.0,0.0,0.0,-0.3041,-0.2953,-0.3705,-0.5327,-0.7534,-0.9116,-1.0114,-0.9795,-0.9399,-0.8883,-0.7687,-0.6399,-0.507,0.0,0.0,0.0,0.0,0.0,0.0,0.0,0.0,0.0,0.0,0.0,0.0,0.0,0.0,0.0,0.0,0.0,0.0,0.0,0.0,0.0,0.0,0.0,0.0,0.0,0.0,0.0,0.0,0.0,0.0,0.0,0.0,0.0,0.0,0.0,0.0,0.0,0.0,0.0,0.0,0.0,-0.5513,-0.6427,0.0,0.0,0.0,0.0,0.0,0.0,0.0,0.0,0.0,0.0,0.0,0.0,0.0,0.0,-0.7174,-0.8502,-0.904,-0.8839,-0.9804,-1.0209,-1.0083,-1.029,-1.038,-1.0303,-0.9884,0.0,-0.6252,-0.6813,0.0,0.0,0.0,0.0,0.0,0.0,0.0,0.0,0.0,0.0,0.0,0.0,0.0,0.0,0.0,0.0,0.0,0.0,0.0,0.0,0.0,-0.3702,-0.4332,-0.4407,-0.5442,-0.5676,-0.468,-0.4673,0.0,0.0,0.0,-0.2932,-0.3001,-0.3111,-0.4794,-0.8118,-1.0638,-1.2726,-1.4408,-1.4412,-1.468,-1.513,-1.3932,-1.1171,-0.7372,-0.6896,0.0,0.0,0.0,0.0,0.0,0.0,0.0,0.0,0.0,0.0,0.0,0.0,0.0,0.0,0.0,0.0,0.0,0.0,0.0,0.0,0.0,0.0,0.0,0.0,0.0,0.0,0.0,0.0,0.0,0.0,0.0,0.0,0.0,0.0,0.0,0.0,0.0,0.0,0.0,-0.5272,-0.633,-0.6623,-0.6836,-0.6625,0.0,0.0,0.0,0.0,0.0,0.0,0.0,0.0,0.0,-0.906,-0.9683,-1.015,-1.0434,-1.157,-1.209,-1.1978,-1.2438,-1.2648,-1.2575,-1.2684,-1.2572,-1.2364,-1.2334,-1.1562,-1.0243,-0.9146,-0.7972,-0.6923,0.0,0.0,0.0,0.0,0.0,-0.7777,0.0,0.0,0.0,0.0,0.0,0.0,0.0,0.0,0.0,0.0,0.0,0.0,-0.3669,-0.5235,-0.6337,-0.642,-0.7636,-0.7644,-0.5868,-0.5718,-0.4889,-0.3077,-0.2715,-0.27,-0.3024,-0.4552,-0.7378,-1.1509,-1.4297,-1.6645,-1.8553,-1.8764,-1.9201,-1.9727,-1.8943,-1.5538,-1.0443,-1.0099,-0.8412,-0.5924,0.0,0.0,0.0,0.0,0.0,0.0,0.0,0.0,0.0,0.0,0.0,0.0,0.0,0.0,0.0,0.0,0.0,0.0,0.0,0.0,0.0,0.0,0.0,0.0,0.0,0.0,0.0,0.0,0.0,0.0,0.0,0.0,0.0,0.0,0.0,0.0,0.0,-0.6868,-0.7636,-0.7568,-0.8601,-0.8745,0.0,0.0,0.0,0.0,0.0,0.0,-1.114,-1.1192,-1.1555,-1.2349,-1.2824,-1.32,-1.3434,-1.4251,-1.4538,-1.4313,-1.4404,-1.4495,-1.462,-1.4663,-1.4555,-1.4372,-1.4372,-1.4338,-1.4082,-1.1495,-0.9966,-0.9334,-0.969,-0.9167,-0.8365,-0.9462,-0.9782,-0.969,0.0,0.0,0.0,0.0,0.0,0.0,0.0,0.0,0.0,0.0,0.0,-0.5615,-0.5733,-0.753,-0.8702,-0.8644,-0.8842,-0.8006,-0.5762,-0.5493,-0.4611,-0.28,-0.2523,-0.2619,-0.3081,-0.8223,-1.2448,-1.56,-1.8659,-2.0493,-2.1122,-2.1192,-2.1253,-2.128,-2.1229,-1.8879,-1.4903,-1.3803,-1.1851,-0.9265,-0.7095,0.0,0.0,0.0,0.0,0.0,0.0,0.0,0.0,0.0,0.0,0.0,0.0,0.0,0.0,0.0,0.0,0.0,0.0,0.0,0.0,0.0,0.0,0.0,0.0,0.0,0.0,0.0,0.0,0.0,0.0,0.0,0.0,0.0,0.0,0.0,0.0,0.0,0.0,-1.0648,-1.2297,0.0,0.0,0.0,0.0,-1.1974,-1.211,-1.2646,-1.3756,-1.4226,-1.4901,-1.5811,-1.6311,-1.6125,-1.5171,-1.5647,-1.551,-1.4668,-1.499,-1.5336,-1.572,-1.592,-1.6169,-1.6455,-1.6455,-1.6539,-1.6553,-1.4172,-1.2623,-1.1725,-1.1752,-1.1031,-1.0017,-1.0402,-1.0814,-1.1234,0.0,0.0,0.0,0.0,0.0,0.0,0.0,0.0,-0.2827,-0.281,-0.4566,-0.5988,-0.6435,-0.9128,-1.104,-1.1412,-1.2512,-1.2332,-1.0307,-0.8792,-0.7076,-0.5042,-0.3766,-0.4403,-0.7158,-1.2101,-1.5672,-1.7769,-2.067,-2.243,-2.3057,-2.3464,-2.3459,-2.3142,-2.3142,-2.2114,-2.0254,-1.8259,-1.5447,-1.2223,-1.0934,-0.8621,0.0,0.0,0.0,0.0,0.0,0.0,0.0,0.0,0.0,0.0,0.0,0.0,0.0,0.0,0.0,0.0,0.0,0.0,0.0,0.0,0.0,0.0,0.0,0.0,0.0,0.0,0.0,0.0,0.0,0.0,0.0,0.0,0.0,0.0,0.0,0.0,0.0,-1.2952,-1.4565,0.0,-1.4388,-1.4744,-1.5177,-1.5568,-1.6108,-1.6598,-1.701,-1.7023,-1.7322,-1.8029,-1.781,-1.7857,-1.8184,-1.8105,-1.8079,-1.8113,-1.7433,-1.7194,-1.7337,-1.6834,-1.6686,-1.6805,-1.6805,-1.6843,-1.6829,-1.6009,-1.4851,-1.3676,-1.4202,-1.3494,-1.2305,-1.2952,-1.3279,-1.3434,0.0,0.0,0.0,0.0,0.0,0.0,0.0,0.0,-0.3091,-0.3728,-0.5604,-0.7351,-0.8619,-1.1335,-1.3297,-1.3858,-1.4972,-1.4552,-1.1993,-1.043,-0.8423,-0.5775,-0.5481,-0.7503,-1.2031,-1.5751,-1.8564,-2.0439,-2.2965,-2.4393,-2.4843,-2.5297,-2.5329,-2.4975,-2.4798,-2.4323,-2.3563,-2.1805,-1.9064,-1.5774,-1.4414,-1.1413,-0.7595,0.0,0.0,0.0,0.0,0.0,0.0,0.0,0.0,0.0,0.0,0.0,0.0,0.0,0.0,0.0,0.0,0.0,0.0,0.0,0.0,0.0,0.0,0.0,0.0,0.0,0.0,0.0,0.0,0.0,0.0,0.0,0.0,0.0,0.0,0.0,-1.4528,-1.478,-1.6757,-1.7741,-1.6867,-1.7726,-1.8524,-1.8932,-1.9311,-1.9584,-1.9731,-1.9388,-1.9476,-2.012,-1.9769,-1.9823,-2.0421,-2.0191,-2.0104,-2.017,-1.9374,-1.906,-1.9168,-1.8564,-1.8156,-1.788,-1.818,-1.8132,-1.7868,-1.7749,-1.7115,-1.6198,-1.6105,-1.5375,-1.4444,-1.4917,-1.5072,-1.4998,0.0,0.0,0.0,0.0,0.0,0.0,0.0,-0.2955,-0.3695,-0.5651,-0.759,-0.9753,-1.226,-1.4156,-1.5446,-1.5913,-1.598,-1.4362,-1.0503,-1.0121,-0.8454,-0.4921,-0.7663,-1.182,-1.7278,-1.9148,-2.1302,-2.3808,-2.5646,-2.6542,-2.6548,-2.6696,-2.673,-2.6704,-2.6163,-2.5461,-2.4622,-2.4259,-2.2578,-1.9889,-1.7375,-1.4045,-1.0356,0.0,0.0,0.0,0.0,0.0,0.0,0.0,0.0,0.0,0.0,0.0,0.0,0.0,0.0,0.0,0.0,0.0,0.0,0.0,0.0,0.0,0.0,0.0,0.0,0.0,0.0,0.0,0.0,0.0,0.0,0.0,0.0,0.0,-1.2217,-1.5251,-1.7146,-1.6318,-1.897,-2.0507,-1.9539,-2.0925,-2.1871,-2.1884,-2.1425,-2.1362,-2.1847,-2.1254,-2.1291,-2.2171,-2.2183,-2.202,-2.1715,-2.177,-2.1433,-2.0744,-2.0673,-2.0843,-2.1172,-2.1146,-2.0658,-1.9831,-2.0758,-2.0652,-1.9855,-1.9533,-1.9408,-1.9237,-1.7363,-1.6493,-1.6324,-1.6196,-1.6043,-1.592,0.0,0.0,0.0,0.0,0.0,0.0,-0.2893,-0.2958,-0.32,-0.3758,-0.6725,-0.9362,-1.0835,-1.421,-1.6539,-1.7023,-1.747,-1.6553,-1.3831,-1.1909,-1.0123,-0.8433,-1.1406,-1.5151,-1.9604,-2.2399,-2.4667,-2.6375,-2.6902,-2.7398,-2.7887,-2.7923,-2.7695,-2.7246,-2.6718,-2.613,-2.5491,-2.4706,-2.3722,-2.2523,-2.0656,-1.7894,-1.4706,0.0,0.0,0.0,0.0,0.0,0.0,0.0,0.0,0.0,0.0,0.0,0.0,0.0,0.0,0.0,0.0,0.0,0.0,0.0,0.0,0.0,0.0,0.0,0.0,0.0,0.0,0.0,0.0,0.0,0.0,0.0,0.0,-1.7947,-1.7253,-1.8004,-1.9281,-2.1002,-2.1993,-2.2605,-2.2764,-2.2904,-2.3147,-2.3566,-2.3166,-2.2972,-2.309,-2.1701,-2.1191,-2.1807,-2.1458,-2.1596,-2.2274,-2.3011,-2.3444,-2.3645,-2.2724,-2.2439,-2.274,-2.2178,-2.1873,-2.18,-2.1919,-2.183,-2.159,-2.1367,-2.0731,-1.9806,-1.7983,-1.7034,-1.6796,-1.7391,-1.7971,-1.8283,0.0,0.0,0.0,0.0,0.0,0.0,-0.2846,-0.3008,-0.3387,-0.4124,-0.6965,-0.9608,-1.1375,-1.4469,-1.6789,-1.7699,-1.7805,-1.6744,-1.4187,-1.2104,-1.2025,-1.4426,-1.616,-1.8949,-2.2935,-2.5102,-2.658,-2.7396,-2.7688,-2.8027,-2.8411,-2.8411,-2.8137,-2.7595,-2.6979,-2.6428,-2.5934,-2.5062,-2.4535,-2.4159,-2.3216,-2.0643,-1.7241,-1.6421,-1.4205,-1.1468,-1.1278,-1.0322,-0.9033,-0.8353,0.0,0.0,0.0,0.0,0.0,0.0,0.0,0.0,0.0,0.0,0.0,0.0,0.0,0.0,0.0,0.0,0.0,0.0,0.0,0.0,0.0,0.0,0.0,0.0,-1.8818,-2.1362,-2.1848,-2.1705,-2.2166,-2.3759,-2.4177,-2.4462,-2.4829,-2.4902,-2.507,-2.5405,-2.5053,-2.4867,-2.4867,-2.3683,-2.2921,-2.274,-2.282,-2.2923,-2.3096,-2.4049,-2.4779,-2.5216,-2.4464,-2.4296,-2.4617,-2.4106,-2.3689,0.0,-2.3566,-2.353,-2.3151,-2.2785,-2.2368,0.0,0.0,0.0,0.0,0.0,-1.9753,-2.0396,0.0,0.0,0.0,0.0,0.0,0.0,-0.2765,-0.3041,-0.3868,-0.5613,-0.7726,-1.0075,-1.2755,-1.4795,-1.6504,-1.7829,-1.7237,-1.5656,-1.2925,-1.1474,-1.381,-2.0734,-2.0813,-2.2516,-2.6471,-2.7211,-2.755,-2.755,-2.8143,-2.842,-2.842,-2.8411,-2.8177,-2.7765,-2.7045,-2.6481,-2.6041,-2.5356,-2.5033,-2.5005,-2.5033,-2.2562,-1.8919,-1.9183,-1.7326,-1.4571,-1.4325,-1.3717,-1.2821,-1.1684,0.0,0.0,0.0,0.0,0.0,0.0,0.0,0.0,0.0,0.0,0.0,0.0,0.0,0.0,0.0,0.0,0.0,0.0,0.0,0.0,0.0,0.0,0.0,0.0,-2.0915,-2.3451,-2.5868,-2.5747,-2.5372,-2.5319,-2.5841,-2.6186,-2.6128,-2.6724,-2.7069,-2.701,-2.6776,-2.6664,-2.6664,0.0,0.0,0.0,0.0,-2.489,-2.3991,-2.4908,-2.5505,-2.58,-2.5822,-2.6044,-2.635,-2.635,-2.5696,-2.4578,-2.5469,-2.5398,-2.4653,-2.4074,-2.4036,-2.4075,-2.145,-1.9954,-1.9392,-2.0379,-2.137,0.0,0.0,0.0,0.0,0.0,0.0,0.0,-0.2626,-0.2786,-0.3521,-0.526,-0.7458,-0.9705,-1.1907,-1.4733,-1.6415,-1.6291,-1.5877,-1.4901,-1.3211,-1.2052,-1.4212,-2.0505,-2.1371,-2.3522,-2.7363,-2.8163,-2.8521,-2.8521,-2.855,-2.8565,-2.8565,-2.8444,-2.8177,-2.7765,-2.7148,-2.6587,-2.6068,-2.5605,-2.5257,-2.5005,-2.5118,-2.4147,-2.2628,-2.2245,-2.1259,-1.9915,-1.8657,-1.7534,-1.6455,-1.4939,-1.3552,-1.2394,-1.2013,-1.1245,0.0,0.0,0.0,0.0,0.0,0.0,0.0,0.0,0.0,0.0,0.0,0.0,0.0,0.0,0.0,0.0,0.0,0.0,0.0,-2.2506,-2.4767,-2.6916,-2.8494,-2.8235,-2.7727,-2.7246,-2.7775,-2.7969,-2.7479,-2.765,-2.7573,-2.704,-2.7,-2.7,-2.7,-2.5491,0.0,-2.4995,-2.4279,-2.4027,-2.4287,-2.5251,-2.573,-2.58,0.0,0.0,-2.6604,-2.6604,-2.6595,-2.6615,-2.6634,-2.6575,-2.6405,-2.614,-2.5498,-2.4493,-2.2443,-2.195,-2.2261,-2.164,-2.2499,-2.3896,0.0,0.0,0.0,0.0,0.0,0.0,-0.2456,-0.2677,-0.3139,-0.3945,-0.6031,-0.8085,-0.9765,-1.1849,-1.3423,-1.4131,-1.4047,-1.4207,-1.4869,-1.5371,-1.8003,-2.3264,-2.4267,-2.5735,-2.7992,-2.8418,-2.8604,-2.8604,-2.8517,-2.8493,-2.8493,-2.842,-2.8063,-2.7433,-2.7319,-2.6877,-2.6232,-2.6168,-2.5896,-2.5453,-2.5539,-2.5058,-2.4321,-2.4055,-2.3347,-2.2426,-2.1831,-2.0856,-1.9733,-1.8637,-1.7555,-1.6479,-1.5276,-1.4367,-1.3204,0.0,0.0,0.0,0.0,0.0,0.0,0.0,0.0,0.0,0.0,0.0,0.0,0.0,0.0,-1.8428,-1.8863,0.0,-2.2131,-2.4342,-2.5796,-2.7415,-2.9577,-2.9948,-2.9667,-2.8746,-2.8961,-2.9029,-2.8727,-2.8734,-2.8619,-2.8285,-2.8061,-2.7998,-2.8094,-2.7209,-2.6527,-2.6178,-2.6179,-2.5978,-2.5572,-2.6802,-2.7102,-2.649,-2.678,-2.664,-2.6189,-2.6189,-2.6299,-2.6433,-2.6342,-2.6303,-2.6303,-2.6183,-2.5748,-2.5117,-2.4252,-2.3896,-2.3805,-2.324,-2.3972,-2.5128,0.0,0.0,0.0,0.0,0.0,0.0,0.0,-0.2576,-0.2873,-0.3117,-0.4791,-0.6477,-0.7835,-0.8995,-1.022,-1.1564,-1.2077,-1.344,-1.6019,-1.8266,-2.1539,-2.6127,-2.6796,-2.7511,-2.8468,-2.8493,-2.8493,-2.8484,-2.8444,-2.8444,-2.8444,-2.8323,-2.785,-2.706,-2.7389,-2.7087,-2.6362,-2.6622,-2.6391,-2.5873,-2.5794,-2.5439,-2.4948,-2.4948,-2.4412,-2.3677,-2.371,-2.3098,-2.2171,-2.1442,-2.0909,-2.0163,-1.8167,-1.714,-1.5855,-1.1795,-1.1593,0.0,0.0,0.0,0.0,0.0,0.0,0.0,0.0,-1.4819,-1.6223,-1.8388,-1.9801,-2.0808,-2.1445,-2.1789,-2.2978,-2.6049,-2.6659,-2.767,-3.0222,-3.1059,-3.1094,-3.0226,-3.0132,-3.0088,-2.9987,-2.9907,-2.9844,-2.969,-2.9202,-2.9077,-2.936,-2.9297,-2.883,-2.7879,-2.8729,-2.8604,-2.7371,-2.851,-2.8598,-2.7606,-2.7557,-2.7007,-2.6074,-2.597,-2.5904,-2.5904,-2.6085,-2.6131,-2.612,-2.5977,-2.5892,-2.5826,-2.5752,-2.5322,-2.4735,-2.4766,-2.5242,-2.5895,0.0,0.0,0.0,0.0,0.0,0.0,0.0,0.0,-0.2937,-0.4538,-0.5169,-0.61,-0.7735,-0.8924,-0.9287,-0.8494,-1.0283,-1.2382,-1.4585,-1.7244,-2.1033,-2.6157,-2.6138,-2.6849,-2.8716,-2.8818,-2.8818,-2.8747,-2.8636,-2.8573,-2.8565,-2.8088,-2.7534,-2.693,-2.716,-2.6835,-2.6162,-2.6374,-2.6245,-2.5875,-2.546,-2.5101,-2.4806,-2.4806,-2.4738,-2.4532,-2.3548,-2.3066,-2.2723,-2.1655,-2.0936,-2.0442,-2.0037,-1.8816,-1.6997,-1.4257,-1.306,-1.1969,-0.9019,-0.8374,-0.916,-1.1727,-1.308,-1.4428,0.0,-1.9842,-2.2095,-2.223,-2.4505,-2.6642,-2.7332,-2.7944,-2.8713,-2.9695,-2.9889,-3.0222,-3.1151,-3.1336,-3.1582,-3.2023,-3.2091,-3.187,-3.1331,-3.129,-3.1028,-3.0419,-2.9797,-2.9677,-3.0205,-3.0016,-3.0085,-3.045,-3.033,-3.0086,-2.9713,-2.9549,-2.9269,-2.8949,-2.8096,-2.7623,-2.7481,-2.6921,-2.6669,-2.6693,-2.7385,-2.7636,-2.7589,-2.6934,-2.6658,-2.6584,-2.575,-2.5508,-2.5577,-2.5703,-2.5812,-2.5895,0.0,0.0,0.0,0.0,0.0,0.0,0.0,0.0,0.0,-0.3326,-0.3628,-0.4217,-0.5382,-0.6044,-0.6005,-0.5017,-0.7518,-1.0257,-1.2871,-1.6566,-2.0538,-2.4745,-2.5577,-2.6435,-2.755,-2.7615,-2.7765,-2.8042,-2.768,-2.764,-2.7944,-2.7403,-2.6916,-2.6431,-2.6775,-2.6623,-2.6118,-2.6471,-2.6344,-2.5873,-2.5587,-2.526,-2.492,-2.4835,-2.404,-2.288,-2.1964,-2.1274,0.0,-2.0155,-1.9525,-1.9046,-1.9443,-1.8582,-1.6927,-1.4186,-1.3336,-1.3222,-1.2924,-1.3462,-1.4439,-1.5821,-1.7695,-1.9497,-2.0692,-2.2312,-2.3932,-2.522,-2.7118,-2.8658,-2.8935,-2.8419,-2.8614,-3.0648,-2.9843,-2.9653,-3.1693,-3.1967,-3.2074,-3.2367,-3.1148,-3.0217,-3.0018,-3.0891,-3.0979,-2.9723,-3.0273,-3.0808,-3.1142,-3.1054,-3.103,-3.1057,-3.1171,-3.1234,-3.1261,-3.1458,-3.1051,-3.0056,-2.9751,-2.8922,-2.7566,-2.7301,-2.6945,-2.6531,-2.6831,-2.7207,-2.7609,-2.7266,-2.7388,-2.7727,-2.7107,-2.672,-2.6426,-2.5512,-2.5275,-2.5367,0.0,0.0,0.0,0.0,0.0,0.0,0.0,0.0,0.0,0.0,-0.2424,-0.2758,-0.3404,-0.3467,-0.3316,-0.2938,-0.5648,-0.8717,-1.1878,-1.5751,-1.9642,-2.3487,-2.4529,-2.549,-2.6428,-2.6509,-2.6762,-2.7287,-2.6886,-2.6886,-2.7272,-2.6756,-2.6349,-2.6056,-2.6386,-2.6352,-2.606,-2.6405,-2.6307,-2.5873,-2.5623,-2.5175,-2.4635,-2.4125,-2.2767,-2.109,-2.0742,-1.9725,-1.8489,-1.8197,-1.7781,-1.7443,-1.7728,-1.7173,-1.5936,-1.3488,-1.2681,-1.3057,-1.5227,-1.6499,-1.7611,-1.9384,-2.1479,-2.3311,-2.411,-2.4723,-2.5619,-2.733,-2.8611,-2.9448,-2.9633,-2.8838,-2.8925,-3.1278,-3.0245,-2.9918,-3.2093,-3.2398,-3.2155,-3.1478,-2.9957,-2.843,-2.708,-2.942,-3.0893,-3.0541,-3.1456,-3.2176,-3.2418,-3.2168,-3.1971,-3.1828,-3.2076,-3.2243,-3.2257,-3.2744,-3.242,-3.1244,-3.102,-3.0023,-2.8369,-2.8222,-2.7853,-2.7344,-2.7344,-2.7588,-2.7928,-2.7735,-2.794,-2.8393,-2.798,-2.7606,-2.7144,-2.5678,-2.5094,-2.4932,0.0,0.0,0.0,0.0,0.0,0.0,0.0,0.0,0.0,0.0,0.0,0.0,0.0,-0.2176,-0.2228,-0.3111,-0.5417,-0.8376,-1.2045,-1.4618,-1.8091,-2.2818,-2.2766,-2.3635,-2.577,-2.594,-2.6247,-2.673,-2.6704,-2.6704,-2.6704,-2.6295,-2.6055,-2.5921,-2.6046,-2.6033,-2.593,-2.5914,-2.5914,-2.5846,-2.5263,-2.4568,-2.3781,-2.2325,-2.0913,-1.9735,-2.044,-1.9059,-1.6769,-1.6044,-1.5965,-1.6005,-1.5118,-1.4532,-1.3931,-1.2614,-1.0955,-1.0345,-1.4113,-1.4541,-1.5298,-2.0969,-2.2993,-2.422,-2.6704,-2.7794,-2.8286,-2.8341,-2.8935,-2.9587,-3.0248,-3.0874,-3.1505,-3.2244,-3.2305,-3.2305,-3.2382,-3.2398,-3.1523,-2.9187,-2.92,-2.7443,0.0,-2.6763,-3.1098,-3.4123,-3.3759,-3.3694,-3.4289,-3.3387,-3.3043,-3.3435,-3.3325,-3.3058,-3.2676,-3.2903,-3.2868,-3.2627,-3.1343,-3.069,-3.0592,-3.0016,-2.9808,-2.9995,-2.9995,-2.9731,-2.9284,-2.857,-2.8289,-2.8254,-2.7795,-2.7708,-2.7718,-2.6582,-2.5673,-2.4932,0.0,0.0,0.0,0.0,0.0,0.0,0.0,0.0,0.0,0.0,0.0,0.0,0.0,0.0,0.0,0.0,-0.3508,-0.536,-0.8393,-1.1427,-1.4877,-1.8853,-2.0873,-2.2578,-2.4034,-2.4128,-2.4432,-2.4975,-2.4577,-2.4577,-2.4949,-2.4434,-2.4378,-2.4696,-2.4736,-2.4965,-2.5303,-2.5303,-2.5073,-2.4679,-2.4392,-2.3494,-2.2156,-2.0562,-1.8594,-1.6421,0.0,-1.4136,-1.3674,-1.3264,-1.3077,-1.3146,-1.367,-1.3238,-1.2187,-1.0658,-1.1422,-1.3196,-1.5101,-1.7886,-2.0878,-2.357,-2.5514,-2.7017,-2.788,-2.8242,-2.8411,-2.8411,-2.7762,-2.7269,-2.7459,-2.6783,-2.6933,-2.9129,-2.8147,-2.8344,-3.1897,-2.9763,-2.8819,-3.1518,-2.9197,0.0,0.0,0.0,0.0,-2.9872,-3.2935,-3.4911,-3.5073,-3.4877,-3.4376,-3.3541,-3.3604,-3.3325,-3.2704,-3.2775,-3.2775,-3.2704,-3.1703,-3.1232,-3.1209,-3.0887,-3.0442,-2.997,-3.0355,-3.0379,-3.0087,-2.9707,-2.9836,-3.0213,-2.9578,-2.9136,-2.8803,-2.7987,-2.7261,-2.6531,0.0,0.0,0.0,0.0,0.0,0.0,0.0,0.0,0.0,0.0,0.0,0.0,0.0,0.0,0.0,0.0,0.0,-0.3614,-0.6379,-0.8644,-1.1379,-1.4775,-1.6994,-1.8665,-1.9771,-2.0368,-2.1008,-2.1704,-2.2009,-2.2519,-2.3169,-2.2966,-2.3201,-2.3784,-2.3784,-2.3987,-2.4326,-2.3781,-2.3323,-2.2897,-2.2023,-2.0913,-1.9597,-1.7679,-1.5578,0.0,-1.0983,-1.0359,-1.0614,-1.0467,-1.0597,-1.0917,-1.1503,-1.1405,-1.1116,-1.1389,-1.2988,-1.5264,-1.8092,-2.1139,-2.3983,-2.5811,-2.7379,-2.8468,-2.8396,-2.8411,-2.8411,-2.8411,-2.7348,-2.6285,-2.5856,-2.4792,-2.4616,-2.6576,-2.5868,-2.6559,-3.09,-2.931,-2.8793,-3.1753,-2.9743,-2.929,0.0,0.0,0.0,-2.9462,-3.26,-3.4546,-3.4448,-3.443,-3.4362,-3.4197,-3.3919,-3.3555,-3.2995,-3.2797,-3.2704,-3.2704,-3.2187,-3.204,-3.227,-3.2108,-3.1552,-3.0714,-3.1473,-3.1406,-3.0749,-3.0536,-3.083,-3.1335,-3.0779,-3.0438,-3.0291,-2.9954,-2.9243,-2.8161,0.0,0.0,0.0,0.0,0.0,0.0,0.0,0.0,0.0,0.0,0.0,0.0,0.0,0.0,0.0,0.0,0.0,0.0,-0.591,-0.6389,-0.7897,-1.0885,-1.1553,-1.2435,-1.3622,-1.5155,-1.6325,-1.7156,-1.9035,-2.0335,-2.1093,-2.1613,-2.2202,-2.2798,-2.2798,-2.2825,-2.2746,-2.1277,-2.0615,-2.0411,-1.8373,-1.7102,-1.6201,-1.382,-1.2065,-1.0614,-0.8667,-0.7902,-0.7792,-0.7871,-0.8696,-0.9631,-0.9193,-0.9603,-1.0958,-1.45,-1.5447,-1.6605,-2.2395,-2.391,-2.4593,-2.7663,-2.8517,-2.8549,-2.842,-2.8411,-2.8365,-2.8203,-2.7364,-2.6312,-2.5142,-2.4507,-2.4292,-2.4663,-2.5373,-2.6821,-2.9454,-3.0749,-3.1057,-3.0003,-3.08,-3.0468,-2.8017,0.0,0.0,-3.2702,0.0,-3.3016,-3.2883,-3.2527,-3.3269,-3.534,-3.4428,-3.3748,-3.3506,-3.2938,-3.2668,-3.2668,-3.2696,-3.3027,-3.3583,-3.3638,-3.3081,-3.212,-3.3317,-3.2857,-3.1269,-3.1077,-3.1243,-3.1541,-3.1374,-3.1503,-3.1887,-3.2209,-3.1436,-2.9793,0.0,0.0,0.0,0.0,0.0,0.0,0.0,0.0,0.0,0.0,0.0,0.0,0.0,0.0,0.0,0.0,0.0,0.0,-0.3178,-0.5165,-0.6944,-0.8372,-1.0377,-1.1911,-1.2866,-1.3378,-1.3707,-1.3817,-1.4575,-1.5088,-1.5389,-1.5734,-1.6362,-1.7248,-1.7248,-1.7489,-1.7883,-1.7364,-1.6898,-1.6372,-1.5678,-1.4482,-1.2934,-1.1224,-0.9976,-0.8904,-0.7044,-0.6927,-0.7652,-0.7727,-0.9295,-1.1709,-1.4396,-1.5138,-1.5029,-1.489,-1.7868,-2.1176,-2.0968,-2.4063,-2.7535,-2.8331,-2.8573,-2.8549,-2.842,-2.8411,-2.7779,-2.564,-2.3679,-2.161,-1.9078,-1.7553,-1.7946,-2.1871,-2.1992,-2.3282,-2.8176,-2.8246,-2.8659,-3.0876,-3.1546,-3.244,-3.401,-3.494,0.0,0.0,-3.4485,-3.5585,-3.5539,-3.5416,-3.538,-3.5417,-3.5124,-3.4447,-3.3297,-3.2632,-3.235,-3.235,-3.2786,-3.3087,-3.3278,-3.4088,-3.4002,-3.3144,-3.393,-3.3685,-3.2735,-3.2546,-3.2001,-3.1362,-3.2222,-3.1302,-2.9844,-3.2164,-3.2122,-3.0905,0.0,0.0,0.0,0.0,0.0,0.0,0.0,0.0,0.0,0.0,0.0,0.0,0.0,0.0,0.0,0.0,0.0,0.0,0.0,-0.3593,-0.4693,-0.5234,-0.6837,-0.7944,-0.8473,-0.9413,-0.9869,-0.9798,-1.1161,-1.1958,-1.223,-1.2782,-1.3481,-1.4274,-1.428,-1.4484,-1.4718,-1.3919,-1.3414,0.0,0.0,-1.1002,-1.001,-0.8777,-0.7995,-0.742,-0.6221,-0.6457,-0.7742,-1.0401,-1.1553,-1.2584,-1.6569,-1.762,-1.7653,-1.8863,-2.1472,-2.3991,-2.4079,-2.6359,-2.8738,-2.8912,-2.8805,-2.8302,-2.6865,-2.6727,-2.5978,-2.2849,-2.0841,-1.8921,-1.6477,-1.5121,-1.5641,-1.9609,-2.0557,-2.2322,-2.6717,-2.7282,-2.8304,-3.1171,-3.1806,-3.3188,-3.623,-3.6492,-3.5907,0.0,-3.4713,-3.4881,-3.4851,-3.4881,-3.5232,-3.5849,-3.5576,-3.4681,-3.3213,-3.2832,-3.264,-3.2612,-3.2938,-3.3373,-3.3865,-3.4529,-3.4403,-3.3701,0.0,-3.4454,-3.3573,-3.3366,-3.3013,-3.2651,-3.3068,-3.2432,-3.1466,-3.3585,-3.3456,-3.2397,0.0,0.0,0.0,0.0,0.0,0.0,0.0,0.0,0.0,0.0,0.0,0.0,0.0,0.0,0.0,0.0,0.0,0.0,0.0,0.0,-0.221,-0.2366,-0.2772,-0.3049,-0.3159,-0.4907,-0.5806,-0.5794,-0.8175,-0.9539,-0.9918,-1.0779,-1.1508,-1.2086,-1.2095,-1.2111,-1.2049,-1.0571,-1.0047,-1.0064,-0.8171,-0.75,-0.7535,0.0,-0.6369,-0.6284,-0.6051,-0.6424,-0.7917,-1.3812,-1.4297,-1.324,-1.7821,-1.9218,-1.9924,-2.382,-2.5107,-2.5788,-2.8213,-2.8855,-2.8911,-2.9259,-2.9071,-2.8031,-2.5061,-2.4605,-2.38,-2.0232,-1.8662,-1.7388,-1.559,-1.4989,-1.5509,-1.7716,-2.0005,-2.2334,-2.4664,-2.6992,-2.9072,-3.0761,-3.1763,-3.3444,-3.6245,-3.6322,-3.6307,-3.6476,-3.4545,-3.3332,-3.3199,-3.3317,-3.4332,-3.643,-3.5769,-3.4747,-3.3353,-3.3262,-3.3173,-3.3101,-3.3183,-3.3756,-3.4788,-3.487,-3.4626,-3.4206,0.0,0.0,-3.414,-3.394,-3.4038,-3.4282,-3.3987,-3.3917,-3.4134,-3.5278,-3.4802,-3.3743,0.0,0.0,0.0,0.0,0.0,0.0,0.0,0.0,0.0,0.0,-0.1724,-0.1667,0.0,0.0,0.0,0.0,0.0,0.0,0.0,0.0,0.0,-0.2217,-0.2365,-0.2597,-0.2945,-0.3512,-0.3753,-0.3636,-0.4498,-0.4995,-0.5185,-0.5637,-0.6191,-0.6815,-0.6815,-0.6943,-0.7121,-0.6659,-0.6552,-0.6645,-0.6156,-0.6054,-0.6144,-0.5984,0.0,0.0,-0.6641,-0.6965,-0.7917,-1.3399,-1.4977,-1.5842,-2.2649,-2.4552,-2.4237,-2.4269,-2.6082,-2.7659,-2.5669,-2.6974,-2.8905,-2.8967,-2.8928,-2.8264,-2.5916,-2.4814,-2.3086,-1.8789,-1.7118,-1.5776,-1.3469,-1.3656,-1.4668,-1.6239,-1.8411,-2.0124,-2.0737,-2.5987,-2.9493,-2.8763,-3.1873,-3.4707,-3.6338,-3.5506,0.0,0.0,0.0,-3.5861,-3.5861,-3.5861,-3.6061,-3.6476,-3.5769,-3.4978,-3.4109,-3.3492,-3.3173,-3.3115,-3.3552,-3.4124,-3.4816,-3.5303,-3.5506,-3.5385,0.0,0.0,-3.5371,-3.5345,-3.47,-3.3855,-3.4901,-3.3976,-3.2311,-3.4807,-3.4807,-3.3786,0.0,0.0,0.0,0.0,0.0,0.0,0.0,-0.1806,-0.1683,-0.165,-0.1593,-0.1577,-0.1648,-0.162,-0.1604,0.0,0.0,0.0,0.0,0.0,0.0,0.0,-0.2123,-0.225,-0.248,-0.2847,-0.2974,-0.2834,0.0,-0.3747,-0.3638,-0.398,-0.4383,-0.4824,-0.4785,-0.4942,-0.5211,-0.5088,-0.5184,-0.5429,-0.5367,-0.5522,-0.5802,-0.5802,0.0,0.0,-0.6748,-0.7046,-0.7707,-1.2058,-1.3556,-1.4949,-2.2802,-2.5129,-2.4895,-2.444,-2.6184,-2.78,-2.5843,-2.7067,-2.8952,-2.9208,-2.906,-2.7822,-2.3888,-2.284,-2.1287,-1.6335,-1.5153,-1.461,-1.3316,-1.337,-1.4427,-1.6894,-1.919,-2.1061,-2.2241,-2.6167,-2.9159,-2.9761,-3.1512,-3.3271,-3.4752,-3.4364,-3.4286,-3.4829,0.0,-3.5428,-3.643,-3.6492,-3.6492,-3.6492,-3.6148,-3.5432,-3.4312,-3.4255,-3.3992,-3.3525,-3.4084,-3.468,-3.5263,-3.5588,-3.571,-3.571,-3.571,0.0,-3.4802,-3.5425,-3.4928,-3.3886,-3.5197,-3.4861,-3.3844,-3.5197,-3.5278,-3.4781,0.0,0.0,0.0,0.0,0.0,0.0,0.0,-0.1656,-0.1593,-0.1583,-0.1486,-0.1447,-0.1542,-0.155,-0.1588,0.0,0.0,0.0,0.0,0.0,0.0,0.0,0.0,0.0,-0.2033,0.0,0.0,-0.2554,-0.3205,0.0,0.0,0.0,0.0,0.0,-0.4087,-0.4264,-0.4532,-0.4505,-0.4726,0.0,0.0,-0.5377,0.0,0.0,0.0,0.0,0.0,-0.6971,-0.7597,-1.0876,-1.2097,-1.3446,-2.0665,-2.3112,-2.3452,-2.4151,-2.5736,-2.7155,-2.6757,-2.7752,-2.8999,-2.937,-2.9012,-2.7218,-2.2077,-2.0907,-1.956,-1.4724,-1.3798,-1.387,-1.3909,-1.3696,-1.4406,-1.7246,-1.9127,-2.1094,-2.3522,-2.5848,-2.8292,-3.0983,-3.1415,-3.2193,-3.3892,-3.39,0.0,-3.4245,0.0,0.0,-3.6446,-3.6492,-3.6492,-3.6492,-3.6492,-3.5879,-3.4547,-3.4971,-3.4846,-3.4123,-3.4582,-3.51,-3.571,-3.571,-3.571,-3.571,-3.571,0.0,0.0,-3.5181,-3.4978,-3.403,-3.5209,-3.571,-3.571,-3.571,-3.571,-3.571,0.0,0.0,0.0,0.0,0.0,0.0,0.0,-0.1566,-0.1583,-0.1518,-0.1292,-0.1118,-0.1069,-0.1271,-0.1448,0.0,0.0,0.0,0.0,0.0,0.0,0.0,0.0,0.0,0.0,0.0,0.0,-0.2418,-0.2556,0.0,0.0,0.0,0.0,0.0,0.0,-0.4189,-0.4336,-0.4453,0.0,0.0,0.0,0.0,0.0,0.0,0.0,0.0,0.0,-0.6903,-0.7805,-1.0668,-1.2053,-1.3213,-1.7036,-1.8813,-2.0092,-2.3089,-2.4844,-2.6081,-2.7396,-2.8307,-2.8897,-2.8936,-2.8381,-2.6757,-2.2783,-2.0762,-1.8856,-1.5766,-1.4239,-1.3751,-1.4774,-1.4495,-1.4408,-1.5254,-1.5483,-1.6761,-2.0309,-2.3422,-2.6755,-3.0593,-3.2295,-3.3985,-3.6014,-3.5121,-3.5167,0.0,0.0,0.0,-3.6507,-3.6492,-3.6492,-3.6492,-3.6492,-3.6116,-3.5302,-3.5244,-3.5096,-3.4887,-3.484,-3.51,-3.571,-3.571,-3.571,-3.571,0.0,0.0,0.0,-3.5181,-3.4978,-3.403,-3.5209,-3.571,-3.571,-3.571,-3.571,-3.571,0.0,0.0,0.0,0.0,0.0,0.0,-0.1496,-0.1421,-0.1308,-0.1158,-0.0906,-0.0777,-0.0871,-0.1049,-0.1249,-0.148,0.0,0.0,0.0,0.0,0.0,0.0,0.0,0.0,0.0,0.0,-0.2152,-0.2213,-0.2327,0.0,0.0,0.0,0.0,0.0,0.0,-0.4135,-0.4311,-0.4574,0.0,0.0,0.0,0.0,0.0,0.0,0.0,0.0,0.0,0.0,-0.741,-0.9108,-1.0012,-1.079,-1.281,-1.4056,-1.5437,-1.8767,-2.2047,-2.4448,-2.3844,-2.5931,-2.8187,-2.7692,-2.6695,-2.4966,-2.1713,-1.9823,-1.8048,-1.5521,-1.4765,-1.4739,-1.5396,-1.5022,-1.4829,-1.5485,-1.5909,-1.7165,-2.006,-2.36,-2.7167,-3.0653,-3.284,-3.4198,0.0,0.0,-3.5042,0.0,0.0,0.0,-3.7046,-3.6722,-3.6492,-3.6492,-3.6492,-3.5943,-3.4747,-3.5412,-3.5266,-3.4352,-3.5027,-3.5493,-3.571,-3.571,-3.571,-3.571,0.0,0.0,0.0,-3.4936,-3.4597,-3.3064,-3.4977,-3.571,-3.571,-3.571,-3.571,-3.571,0.0,0.0,0.0,0.0,0.0,-0.1443,-0.1389,-0.1264,-0.1106,-0.0927,-0.0666,-0.0609,-0.089,-0.0931,-0.1082,-0.1437,-0.141,0.0,0.0,0.0,0.0,0.0,0.0,0.0,0.0,0.0,-0.1963,-0.2069,-0.2246,-0.2471,0.0,0.0,-0.3364,-0.362,0.0,0.0,0.0,0.0,0.0,0.0,0.0,0.0,0.0,0.0,0.0,0.0,0.0,0.0,0.0,0.0,0.0,-0.9246,-1.0255,-1.1026,-1.2185,-1.5527,-1.9446,-2.2497,-2.1585,-2.4213,-2.7046,-2.6474,-2.5121,-2.3269,-2.0732,-1.8932,-1.7222,-1.5214,-1.4904,-1.5134,-1.5595,-1.5172,-1.4988,-1.5703,-1.6345,-1.7539,-1.9761,-2.2833,-2.5998,-2.9121,-3.1069,-3.245,0.0,-3.4741,-3.6014,0.0,0.0,0.0,0.0,-3.7261,-3.6692,-3.6507,-3.6492,-3.6006,-3.496,-3.5709,-3.5573,-3.4578,-3.5338,-3.5628,-3.5425,-3.5642,-3.5615,-3.5425,0.0,0.0,0.0,-3.4882,-3.4529,-3.2901,-3.4923,-3.571,-3.571,-3.571,-3.571,-3.571,0.0,0.0,0.0,0.0,0.0,0.0,-0.1157,-0.1102,-0.1052,-0.0921,-0.0665,-0.0676,-0.1145,-0.0962,-0.0967,-0.1367,-0.134,0.0,0.0,0.0,0.0,0.0,0.0,0.0,0.0,0.0,-0.1801,-0.2005,-0.2266,-0.254,-0.2817,-0.3483,-0.3717,-0.3618,0.0,0.0,0.0,0.0,0.0,0.0,0.0,0.0,0.0,0.0,0.0,0.0,0.0,0.0,0.0,0.0,0.0,0.0,0.0,-1.0353,-1.1062,-1.4356,-1.7474,-2.0214,-2.1916,-2.3912,-2.5521,-2.5521,-2.3911,-2.1873,-2.0194,-1.8251,-1.6417,-1.5077,-1.4541,-1.4529,-1.5269,-1.4861,-1.4674,-1.5461,-1.5936,-1.6892,-1.8845,-2.0348,-2.2343,-2.5305,-2.6331,-2.8336,-3.2335,-3.6211,0.0,0.0,0.0,0.0,0.0,-3.8215,-3.7184,-3.6507,-3.6492,-3.6492,-3.6492,-3.6241,-3.61,-3.6079,-3.582,-3.5371,-3.4816,-3.5412,-3.5358,0.0,0.0,0.0,0.0,-3.5181,-3.4965,-3.4002,-3.5209,-3.571,-3.571,-3.571,-3.571,-3.571,0.0,0.0,0.0,0.0,0.0,0.0,0.0,-0.1166,-0.1084,-0.0862,-0.0757,-0.0743,-0.0848,-0.0905,-0.1005,-0.1177,-0.1215,0.0,0.0,0.0,0.0,0.0,0.0,0.0,0.0,0.0,-0.1847,-0.2136,-0.2492,-0.2831,-0.3155,-0.369,-0.3884,-0.3824,-0.4334,-0.4473,0.0,0.0,0.0,0.0,0.0,0.0,0.0,0.0,0.0,0.0,0.0,0.0,0.0,0.0,0.0,0.0,0.0,0.0,0.0,-1.1852,-1.4614,-1.7325,-1.7235,-1.9571,-2.178,-2.0875,-1.983,-1.8787,-1.7936,-1.6506,-1.5254,-1.4882,-1.473,-1.481,-1.5359,-1.5417,-1.5433,-1.5632,-1.5857,-1.6454,-1.7744,-2.0888,-2.4031,-2.6726,-3.0802,-3.4273,0.0,0.0,0.0,0.0,0.0,0.0,0.0,-3.8677,-3.7877,-3.72,-3.6738,-3.6258,-3.5737,-3.6533,-3.6406,-3.5368,-3.6154,-3.594,-3.4816,-3.5398,0.0,0.0,0.0,0.0,0.0,-3.5181,-3.4978,-3.403,-3.5209,-3.571,-3.571,-3.571,-3.571,-3.571,0.0,0.0,0.0,0.0,0.0,0.0,0.0,-0.127,-0.1182,-0.1011,-0.0945,-0.0897,-0.0853,-0.0944,-0.106,-0.1201,-0.1178,0.0,0.0,0.0,0.0,0.0,0.0,0.0,-0.1312,-0.1596,-0.1836,-0.2046,-0.2454,-0.2846,-0.3239,-0.3626,-0.3931,-0.414,-0.4374,-0.4463,0.0,0.0,0.0,0.0,0.0,0.0,-0.5633,0.0,0.0,0.0,0.0,0.0,0.0,0.0,0.0,0.0,0.0,0.0,0.0,0.0,-1.2033,-1.4299,-1.4763,-1.7153,-1.9349,-1.8593,-1.7738,-1.6992,-1.6675,-1.5561,-1.4597,-1.4641,-1.4513,-1.4547,-1.5103,-1.5022,-1.4863,-1.4813,-1.5525,-1.6279,-1.6837,-1.9733,-2.2847,-2.5686,-3.0572,0.0,0.0,0.0,0.0,0.0,0.0,0.0,0.0,-3.9262,-3.8585,-3.7908,-3.67,-3.5864,-3.54,-3.6075,-3.5942,-3.4999,-3.5975,-3.5737,-3.449,-3.5303,0.0,0.0,0.0,0.0,0.0,-3.5371,-3.5249,-3.4639,-3.5385,-3.571,-3.571,-3.571,-3.571,-3.571,0.0,0.0,0.0,0.0,0.0,0.0,0.0,-0.141,-0.1329,-0.1313,-0.1205,-0.1129,-0.1135,-0.108,-0.1136,-0.1384,0.0,0.0,0.0,0.0,0.0,0.0,0.0,0.0,-0.1518,-0.1716,-0.1835,-0.1858,-0.2267,-0.2685,-0.3115,-0.339,-0.3857,-0.4442,-0.4322,-0.4379,-0.4583,0.0,0.0,0.0,0.0,0.0,0.0,0.0,0.0,0.0,0.0,0.0,0.0,0.0,0.0,0.0,0.0,0.0,0.0,0.0,0.0,0.0,0.0,-1.6227,-1.7755,-1.7974,-1.7112,-1.6194,-1.6111,-1.5199,0.0,-1.4344,-1.3952,-1.3841,-1.4491,-1.397,-1.3435,-1.3384,-1.506,-1.6331,-1.6263,-1.7857,-2.0147,0.0,-2.716,0.0,0.0,0.0,0.0,0.0,0.0,0.0,0.0,-3.9809,-3.91,-3.8457,-3.6411,-3.5379,-3.5464,-3.5203,-3.5068,-3.5003,-3.5492,-3.5071,-3.388,-3.5073,0.0,0.0,0.0,0.0,0.0,-3.571,-3.571,-3.571,-3.571,-3.571,-3.571,-3.571,-3.571,-3.571,0.0,0.0,0.0,0.0,0.0,0.0,0.0,0.0,0.0,0.0,-0.1421,-0.1421,-0.1475,-0.1421,-0.141,0.0,0.0,0.0,0.0,0.0,0.0,0.0,0.0,0.0,-0.172,-0.1924,-0.2157,-0.2412,-0.2864,-0.3119,-0.3185,-0.3606,-0.3837,-0.3892,-0.3957,-0.4105,-0.4309,-0.4552,0.0,0.0,0.0,0.0,0.0,0.0,0.0,0.0,-0.5802,-0.6399,0.0,0.0,0.0,0.0,0.0,0.0,0.0,0.0,-0.9867,-1.0716,-1.229,0.0,-1.3989,-1.4394,-1.4444,-1.4361,0.0,-1.3965,-1.3761,-1.3661,-1.3309,-1.3184,-1.3753,-1.3947,-1.4043,-1.4128,-1.5243,-1.6468,-1.7563,-2.2555,0.0,-2.6881,-3.1566,-3.4912,0.0,0.0,0.0,0.0,0.0,0.0,0.0,-3.9282,-3.829,-3.7677,-3.5549,-3.501,-3.6226,-3.604,-3.5647,-3.5152,-3.5677,-3.5021,-3.3308,-3.4502,0.0,0.0,0.0,0.0,-3.571,-3.571,-3.571,-3.571,-3.571,-3.571,-3.571,-3.571,-3.571,-3.571,0.0,0.0,0.0,0.0,0.0,0.0,0.0,0.0,0.0,0.0,0.0,-0.155,-0.1555,-0.1491,0.0,0.0,0.0,0.0,0.0,0.0,0.0,0.0,0.0,-0.1745,-0.1977,-0.2211,-0.2421,-0.2598,-0.2914,-0.3178,-0.3388,-0.3486,-0.3708,-0.4024,-0.4069,-0.4129,-0.4207,-0.436,-0.4564,0.0,-0.503,0.0,0.0,0.0,0.0,0.0,-0.6104,-0.6627,0.0,-0.7461,-0.8133,-0.8894,0.0,0.0,0.0,0.0,-0.9957,-1.0716,-1.1627,-1.2397,-1.3074,-1.3513,-1.3677,-1.3724,-1.3765,-1.3493,-1.3282,-1.3467,-1.2947,-1.2733,-1.3545,-1.3695,-1.3864,-1.4373,-1.5769,-1.7371,-1.9102,-2.3147,-2.6138,-2.6657,-3.0171,0.0,0.0,0.0,0.0,0.0,0.0,0.0,0.0,-3.8975,-3.8156,-3.6876,-3.5368,-3.4682,-3.4993,-3.5082,-3.4832,-3.424,-3.5081,-3.4623,-3.3142,-3.4285,0.0,0.0,0.0,0.0,-3.5696,-3.5385,-3.5425,-3.571,-3.571,-3.571,-3.571,-3.571,-3.571,-3.571,0.0,0.0,0.0,0.0,0.0,0.0,0.0,0.0,0.0,0.0,0.0,0.0,0.0,0.0,0.0,0.0,0.0,0.0,0.0,0.0,0.0,0.0,-0.1859,-0.2048,-0.2255,-0.2479,-0.2587,-0.2587,-0.2718,-0.3023,-0.3468,-0.3222,-0.3524,-0.4271,-0.4287,-0.4236,-0.4166,-0.425,-0.4505,-0.4864,-0.4971,0.0,0.0,0.0,0.0,0.0,0.0,0.0,0.0,-0.7781,-0.8368,-0.8944,-0.9072,0.0,0.0,0.0,0.0,0.0,-1.1453,-1.2402,-1.3279,-1.3812,-1.3786,-1.3662,-1.383,-1.3395,-1.3047,-1.3422,-1.2815,-1.2518,-1.3497,-1.3476,-1.3568,-1.4393,-1.6585,0.0,-2.0849,-2.2766,-2.4327,-2.5273,-2.7454,0.0,0.0,0.0,0.0,0.0,0.0,0.0,0.0,-3.8635,-3.8046,-3.61,-3.5311,-3.4296,-3.3066,-3.3526,-3.3536,-3.3151,-3.4066,-3.3987,-3.3006,-3.4149,-3.4382,0.0,0.0,0.0,-3.5683,-3.5141,-3.5222,-3.571,-3.571,-3.571,-3.571,-3.571,-3.571,-3.571,0.0,0.0,0.0,0.0,0.0,0.0,0.0,0.0,0.0,0.0,0.0,0.0,0.0,0.0,0.0,0.0,0.0,0.0,0.0,0.0,0.0,-0.2182,-0.2163,-0.2274,-0.2528,-0.2524,-0.2517,-0.2517,-0.2648,-0.2782,-0.2924,-0.3103,-0.3374,-0.3741,-0.4073,-0.4115,-0.3983,-0.4488,-0.4687,-0.4688,-0.5262,0.0,0.0,0.0,0.0,0.0,0.0,0.0,0.0,-0.7817,-0.8248,-0.8549,-0.8337,0.0,0.0,0.0,0.0,0.0,-1.0981,-1.1789,-1.2307,-1.3402,-1.3674,-1.3538,-1.2948,-1.3252,-1.3508,-1.3015,-1.2844,-1.2855,-1.3085,-1.3713,-1.4287,-1.4613,-1.7914,-2.1037,0.0,0.0,-2.8263,-2.6793,0.0,0.0,0.0,0.0,0.0,0.0,0.0,0.0,0.0,0.0,-3.6651,-3.5303,-3.4499,-3.355,-3.235,-3.2921,-3.3193,-3.317,-3.3303,-3.3006,-3.2395,-3.3501,-3.4002,0.0,0.0,-3.5628,-3.571,-3.5615,-3.5642,-3.571,-3.571,-3.571,-3.571,-3.571,-3.571,-3.571,0.0,0.0,0.0,0.0,0.0,0.0,0.0,0.0,0.0,0.0,0.0,0.0,0.0,0.0,0.0,0.0,0.0,0.0,0.0,0.0,-0.2116,-0.2442,-0.2471,-0.2532,-0.2653,-0.2621,-0.2658,-0.2765,-0.2871,-0.3026,-0.3238,-0.3651,-0.3852,-0.3879,-0.4144,-0.4117,-0.3921,-0.4193,-0.4438,-0.4677,0.0,0.0,0.0,0.0,0.0,0.0,0.0,0.0,0.0,0.0,-0.8097,-0.8209,-0.8036,0.0,0.0,0.0,0.0,0.0,-1.079,-1.1817,-1.2757,-1.3608,-1.398,-1.4308,-1.4985,-1.4466,-1.3891,-1.4031,-1.3456,-1.3171,-1.3889,-1.5116,-1.6786,-1.9138,0.0,-2.2672,-2.4808,-2.6476,-2.7385,0.0,0.0,0.0,0.0,0.0,0.0,0.0,0.0,0.0,0.0,0.0,-3.5819,-3.4489,-3.381,-3.305,-3.2218,-3.2803,-3.2973,-3.2682,-3.324,-3.3064,-3.2259,-3.3704,-3.4219,-3.3962,0.0,-3.5385,-3.5683,-3.5331,-3.5385,-3.571,-3.571,-3.571,-3.571,-3.571,-3.571,-3.571,0.0,0.0,0.0,0.0,0.0,0.0,0.0,0.0,0.0,0.0,0.0,0.0,0.0,0.0,0.0,0.0,0.0,0.0,0.0,-0.2147,-0.2359,-0.2614,-0.2667,-0.2697,-0.2697,-0.267,-0.2756,-0.2976,-0.3006,-0.3268,-0.372,-0.4101,-0.4243,-0.4172,-0.4262,-0.4152,-0.3911,-0.4099,-0.4386,-0.4736,0.0,0.0,0.0,0.0,0.0,0.0,0.0,0.0,0.0,0.0,0.0,0.0,0.0,0.0,0.0,-0.8434,-0.9161,-0.9943,-1.0692,-1.187,-1.3132,-1.396,-1.4319,-1.4951,-1.6897,-1.5634,-1.4441,-1.5847,-1.4999,-1.4322,-1.536,-1.6592,-1.8795,-2.2857,-2.3269,-2.4086,-2.7007,-2.6947,0.0,0.0,0.0,0.0,0.0,0.0,0.0,0.0,0.0,0.0,0.0,0.0,-3.4951,-3.3756,-3.3295,-3.2816,-3.2218,-3.2803,-3.2803,-3.2196,-3.3338,-3.3284,-3.2273,-3.4027,-3.4463,-3.3948,-3.468,-3.5249,-3.5683,-3.5181,-3.5263,-3.571,-3.571,-3.571,-3.571,-3.571,-3.571,-3.571,0.0,0.0,0.0,0.0,0.0,0.0,0.0,0.0,0.0,0.0,0.0,0.0,0.0,0.0,0.0,0.0,0.0,0.0,0.0,-0.2308,-0.2475,-0.2688,-0.2703,-0.2697,-0.2697,-0.2577,-0.2647,-0.2907,-0.2853,-0.3248,-0.4058,-0.3977,-0.4101,-0.4375,-0.4323,-0.4156,-0.3952,-0.4696,-0.4932,-0.4835,-0.5338,0.0,0.0,0.0,0.0,0.0,0.0,0.0,0.0,0.0,0.0,0.0,0.0,0.0,-0.7304,-0.81,-0.8291,-0.869,-1.0644,-1.1619,-1.2496,-1.4231,-1.4475,-1.4872,-1.6991,-1.5906,-1.5349,-1.8533,-1.8022,-1.7081,-1.7447,-1.7587,-1.8906,-2.2622,-2.3616,-2.5362,-2.9531,0.0,0.0,0.0,0.0,0.0,0.0,0.0,0.0,0.0,0.0,0.0,0.0,0.0,0.0,-3.3183,-3.3129,-3.2816,-3.2218,-3.2803,-3.2803,-3.2196,-3.3338,-3.3284,-3.2273,-3.4027,-3.4463,-3.3962,-3.5114,-3.5683,-3.571,-3.5669,-3.5683,-3.571,-3.571,-3.571,-3.571,-3.571,-3.571,-3.571,0.0,0.0,0.0,0.0,0.0,0.0,0.0,0.0,0.0,0.0,0.0,0.0,0.0,0.0,0.0,0.0,0.0,0.0,0.0,-0.2452,-0.2574,-0.2698,-0.2745,-0.2745,-0.2697,-0.2648,-0.2756,-0.3019,-0.3211,-0.3573,-0.4101,-0.4173,-0.4282,-0.4387,-0.4164,-0.4063,-0.4099,-0.419,-0.4452,-0.4814,-0.503,-0.5313,0.0,0.0,0.0,0.0,0.0,0.0,0.0,0.0,-0.6934,-0.6907,-0.6803,-0.6975,-0.7339,-0.7891,-0.8596,-0.9488,-1.0733,-1.1767,-1.2911,-1.4641,-1.4803,-1.5257,-1.8049,-1.7733,-1.7437,-1.9465,-1.8838,-1.8058,-1.8542,-2.0366,-2.2366,-2.4173,-2.5781,-2.7695,0.0,0.0,0.0,0.0,0.0,0.0,0.0,0.0,0.0,0.0,0.0,0.0,0.0,0.0,0.0,-3.3115,-3.2748,-3.2436,-3.2218,-3.3132,-3.3322,-3.2775,-3.3932,-3.3688,-3.2286,-3.4394,-3.4816,-3.3975,-3.5168,-3.571,-3.571,-3.571,-3.571,-3.571,-3.571,-3.571,-3.571,-3.571,-3.571,-3.571,0.0,0.0,0.0,0.0,0.0,0.0,0.0,0.0,0.0,0.0,0.0,0.0,0.0,0.0,0.0,0.0,0.0,0.0,-0.2413,-0.2556,-0.2649,-0.2703,-0.2783,-0.2837,-0.2861,-0.2837,-0.2939,-0.3164,-0.3601,-0.3949,-0.4202,-0.4422,-0.451,-0.4495,-0.4418,-0.4372,-0.4361,-0.4292,-0.4534,-0.4956,-0.4978,-0.5215,0.0,0.0,0.0,0.0,0.0,0.0,0.0,0.0,-0.6628,-0.6717,-0.6791,-0.714,-0.7648,-0.8336,-0.9318,-1.0345,-1.1105,-1.2214,-1.3473,-1.49,-1.4985,-1.5623,-1.9038,-1.8789,-1.8427,-2.0439,-2.0459,-2.0311,-2.0974,-2.2653,-2.4299,0.0,-2.6958,0.0,0.0,0.0,0.0,0.0,0.0,0.0,0.0,0.0,0.0,0.0,0.0,0.0,0.0,0.0,0.0,0.0,-3.2436,-3.2218,-3.2218,-3.3311,-3.3647,-3.3115,-3.4448,-3.4272,-3.2806,-3.4801,-3.5141,-3.4246,-3.5249,-3.571,-3.571,-3.571,-3.571,-3.571,-3.571,-3.5642,-3.5521,-3.5642,-3.5507,-3.5345,0.0,0.0,0.0,0.0,0.0,0.0,0.0,0.0,0.0,0.0,0.0,0.0,0.0,0.0,0.0,0.0,0.0,0.0,-0.2499,-0.2625,-0.2697,-0.2697,-0.2826,-0.2995,-0.32,-0.314,-0.3175,-0.3307,-0.3964,-0.4336,-0.4397,-0.4659,-0.4756,-0.4715,-0.5184,-0.5139,-0.4728,-0.5278,-0.5423,-0.5309,-0.5373,-0.5834,-0.6487,0.0,0.0,0.0,0.0,0.0,0.0,0.0,-0.6481,-0.6795,-0.7335,-0.7742,-0.8255,-0.9515,-1.0313,-1.0974,-1.1781,-1.2926,-1.4101,-1.4907,-1.4952,-1.5858,-1.9753,-1.8733,-1.7984,-2.1748,-2.3296,-2.4234,-2.5048,-2.4127,-2.3874,-2.5796,0.0,0.0,0.0,0.0,0.0,0.0,0.0,0.0,0.0,0.0,0.0,0.0,0.0,0.0,0.0,0.0,0.0,0.0,-3.2218,-3.2218,-3.2218,-3.3311,-3.3609,-3.3129,-3.4869,-3.5059,-3.3948,-3.5141,-3.5358,-3.4816,-3.5425,-3.571,-3.571,-3.571,-3.571,-3.571,-3.571,-3.544,-3.5154,-3.5562,-3.5141,-3.4522,0.0,0.0,0.0,0.0,0.0,0.0,0.0,0.0,0.0,0.0,0.0,0.0,0.0,0.0,0.0,0.0,0.0,0.0,-0.2631,-0.2682,-0.2697,-0.2697,-0.3009,-0.3168,-0.3123,-0.334,-0.345,-0.3446,-0.3826,-0.4031,-0.4049,-0.4186,-0.4302,-0.4439,-0.4965,-0.5037,-0.4816,-0.5499,-0.5545,-0.5182,-0.5438,-0.5614,-0.5751,0.0,0.0,0.0,0.0,0.0,0.0,0.0,0.0,0.0,-0.7391,-0.8156,-0.8923,-0.8978,-1.0115,-1.1464,-1.1953,-1.2995,-1.414,-1.4844,-1.5729,-1.6568,-1.7196,-1.8011,-1.9557,-2.276,-2.3399,-2.3512,-2.3931,-2.5317,0.0,-2.6126,0.0,0.0,0.0,0.0,0.0,0.0,0.0,0.0,0.0,0.0,0.0,0.0,0.0,0.0,0.0,0.0,0.0,0.0,-3.2218,-3.2218,-3.2218,-3.3311,-3.3826,-3.3664,-3.5072,-3.5059,-3.3948,-3.5141,-3.5358,-3.4816,-3.5425,-3.571,-3.571,-3.571,-3.571,-3.571,-3.571,-3.544,-3.5127,-3.5236,-3.4908,-3.4439,0.0,0.0,0.0,0.0,0.0,0.0,0.0,0.0,0.0,0.0,-0.2071,-0.2109,0.0,0.0,0.0,0.0,0.0,0.0,0.0,-0.2697,-0.2729,-0.2816,-0.3126,-0.3328,-0.3383,-0.3493,-0.3587,-0.3657,-0.393,-0.4016,-0.3949,-0.4285,-0.4383,-0.4336,-0.5089,-0.522,-0.493,-0.5641,-0.5724,-0.5391,-0.5535,-0.5614,-0.5653,0.0,0.0,0.0,0.0,0.0,0.0,0.0,0.0,0.0,-0.7956,-0.855,-0.913,-0.9491,-1.0559,-1.1891,-1.3095,-1.4246,-1.5503,-1.7107,-1.7432,-1.747,-1.7838,-1.9123,-2.1159,-2.4478,-2.5042,-2.5061,-2.5529,-2.6974,0.0,0.0,0.0,0.0,0.0,0.0,0.0,0.0,0.0,0.0,0.0,0.0,0.0,0.0,0.0,0.0,0.0,0.0,0.0,0.0,-3.2218,-3.2218,-3.2218,-3.3118,-3.3677,-3.3921,-3.487,-3.5073,-3.4639,-3.5358,-3.552,-3.5168,-3.556,-3.571,-3.571,-3.571,-3.571,-3.5669,-3.5521,-3.5195,-3.4825,-3.4825,-3.4397,-3.3937,0.0,0.0,0.0,0.0,0.0,0.0,0.0,0.0,0.0,0.0,-0.2224,-0.225,0.0,0.0,0.0,0.0,0.0,0.0,0.0,-0.2697,-0.2794,-0.2987,-0.3222,-0.3503,-0.3821,-0.3615,-0.3629,-0.39,-0.4116,-0.4138,-0.4006,-0.4683,-0.4755,-0.4366,-0.5432,-0.5573,-0.5062,-0.5772,-0.594,-0.5758,-0.57,-0.5828,-0.6032,-0.5969,0.0,0.0,0.0,0.0,0.0,0.0,0.0,0.0,-0.8815,-0.8927,-0.9138,-1.0599,-1.1486,-1.2476,-1.4751,-1.6089,-1.7471,-2.0232,-1.9386,-1.8509,-2.0864,-2.1649,-2.2866,-2.6467,-2.7422,-2.7853,-2.8657,-2.8812,-2.8812,0.0,0.0,0.0,0.0,0.0,0.0,0.0,0.0,0.0,0.0,0.0,0.0,0.0,0.0,0.0,0.0,0.0,0.0,0.0,-3.2218,-3.2218,-3.2218,-3.2803,-3.3363,0.0,-3.4504,-3.51,-3.571,-3.571,-3.571,-3.571,-3.571,-3.571,-3.571,-3.571,-3.5669,-3.5602,-3.5236,-3.4784,-3.4356,-3.4356,-3.3823,-3.3197,0.0,0.0,0.0,0.0,0.0,0.0,0.0,0.0,0.0,0.0,0.0,0.0,0.0,0.0,0.0,0.0,0.0,0.0,0.0,-0.2697,-0.2794,-0.2987,-0.344,-0.3804,-0.4035,-0.3685,-0.3629,-0.39,-0.3698,-0.3705,-0.3929,-0.4084,-0.4261,-0.4497,-0.5466,-0.5596,-0.5139,-0.6131,-0.6142,-0.5532,-0.6083,-0.6344,-0.6428,-0.6826,-0.7058,0.0,0.0,0.0,0.0,0.0,0.0,0.0,-0.8993,-0.9483,-1.0032,-1.0422,-1.2198,-1.4224,-1.4951,-1.6082,-1.7174,-1.7706,-1.8247,-1.9719,-2.3696,-2.4537,-2.5002,-2.6832,-2.7006,-2.7203,-2.8411,-2.8844,0.0,0.0,0.0,0.0,0.0,0.0,0.0,0.0,0.0,0.0,0.0,0.0,0.0,0.0,0.0,0.0,0.0,0.0,0.0,-3.2218,-3.2218,-3.2218,-3.2218,-3.2803,-3.3363,0.0,-3.4504,-3.51,-3.571,-3.571,-3.571,-3.571,-3.571,-3.571,-3.571,-3.571,-3.5521,-3.5236,-3.5127,-3.4564,-3.3839,-3.3839,-3.3526,-3.3124,0.0,0.0,0.0,0.0,0.0,0.0,0.0,0.0,0.0,0.0,0.0,0.0,0.0,0.0,0.0,0.0,0.0,0.0,0.0,0.0,-0.2977,-0.3366,-0.3744,-0.398,-0.4045,-0.3694,-0.3631,-0.39,-0.3567,-0.3574,-0.3911,-0.4099,-0.4273,-0.4431,-0.5183,-0.5312,-0.5028,-0.6032,-0.6193,-0.5847,-0.6511,-0.6826,-0.6903,-0.7122,-0.741,-0.7694,-0.7755,0.0,0.0,0.0,0.0,0.0,0.0,0.0,-0.985,-1.0462,-1.1893,-1.3541,-1.4798,-1.6579,-1.8288,-1.9324,-2.0899,-2.2698,-2.4593,-2.5876,-2.6849,-2.748,-2.7467,-2.7612,-2.8525,-2.8849,0.0,0.0,0.0,0.0,0.0,0.0,0.0,0.0,0.0,0.0,0.0,0.0,0.0,0.0,0.0,0.0,0.0,-3.2241,-3.2218,-3.2218,-3.19,-3.1653,-3.1579,-3.1397,-3.1525,-3.2019,-3.2975,-3.39,-3.4714,-3.5373,-3.5346,-3.4714,-3.5426,-3.5602,-3.5399,-3.5399,-3.5154,-3.4743,-3.4522,-3.4147,-3.367,-3.3471,-3.3283,-3.3124,0.0,0.0,0.0,0.0,0.0,0.0,0.0,0.0,0.0,0.0,0.0,0.0,0.0,0.0,0.0,0.0,0.0,0.0,0.0,0.0,0.0,-0.3769,-0.4033,-0.4117,-0.4011,-0.3718,-0.3682,-0.39,-0.3595,-0.3702,-0.4186,-0.4538,-0.468,-0.465,-0.5194,-0.5321,-0.5186,-0.5948,-0.6307,-0.6403,-0.6983,-0.7306,-0.7423,-0.7441,-0.78,-0.8284,-0.84,-0.8805,-0.9272,-0.9339,0.0,0.0,0.0,0.0,-0.9522,-1.0667,-1.1468,-1.2468,-1.4557,-1.7016,-1.9505,-2.1812,-2.3719,-2.4951,-2.4685,-2.6171,-2.7687,-2.7947,-2.8112,-2.8308,-2.8624,0.0,0.0,0.0,0.0,0.0,0.0,0.0,0.0,0.0,0.0,0.0,0.0,0.0,0.0,0.0,0.0,0.0,-3.22,-3.1923,-3.174,-3.1653,-3.1108,-3.0694,-3.0442,-2.9551,-2.9369,-2.9791,-3.1165,-3.2181,-3.2939,-3.4348,-3.4484,-3.3684,-3.5036,-3.5399,-3.5086,-3.499,-3.4688,-3.423,-3.3839,-3.367,-3.3556,-3.324,-3.3124,-3.3124,0.0,0.0,0.0,0.0,0.0,0.0,0.0,0.0,0.0,0.0,-0.2929,-0.2929,0.0,0.0,0.0,0.0,0.0,0.0,0.0,0.0,0.0,-0.378,-0.4212,-0.433,-0.4086,-0.3928,-0.3866,-0.39,-0.3744,-0.4213,-0.5284,-0.5461,-0.5688,-0.5967,-0.6505,-0.6639,-0.6458,-0.6589,-0.6774,-0.7017,-0.7501,-0.7795,-0.7976,-0.8595,-0.888,-0.9016,-0.9311,-0.9478,-0.9551,-0.9564,-0.9724,0.0,0.0,0.0,-1.0302,-1.1097,-1.224,-1.3483,-1.4568,-1.6586,-1.8985,-2.1382,-2.1911,-2.2472,-2.5026,-2.5647,-2.6043,-2.7321,-2.8099,-2.8457,0.0,0.0,0.0,0.0,0.0,0.0,0.0,0.0,0.0,0.0,0.0,0.0,0.0,0.0,0.0,0.0,0.0,0.0,-3.1331,-3.0507,-2.9833,-2.9435,-2.9358,-2.9112,-2.8657,-2.85,-2.8726,-2.9298,-3.0415,-3.0596,-3.0012,-3.143,-3.2619,-3.3657,-3.4724,-3.5154,-3.5086,-3.466,-3.423,-3.381,-3.3713,-3.3471,-3.3154,-3.3124,-3.3124,-3.3124,0.0,0.0,0.0,0.0,0.0,0.0,0.0,0.0,0.0,0.0,0.0,-0.2702,0.0,0.0,0.0,0.0,0.0,0.0,0.0,0.0,0.0,-0.4397,-0.4502,-0.4461,-0.4274,-0.406,-0.3991,-0.4066,-0.4008,-0.481,-0.6414,-0.6991,-0.7007,-0.6567,-0.7176,-0.7178,-0.6728,-0.7306,-0.7515,-0.7535,-0.8049,-0.8285,-0.836,-0.8689,-0.896,-0.9176,-0.9324,-0.9566,-0.9815,-0.9815,-0.997,-1.0161,-1.0123,0.0,0.0,0.0,-1.1517,-1.2972,-1.5957,-1.6975,-1.8144,-2.2141,-2.2153,-2.1923,-2.4711,-2.5327,-2.5629,-2.6817,-2.7532,0.0,0.0,0.0,0.0,0.0,0.0,0.0,0.0,0.0,0.0,0.0,0.0,0.0,0.0,0.0,0.0,0.0,0.0,-2.9667,-2.9719,-2.9229,-2.88,-2.863,-2.8287,-2.7928,-2.7648,-2.7012,-2.7181,-2.8149,-2.8241,-2.8549,-2.9051,-3.0188,-3.0905,-3.1357,-3.3113,-3.3726,-3.356,-3.3882,-3.3768,-3.3356,-3.3356,-3.3283,-3.3124,-3.3124,-3.3124,-3.3124,0.0,0.0,0.0,0.0,0.0,0.0,0.0,0.0,0.0,0.0,0.0,0.0,0.0,0.0,0.0,0.0,0.0,0.0,0.0,0.0,0.0,-0.4918,-0.4802,-0.4625,-0.4401,-0.4252,-0.419,-0.4197,-0.4299,-0.5265,-0.7054,-0.7993,-0.8118,-0.7533,-0.8129,-0.8048,-0.7521,-0.7977,-0.8208,-0.8276,-0.8506,-0.8613,-0.8656,-0.8931,-0.9228,-0.9515,-0.9651,-0.9973,-1.0276,-1.0123,-1.0173,-1.0299,-1.0299,-1.0299,0.0,0.0,0.0,-1.2054,-1.6076,-1.6469,-1.6892,-2.1654,-2.1609,-2.1059,-2.3646,-2.4218,-2.4613,0.0,-2.6707,0.0,0.0,0.0,0.0,0.0,0.0,0.0,0.0,0.0,0.0,0.0,0.0,0.0,0.0,0.0,0.0,0.0,0.0,-2.839,-2.8357,-2.7985,-2.7676,-2.7515,-2.7064,-2.6707,-2.6419,-2.5631,-2.5753,-2.6775,-2.6331,-2.6885,-2.8272,-2.9037,-2.9251,-2.9172,-3.1479,-3.2464,-3.2519,-3.2747,-3.2673,-3.2438,-3.2394,-3.2525,-3.2711,-3.2711,-3.2896,-3.3124,0.0,0.0,0.0,0.0,0.0,0.0,0.0,0.0,0.0,0.0,0.0,0.0,-0.4457,-0.4505,-0.4505,-0.4505,-0.446,-0.4512,-0.4676,-0.4755,-0.4846,-0.498,-0.505,0.0,-0.4409,-0.4579,-0.4507,-0.4197,-0.4583,-0.5468,-0.6839,-0.7848,-0.8723,-0.9469,-0.9837,-0.9852,-0.9582,-0.8541,-0.8637,-0.9448,-0.885,-0.8628,-0.8814,-0.9831,-1.0264,-1.0393,-1.0904,-1.1108,0.0,0.0,-1.0287,-1.0299,-1.0299,-1.0299,-1.0299,0.0,0.0,0.0,-1.3392,-1.4169,-1.5115,-1.8508,-1.8757,-1.8867,-2.1557,-2.1668,-2.1998,-2.4807,0.0,0.0,0.0,0.0,0.0,0.0,0.0,0.0,0.0,0.0,0.0,0.0,0.0,0.0,0.0,0.0,0.0,0.0,0.0,-2.7597,-2.7756,-2.6842,-2.6019,-2.5401,-2.5316,-2.5115,-2.4658,-2.4583,-2.4811,-2.5311,-2.5551,-2.6146,-2.7091,-2.7354,-2.7681,-2.8179,-3.0371,-3.1948,-3.2809,-3.1101,-3.0486,-3.0633,-3.0441,-3.089,-3.1669,-3.1669,-3.2264,-3.3124,0.0,0.0,0.0,0.0,0.0,0.0,0.0,0.0,0.0,0.0,0.0,0.0,0.0,-0.4606,-0.4606,-0.4606,-0.4815,-0.5076,-0.5385,-0.5429,-0.5384,-0.5261,-0.5117,-0.4919,-0.4657,-0.4516,-0.4509,-0.4645,-0.5058,-0.589,-0.7143,-0.8148,-0.8956,-0.9565,-1.0347,-1.026,-0.9539,-0.9375,-0.9308,-0.9343,-1.0095,-0.9922,-0.9345,-1.0543,-1.1121,-1.1272,-1.1024,0.0,0.0,0.0,0.0,-1.0299,-1.0299,-1.0573,-1.0952,-1.129,-1.1519,-1.2134,-1.4297,-1.4436,-1.4692,-1.7849,-1.7875,-1.7686,-1.9894,-2.0699,-2.1457,-2.2977,0.0,0.0,0.0,0.0,0.0,0.0,0.0,0.0,0.0,0.0,0.0,0.0,0.0,0.0,0.0,0.0,0.0,0.0,0.0,0.0,-2.59,-2.579,-2.5461,-2.4775,-2.4743,-2.4668,-2.4497,-2.4658,-2.4827,-2.5037,-2.5731,-2.6148,-2.6345,-2.7309,-2.8084,-2.8721,-2.918,-2.9909,-3.0711,-3.0486,-3.0441,-3.0486,-3.0396,-3.0991,-3.1889,-3.2008,-3.2673,-3.3471,0.0,0.0,0.0,0.0,0.0,0.0,0.0,0.0,0.0,-0.4866,0.0,0.0,0.0,0.0,-0.5164,-0.5164,-0.5253,-0.5436,-0.5748,-0.5636,-0.5479,-0.5276,-0.5018,-0.4906,-0.4997,-0.4632,-0.4716,-0.5303,-0.5507,-0.6195,-0.7353,-0.8283,-0.8991,-0.9538,-1.0348,-1.0422,-0.9971,-1.0066,-0.9969,-0.9833,-1.0624,-1.049,-0.9922,-1.1086,-1.1732,0.0,0.0,0.0,0.0,0.0,0.0,-1.1175,-1.134,-1.1434,-1.154,-1.1903,-1.2095,-1.2512,-1.3952,-1.3829,-1.3843,-1.6155,-1.6305,-1.634,-1.8065,-1.9295,-2.0398,-2.1562,0.0,0.0,0.0,0.0,0.0,0.0,0.0,0.0,0.0,0.0,0.0,0.0,0.0,0.0,0.0,0.0,0.0,0.0,0.0,0.0,-2.4766,-2.4997,-2.4958,-2.4519,-2.4497,-2.4497,-2.4497,-2.4658,-2.4828,-2.4903,-2.5616,-2.598,-2.6075,-2.7051,-2.7988,-2.869,-2.842,-2.8835,-2.9738,-2.9681,-2.9726,-2.9783,-2.9681,-3.0272,-3.1226,-3.1645,-3.2432,-3.3275,0.0,0.0,0.0,0.0,0.0,0.0,0.0,0.0,-0.5526,-0.5784,0.0,0.0,0.0,0.0,0.0,-0.6284,-0.5812,-0.5569,-0.5692,-0.5337,-0.5096,-0.5009,-0.4777,-0.4882,-0.5401,-0.4965,-0.5198,-0.612,-0.5924,-0.6381,-0.7425,-0.815,-0.8837,-0.9499,-0.9901,-1.0445,-1.0998,-1.0482,-1.0564,-1.096,-1.036,-1.0248,-1.0534,-1.1551,-1.2191,0.0,-1.4192,-1.4631,0.0,-1.5052,0.0,0.0,-1.3417,-1.2856,-1.2033,-1.2059,-1.2045,-1.2045,0.0,0.0,0.0,-1.3224,-1.396,-1.4842,-1.6069,-1.7273,-1.8669,-2.0525,0.0,0.0,0.0,0.0,0.0,0.0,0.0,0.0,0.0,0.0,0.0,0.0,0.0,0.0,0.0,0.0,0.0,0.0,0.0,-2.4491,-2.4487,-2.4489,-2.4493,-2.4466,-2.4487,-2.4497,-2.4497,-2.454,-2.4658,-2.4903,-2.5115,-2.5616,-2.6303,-2.6487,-2.7086,-2.7958,-2.798,-2.8823,-3.0011,-2.862,-2.8149,-2.8395,-2.8092,-2.8642,-2.9612,-3.0543,-3.1468,-3.2389,0.0,0.0,0.0,0.0,0.0,-0.6238,-0.6195,-0.6157,-0.6131,0.0,0.0,0.0,-0.6083,-0.6091,-0.606,-0.6005,-0.5876,-0.5793,-0.5778,-0.5673,-0.5509,-0.5306,-0.5451,-0.5588,-0.5689,-0.5748,-0.605,-0.6597,-0.6693,-0.7013,-0.7546,-0.8049,-0.8445,-0.8736,-0.9424,-0.9744,-0.9734,-0.9717,-0.9466,-0.9294,-1.1708,-1.2021,-1.1328,0.0,0.0,0.0,0.0,-1.4998,-1.5065,0.0,-1.4,-1.2721,0.0,-1.2887,-1.2742,-1.3173,-1.3304,-1.3304,-1.3304,0.0,0.0,0.0,0.0,0.0,-1.5105,-1.6114,-1.7348,-1.8411,0.0,0.0,0.0,0.0,0.0,0.0,0.0,0.0,0.0,0.0,0.0,0.0,0.0,0.0,0.0,0.0,0.0,0.0,-2.4146,-2.4355,-2.4207,-2.4267,-2.4221,-2.4053,-2.4534,-2.4786,-2.4786,-2.5137,-2.5348,-2.5433,-2.5591,-2.5793,-2.6029,-2.642,-2.6726,-2.702,-2.7696,-2.8249,-2.8608,-2.8383,-2.8337,-2.8395,-2.8301,-2.8874,-2.9772,-3.0215,-3.1012,-3.194,0.0,0.0,0.0,-0.6257,-0.6455,-0.659,-0.6475,-0.6452,-0.6399,0.0,0.0,0.0,-0.6013,-0.5982,-0.5959,-0.5943,-0.5755,-0.5703,-0.5822,-0.5685,-0.5588,-0.5605,-0.579,-0.6004,-0.6213,-0.621,-0.6549,-0.7266,-0.7213,-0.745,-0.7986,-0.8192,-0.8365,-0.853,-0.8904,-0.8904,-0.8656,-0.8764,-0.8938,-0.9402,-1.1956,-1.2739,0.0,-1.5068,-1.5982,0.0,0.0,0.0,-1.6271,-1.6594,-1.5585,0.0,0.0,-1.3275,-1.3321,-1.3526,-1.3694,-1.3804,-1.3804,-1.3921,-1.3906,-1.3336,0.0,0.0,-1.4929,-1.5925,-1.7113,0.0,0.0,0.0,0.0,0.0,0.0,0.0,0.0,0.0,0.0,0.0,0.0,0.0,0.0,0.0,0.0,0.0,0.0,-2.3405,-2.3653,-2.3757,-2.3684,-2.3745,-2.3846,-2.4033,-2.4409,-2.4756,-2.5031,-2.5295,-2.5475,-2.5601,-2.5728,-2.5812,-2.5906,-2.6201,-2.6388,-2.6628,-2.7369,-2.7805,-2.8034,-2.8422,-2.8571,-2.8571,-2.8571,-2.8885,-2.9463,-2.9988,-3.0564,-3.1223,0.0,0.0,-0.6742,-0.6649,-0.6703,-0.6697,-0.6452,-0.6444,-0.6422,0.0,-0.6238,-0.6168,-0.6013,-0.5943,-0.5928,-0.6029,-0.565,-0.5571,-0.5961,-0.5653,-0.5616,-0.5975,-0.6022,-0.6288,-0.6831,-0.6533,-0.6878,-0.7941,-0.7558,-0.7759,-0.8527,-0.8435,-0.8523,-0.8734,-0.8441,-0.8169,-0.7946,-0.7952,-0.8884,-1.0443,-1.1634,-1.2851,0.0,0.0,-1.6376,-1.6843,-1.8031,-1.8159,-1.7882,-1.8698,-1.7892,0.0,0.0,0.0,0.0,0.0,-1.3664,-1.3975,-1.3909,-1.3896,-1.3798,-1.3446,-1.368,0.0,-1.5052,-1.6079,-1.7147,-1.8267,0.0,0.0,0.0,0.0,0.0,0.0,0.0,0.0,0.0,0.0,0.0,0.0,0.0,0.0,0.0,-2.3001,-2.3001,-2.2964,-2.2964,-2.2961,-2.3047,-2.3131,-2.344,-2.4115,-2.422,-2.4535,-2.5242,-2.5285,-2.538,-2.5644,-2.5644,-2.5738,-2.5895,-2.5895,-2.6136,-2.653,-2.7086,-2.7555,-2.7958,-2.8585,-2.8803,-2.8803,-2.8803,-2.8803,-2.8885,-2.9726,-3.0034,-3.0294,0.0,-0.6619,-0.6665,-0.6742,-0.6688,-0.6604,-0.6506,-0.6399,-0.6383,-0.6513,-0.6475,-0.6315,-0.5959,-0.5904,-0.599,-0.6214,-0.6159,-0.6225,-0.6529,-0.6462,-0.6463,-0.6536,-0.68,-0.6995,-0.7121,-0.731,-0.7677,-0.8223,-0.7932,-0.8077,-0.8659,-0.8481,-0.8617,-0.9003,-0.8517,-0.8275,-0.8254,-0.8734,-0.9308,-1.0086,-1.1976,-1.3464,-1.4842,-1.7595,-1.8522,-1.8552,-1.9668,-1.9737,-1.9222,-1.8406,-1.7891,-1.7288,0.0,0.0,0.0,-1.4075,0.0,0.0,0.0,0.0,0.0,0.0,0.0,0.0,-1.4229,-1.4462,-1.4895,0.0,-1.6191,0.0,0.0,0.0,0.0,0.0,0.0,0.0,0.0,0.0,0.0,0.0,0.0,0.0,0.0,-2.2889,-2.2927,-2.2777,-2.2628,-2.2596,-2.2767,-2.2843,-2.32,-2.3864,-2.4225,-2.4774,-2.5506,-2.5686,-2.5812,-2.5853,-2.5853,-2.5864,-2.5895,-2.5895,-2.595,-2.6092,-2.6944,-2.737,-2.7523,-2.8442,-2.8803,-2.8803,-2.8803,-2.8803,-2.8803,-2.9024,-2.9071,-2.9325,-0.6802,-0.6822,-0.6816,-0.6718,-0.6649,-0.6626,-0.674,-0.6627,-0.6627,-0.6829,-0.677,-0.6536,-0.6145,-0.6222,-0.6299,-0.6299,-0.6421,-0.6626,-0.6933,-0.6948,-0.7023,-0.7196,-0.7353,-0.7486,-0.754,-0.772,-0.798,-0.8351,-0.8213,-0.8224,-0.8359,-0.8659,-0.8786,-0.8757,-0.9066,-0.9009,-0.8733,-0.9195,-0.9967,-1.1025,-1.3043,0.0,-1.6157,-1.8784,-1.9849,-2.0017,-2.0573,-2.0366,-1.9776,-1.9233,-1.8268,0.0,0.0,-1.5741,-1.5172,0.0,-1.4256,-1.4943,0.0,0.0,0.0,-1.421,0.0,0.0,0.0,-1.4371,-1.4549,-1.5624,-1.5954,-1.6132,0.0,0.0,0.0,0.0,0.0,0.0,0.0,0.0,0.0,0.0,0.0,0.0,0.0,-2.2563,-2.2703,-2.2703,-2.2515,-2.2478,-2.2703,-2.2626,-2.29,-2.3574,-2.4073,-2.4708,-2.5411,-2.5734,-2.5895,-2.5895,-2.5895,-2.5895,-2.5895,-2.5895,-2.5895,-2.595,-2.69,-2.7315,-2.7392,-2.8399,-2.8803,-2.8803,-2.8803,-2.8803,-2.8803,-2.8803,-2.8803,-2.9024,-0.7181,-0.716,-0.7116,-0.6867,-0.6792,-0.6852,-0.7077,-0.696,-0.6885,-0.7038,-0.7041,-0.6983,-0.6909,-0.681,-0.6797,-0.6966,-0.7175,-0.7298,-0.7298,-0.7611,-0.7772,-0.7734,-0.7646,-0.7713,-0.7956,-0.7875,-0.8017,-0.8396,-0.8467,-0.8339,-0.8082,-0.8789,-0.8983,-0.8751,-0.9554,-0.978,-0.9578,-0.993,-1.0992,-1.2591,0.0,-1.5947,-1.7107,-1.9393,-2.0511,-2.0893,-2.1268,-2.0967,-2.037,-2.0312,-1.8985,-1.7262,-1.6944,-1.6149,0.0,0.0,0.0,0.0,0.0,0.0,0.0,0.0,0.0,-1.3172,0.0,0.0,0.0,-1.5439,-1.5928,0.0,0.0,0.0,0.0,0.0,0.0,0.0,0.0,0.0,0.0,0.0,0.0,0.0,0.0,-2.1721,-2.1987,-2.2708,-2.2195,-2.2115,-2.2718,-2.2515,-2.2729,-2.3442,-2.3956,-2.4512,-2.5204,-2.5655,-2.5895,-2.5895,-2.5895,-2.5895,-2.5895,-2.5895,-2.5895,-2.595,-2.69,-2.7315,-2.7392,-2.8399,-2.8803,-2.8803,-2.8803,-2.8803,-2.8803,-2.8803,-2.8803,-2.8932,-0.7622,-0.7544,-0.7549,-0.7569,-0.7486,-0.7436,-0.7515,-0.7211,-0.6966,-0.6921,-0.7214,-0.7849,-0.8932,-0.7754,-0.7564,-0.9261,-0.9419,-0.8937,-0.7719,-0.9089,-0.9324,-0.7939,-0.7468,-0.7541,-0.8148,-0.7756,-0.7817,-0.8396,-0.8695,-0.8652,-0.8264,-0.8668,-0.9182,-0.9805,-0.9462,-0.9981,-1.1174,-1.1619,-1.2775,0.0,-1.6476,-1.6916,0.0,-1.9169,-2.022,-2.0599,-2.2215,-2.2504,-2.1966,0.0,-2.0127,-1.9208,0.0,-1.6731,-1.6996,-1.5169,0.0,0.0,0.0,0.0,0.0,0.0,-1.3346,0.0,0.0,0.0,-1.3116,-1.3262,0.0,0.0,0.0,0.0,0.0,0.0,0.0,0.0,0.0,0.0,0.0,0.0,0.0,0.0,0.0,0.0,-2.0238,-2.2763,-2.1039,-2.0739,-2.2861,-2.2628,-2.2767,-2.3634,-2.3996,-2.4512,-2.5204,-2.5655,-2.5895,-2.5895,-2.5895,-2.5895,-2.5895,-2.5895,-2.5895,-2.595,-2.69,-2.7315,-2.7392,-2.8399,-2.8803,-2.8803,-2.8803,-2.8803,-2.8803,-2.8803,-2.8803,-2.8932,-0.784,-0.7782,-0.7739,-0.7652,-0.7569,-0.7569,-0.7739,-0.7637,-0.7476,-0.7377,-0.7519,-0.8129,-0.9481,-0.938,-0.9775,-1.12,0.0,-1.1388,0.0,0.0,-0.9718,-0.8419,-0.7654,-0.7332,-0.7503,-0.7618,-0.7762,-0.794,-0.8967,-0.9029,-0.8214,-0.9492,-0.9919,-0.9686,-1.056,-1.1406,-1.2292,-1.3411,-1.4145,0.0,0.0,0.0,0.0,-2.0172,-2.1583,-2.1941,-2.2583,-2.2728,-2.2475,0.0,-2.0333,0.0,0.0,0.0,0.0,0.0,0.0,0.0,0.0,0.0,0.0,0.0,0.0,0.0,-1.2373,0.0,-1.2479,0.0,0.0,0.0,0.0,0.0,0.0,0.0,-1.4011,0.0,0.0,0.0,0.0,0.0,0.0,0.0,0.0,0.0,0.0,0.0,0.0,-2.1282,-2.2484,-2.2659,-2.2912,-2.3258,-2.3983,-2.4523,-2.477,-2.5524,-2.5895,-2.5895,-2.5895,-2.5895,-2.5895,-2.5895,-2.5895,-2.595,-2.69,-2.7315,-2.7392,-2.8399,-2.8803,-2.8803,-2.8803,-2.8803,-2.8803,-2.8803,-2.8803,-2.885,-0.8042,-0.8013,-0.797,-0.784,-0.7749,-0.7744,-0.7884,-0.8154,-0.8365,-0.8434,-0.8251,-0.8809,-1.0616,-1.0454,0.0,-1.2706,-1.337,-1.3281,0.0,0.0,-1.1064,0.0,0.0,0.0,0.0,-0.8228,-0.8071,-0.811,-0.9289,-0.9367,-0.8452,-0.9955,-1.0326,-0.9824,-1.1295,-1.2395,-1.3222,0.0,-1.5585,-1.5995,-1.7763,-1.8537,-1.8903,-2.1286,-2.2584,-2.3172,-2.3011,-2.2965,-2.2864,-2.229,-2.0857,0.0,-1.9555,0.0,0.0,0.0,0.0,0.0,-1.5699,0.0,0.0,0.0,0.0,0.0,0.0,0.0,0.0,0.0,0.0,0.0,0.0,0.0,0.0,0.0,0.0,-1.3692,0.0,0.0,0.0,0.0,0.0,0.0,0.0,0.0,0.0,-2.0838,-2.0963,-2.1315,-2.2092,-2.2694,-2.3001,-2.3001,-2.3973,-2.4486,-2.4486,-2.5426,-2.5895,-2.5895,-2.5895,-2.5895,-2.5895,-2.5895,-2.5895,-2.595,-2.69,-2.7315,-2.7392,-2.8399,-2.8803,-2.8803,-2.8803,-2.8803,-2.8803,-2.8803,-2.8803,-2.8803,-0.8294,-0.829,-0.8308,-0.8354,-0.8262,-0.8105,-0.7927,-0.8783,-0.9652,-1.0243,0.0,0.0,0.0,0.0,0.0,0.0,0.0,-1.4048,-1.4019,0.0,-1.4215,0.0,0.0,-0.9926,0.0,0.0,-0.8931,-0.9442,-0.9685,-0.9617,-0.9272,-0.9591,-1.0074,-1.0674,-1.1137,-1.2317,-1.405,-1.5412,-1.724,-1.9308,-2.0227,-2.1607,-2.2994,0.0,-2.2616,-2.3593,-2.3559,0.0,0.0,-2.2522,-2.2134,0.0,0.0,0.0,0.0,0.0,0.0,0.0,0.0,0.0,0.0,-1.4236,0.0,0.0,0.0,0.0,-1.4189,0.0,0.0,0.0,0.0,0.0,0.0,0.0,0.0,0.0,0.0,0.0,0.0,0.0,0.0,0.0,0.0,0.0,0.0,-1.9976,-1.9598,-1.9998,-2.192,-2.2622,-2.3001,-2.3001,-2.3973,-2.4486,-2.4486,-2.5426,-2.5895,-2.5895,-2.5895,-2.5895,-2.5895,-2.5895,-2.5895,-2.595,-2.69,-2.7315,-2.7392,-2.8399,-2.8803,-2.8803,-2.8803,-2.8803,-2.8803,-2.8803,-2.8803,-2.8803,-0.833,-0.8557,-0.874,-0.845,-0.8322,-0.8294,-0.8359,-0.8624,0.0,0.0,-1.0964,0.0,0.0,-1.51,-1.5099,0.0,0.0,-1.7784,-1.5439,-1.5426,0.0,0.0,0.0,-1.0934,0.0,0.0,0.0,-0.9033,-0.9988,-1.0148,-0.9589,-1.043,-1.0759,-1.0675,-1.1522,-1.2833,0.0,0.0,0.0,0.0,0.0,-2.1263,-2.2711,0.0,0.0,-2.3942,-2.4417,-2.4366,0.0,-2.3584,-2.2696,-2.171,-2.1619,-2.0715,-1.9767,-1.9947,-1.9906,0.0,0.0,0.0,-1.8055,-1.6071,0.0,0.0,0.0,0.0,0.0,0.0,0.0,0.0,0.0,0.0,0.0,0.0,0.0,0.0,0.0,0.0,0.0,0.0,0.0,0.0,0.0,0.0,0.0,-1.9079,-1.9505,-2.0023,0.0,-2.179,-2.2346,-2.2346,-2.3749,-2.4486,-2.4486,-2.5426,-2.5895,-2.5895,-2.5895,-2.5895,-2.5895,-2.5895,-2.5895,-2.595,-2.69,-2.7315,-2.7392,-2.8399,-2.8803,-2.8803,-2.8803,-2.8803,-2.8803,-2.8803,-2.8803,-2.8803,-0.8885,-0.9164,-0.9299,-0.8689,-0.8708,0.0,0.0,0.0,0.0,0.0,-1.2773,0.0,-1.6815,0.0,-1.751,0.0,-1.9076,-1.9275,-1.8094,-1.676,0.0,-1.7811,-1.4617,0.0,0.0,0.0,0.0,0.0,-1.0957,-1.0802,-1.0599,-1.0925,-1.1015,-1.092,-1.1759,-1.3058,-1.4789,-1.7335,-1.8661,0.0,0.0,-2.1845,0.0,0.0,-2.3884,-2.4094,0.0,-2.482,-2.4527,-2.4551,-2.3813,-2.2953,-2.336,-2.243,-2.1249,-2.1384,-2.1149,-2.0627,-1.9506,-1.936,0.0,-1.7542,-1.7362,0.0,-1.5016,0.0,0.0,0.0,0.0,0.0,0.0,0.0,0.0,0.0,0.0,0.0,0.0,-1.3198,0.0,0.0,0.0,0.0,0.0,0.0,-1.7248,-1.8432,-1.943,-2.0036,0.0,0.0,-2.1998,-2.1998,-2.3622,-2.4486,-2.4486,-2.5426,-2.5895,-2.5895,-2.5895,-2.5895,-2.5895,-2.5895,-2.5895,-2.595,-2.69,-2.7315,-2.7392,-2.8399,-2.8803,-2.8803,-2.8803,-2.8803,-2.8803,-2.8803,-2.8803,-2.8803,-0.9921,-1.0032,-0.9966,0.0,-0.9412,0.0,0.0,0.0,-1.2371,0.0,-1.5098,-1.5255,-1.7803,-1.7125,-1.7355,-1.9682,-1.8275,-1.8566,-2.1533,-1.8009,0.0,0.0,-1.7957,-1.706,-1.9794,0.0,0.0,0.0,0.0,-1.157,-1.225,-1.1105,-1.0883,-1.1455,-1.1871,-1.303,-1.4862,-1.7363,-1.9099,-2.0323,-2.1824,-2.3273,-2.4565,-2.4112,0.0,-2.4133,-2.4832,-2.5066,-2.5083,-2.5339,-2.5417,-2.5356,-2.5356,-2.5131,-2.4732,-2.4137,-2.3665,-2.2859,-2.0953,-2.0128,-1.959,-1.8627,0.0,0.0,0.0,0.0,-1.6709,0.0,0.0,0.0,0.0,0.0,0.0,0.0,0.0,0.0,0.0,0.0,0.0,0.0,0.0,0.0,0.0,-1.5483,-1.6331,-1.8022,-1.9282,-1.9989,0.0,0.0,-2.1955,-2.1998,-2.3583,-2.4489,-2.4486,-2.5423,-2.5893,-2.5895,-2.5895,-2.5895,-2.5895,-2.5895,-2.5895,-2.595,-2.69,-2.7315,-2.7392,-2.8399,-2.8803,-2.8803,-2.8803,-2.8803,-2.8803,-2.8803,-2.8803,-2.8803,-0.9938,-1.0225,-1.0539,0.0,-1.0485,-1.0803,0.0,0.0,0.0,0.0,-1.7398,-1.8668,-1.9217,-2.0524,-2.0474,-1.8261,-1.9249,0.0,0.0,0.0,0.0,-2.315,-2.0813,-1.9823,-2.0588,-1.8186,0.0,-1.578,0.0,-1.2923,-1.3137,-1.2163,-1.1797,-1.2012,-1.2507,-1.346,-1.4862,-1.7363,-1.9726,-2.1858,-2.2337,-2.2834,0.0,0.0,-2.4514,-2.4777,-2.5828,-2.5853,-2.542,-2.5808,-2.5453,-2.4887,-2.4887,-2.4524,-2.4061,-2.3914,-2.3551,-2.3047,-2.2364,-2.1754,-2.1079,-2.0053,-1.952,-1.9016,0.0,0.0,0.0,0.0,0.0,0.0,0.0,0.0,0.0,0.0,0.0,0.0,0.0,0.0,0.0,-1.3181,0.0,0.0,0.0,-1.5554,-1.652,-1.7678,-1.8773,0.0,0.0,0.0,0.0,-2.1999,-2.3286,-2.4149,-2.4515,-2.5103,-2.554,-2.5895,-2.5895,-2.5895,-2.5895,-2.5895,-2.5895,-2.595,-2.69,-2.7315,-2.7392,-2.8399,-2.8803,-2.8803,-2.8803,-2.8803,-2.8803,-2.8803,-2.8803,-2.8803,-1.0902,-1.1099,0.0,-1.1228,0.0,0.0,-1.4384,-1.4579,0.0,-1.8123,-1.9349,0.0,-2.0333,-2.2413,-2.2798,-2.041,-2.0694,0.0,-2.0659,0.0,0.0,-2.3687,-2.2467,-2.1667,-2.1518,-2.0292,0.0,-1.7499,0.0,-1.4474,-1.4296,-1.2802,-1.2255,-1.252,-1.2819,-1.3592,-1.4857,-1.7856,-2.0638,-2.3072,-2.3144,0.0,0.0,-2.457,-2.4993,-2.5441,-2.6419,-2.6341,-2.5861,-2.6206,-2.5986,-2.5532,-2.537,-2.4986,-2.4489,-2.4196,-2.3816,-2.3386,-2.292,-2.2504,-2.202,-2.1281,-2.0738,-2.0122,-1.916,-1.8855,-1.8781,0.0,0.0,0.0,0.0,0.0,0.0,0.0,0.0,0.0,0.0,0.0,0.0,0.0,-1.3852,0.0,0.0,-1.5994,-1.689,-1.7545,0.0,0.0,0.0,0.0,0.0,-2.2006,-2.3179,-2.3942,-2.4183,-2.4903,-2.5362,-2.5588,-2.5839,-2.5937,-2.5895,-2.5895,-2.5895,-2.595,-2.69,-2.7315,-2.7392,-2.8399,-2.8803,-2.8803,-2.8803,-2.8803,-2.8803,-2.8803,-2.8803,-2.8803,-1.2284,-1.2322,0.0,0.0,0.0,0.0,0.0,-1.7222,0.0,-2.1461,0.0,-2.1178,-2.159,-2.3743,-2.4817,-2.4055,0.0,-2.2237,-2.3875,-2.1509,-2.1276,-2.4052,-2.3665,-2.3161,-2.269,-2.2471,-2.1476,0.0,-1.7374,-1.6011,-1.5414,-1.3312,-1.2565,-1.3019,-1.3019,-1.383,0.0,-1.8734,-2.16,-2.3909,-2.3965,-2.4686,-2.5697,-2.5221,-2.5419,-2.6021,-2.6685,-2.6614,-2.624,-2.6479,-2.652,-2.6396,-2.6104,-2.5736,-2.5262,-2.4676,-2.4225,-2.3766,-2.3145,-2.2777,-2.2531,-2.2335,-2.1804,-2.1043,-2.0024,-1.9373,-1.8947,-1.9106,-1.806,-1.7793,0.0,0.0,0.0,0.0,0.0,0.0,0.0,0.0,0.0,0.0,0.0,0.0,0.0,0.0,0.0,0.0,0.0,0.0,0.0,0.0,0.0,-2.23,-2.3271,0.0,-2.3896,0.0,-2.5271,-2.5223,-2.574,-2.5947,-2.5895,-2.5895,-2.5928,-2.6048,-2.6933,-2.7348,-2.7479,-2.8431,-2.8803,-2.8803,-2.8803,-2.8803,-2.8803,-2.8803,-2.8803,-2.8803,-1.2793,0.0,0.0,0.0,0.0,-1.7298,-2.1422,-2.2509,-2.2698,-2.2295,-2.5069,-2.6273,-2.4133,-2.6741,-2.7637,-2.517,-2.4647,0.0,0.0,0.0,0.0,-2.6009,-2.5653,-2.5154,-2.47,-2.4137,-2.2879,0.0,-1.8799,-1.7099,-1.5846,-1.4243,-1.3543,-1.3647,-1.3647,-1.5394,-1.8433,-2.018,0.0,-2.3931,-2.4317,-2.4616,-2.4918,-2.5679,-2.6049,-2.6199,-2.6727,-2.6614,-2.6199,-2.6249,-2.5988,-2.5622,-2.5242,-2.4904,-2.4628,-2.4543,-2.4449,-2.4302,-2.4004,-2.3527,-2.3034,-2.2834,-2.2257,-2.1738,-2.1541,-2.1091,-2.0731,-2.078,-2.0324,-1.9753,-1.9201,0.0,0.0,0.0,0.0,0.0,0.0,0.0,0.0,0.0,0.0,-1.5997,0.0,0.0,0.0,0.0,0.0,0.0,0.0,0.0,0.0,0.0,0.0,0.0,0.0,0.0,-2.527,-2.5196,-2.5743,-2.5947,-2.5895,-2.5895,-2.6125,-2.6486,-2.7075,-2.75,-2.7914,-2.8517,-2.8803,-2.8803,-2.8803,-2.8803,-2.8803,-2.8803,-2.8803,-2.8803,-1.4065,0.0,0.0,0.0,0.0,0.0,0.0,-2.5972,0.0,-2.549,-2.6889,-2.7577,-2.6189,-2.8315,-2.9124,-2.7213,-2.6632,-2.633,-2.6373,-2.591,-2.5893,-2.6562,-2.6832,0.0,-2.4459,-2.53,-2.4164,-2.0929,-2.0087,-1.8516,-1.6333,-1.46,-1.3961,-1.4271,-1.5337,-1.7254,0.0,0.0,0.0,-2.4314,-2.4993,-2.5276,-2.5354,-2.6129,-2.6313,-2.6282,-2.685,-2.685,-2.6561,-2.655,-2.6415,-2.6135,-2.5591,-2.5253,-2.4999,-2.4786,-2.4625,-2.4454,-2.4239,-2.3957,-2.3667,-2.3453,-2.2911,-2.2426,-2.2426,-2.1967,-2.1572,-2.1572,-2.1221,-2.0575,-1.9485,-1.821,0.0,0.0,0.0,0.0,0.0,0.0,0.0,0.0,0.0,0.0,0.0,0.0,0.0,0.0,0.0,0.0,0.0,0.0,0.0,0.0,0.0,0.0,0.0,0.0,0.0,-2.4824,-2.5363,-2.5732,-2.5895,-2.5895,-2.6168,-2.6617,-2.7119,-2.742,-2.767,-2.79,-2.8139,-2.8373,-2.8373,-2.856,-2.8803,-2.8803,-2.8803,-2.8803,0.0,-1.6122,0.0,0.0,-1.9474,0.0,-2.454,-2.8238,-3.0251,-2.877,-2.8756,-2.8767,-2.854,-2.9873,-3.0284,-2.9081,-2.8362,-2.7824,-2.7406,-2.7481,-2.7219,-2.6512,-2.7372,-2.6726,-2.4384,-2.6142,-2.527,0.0,-2.1261,-1.9761,0.0,-1.5172,-1.4715,0.0,0.0,0.0,0.0,0.0,-2.4434,-2.5486,-2.6138,-2.6415,-2.6498,-2.691,-2.6839,-2.6561,-2.7179,-2.7179,-2.6903,-2.6933,-2.6891,-2.6727,-2.6104,-2.5675,-2.5359,-2.5073,-2.4743,-2.4454,-2.4292,-2.4249,-2.4163,-2.3937,-2.346,-2.304,-2.304,-2.2493,-2.2021,-2.2021,-2.1602,-2.0869,-1.9844,-1.8846,0.0,0.0,0.0,0.0,0.0,0.0,0.0,0.0,0.0,0.0,-1.7456,0.0,0.0,0.0,0.0,0.0,0.0,0.0,0.0,0.0,0.0,-2.3389,-2.3231,0.0,-2.4338,0.0,-2.4897,-2.5396,-2.5763,-2.5763,-2.6066,-2.6594,-2.695,-2.72,-2.7266,-2.7228,-2.7468,-2.7846,-2.7951,-2.8279,-2.8653,-2.8757,-2.8803,-2.8803,0.0,0.0,0.0,0.0,0.0,0.0,0.0,-2.9094,-2.9706,-3.0367,-3.1955,-3.272,-3.1951,-3.2394,-3.1859,-2.9704,-2.977,-2.8534,-2.523,-2.6869,-2.7369,-2.6094,-2.6882,-2.7031,-2.6342,-2.6549,-2.5995,0.0,-2.2309,-2.0336,0.0,0.0,0.0,0.0,0.0,0.0,0.0,-2.6213,-2.7237,-2.8052,-2.8128,-2.8148,-2.8187,-2.8462,-2.8075,-2.7441,-2.7926,-2.7574,-2.6933,-2.7108,-2.688,-2.6445,-2.6021,-2.5591,-2.52,-2.52,-2.4871,-2.4497,-2.4454,-2.4335,-2.4206,-2.4163,-2.3777,-2.3444,-2.3444,-2.2935,-2.2451,-2.2451,-2.1765,-2.0868,-1.9725,-1.9461,-1.8909,0.0,0.0,0.0,0.0,0.0,0.0,-1.7566,0.0,0.0,0.0,-1.7666,0.0,0.0,0.0,0.0,0.0,0.0,0.0,-2.3063,0.0,-2.4272,-2.3634,-2.4767,0.0,-2.3872,-2.4481,-2.4955,-2.5259,-2.5259,-2.5716,-2.6505,-2.6557,-2.6838,-2.7226,-2.721,-2.7231,-2.7326,-2.7799,-2.8034,-2.8139,-2.8606,-2.8803,-2.8746,0.0,0.0,0.0,0.0,0.0,0.0,0.0,-3.0985,-3.2026,-3.2436,-3.3135,-3.3582,-3.355,-3.374,-3.3466,-3.2566,-3.2097,-3.1241,-2.9779,-3.0531,-3.0359,-2.8992,-2.982,-2.983,-2.8773,-2.9243,-2.8256,0.0,0.0,0.0,0.0,0.0,0.0,0.0,0.0,-2.5058,-2.6467,-2.7446,-2.807,-2.8386,-2.8386,-2.8386,-2.8426,-2.87,-2.8593,-2.8315,-2.8621,-2.8275,-2.7696,-2.7777,-2.7412,-2.6839,-2.6415,-2.6113,-2.5863,-2.5359,-2.5073,-2.4871,-2.4583,-2.4454,-2.4368,-2.4368,-2.4024,-2.3667,-2.3667,-2.3225,-2.2847,-2.2847,-2.237,-2.1775,-2.106,-2.0176,-1.9481,0.0,0.0,0.0,0.0,0.0,0.0,0.0,0.0,-1.7873,0.0,-1.7794,-1.7229,0.0,0.0,0.0,0.0,0.0,0.0,-2.259,0.0,-2.3984,-2.336,-2.4181,-2.4313,-2.3797,-2.4344,-2.4807,-2.5199,-2.5468,-2.5923,-2.6512,-2.6519,-2.6611,-2.6774,-2.6438,-2.6486,-2.6822,-2.7013,-2.7289,-2.7563,-2.7752,-2.7846,-2.7799,-2.6529,0.0,-2.6863,0.0,-2.9008,-3.0038,-3.0448,-3.2397,-3.3725,-3.3421,-3.3799,-3.4175,-3.4384,-3.4134,-3.382,-3.3416,-3.2659,-3.1834,-3.1013,-3.1449,-3.1144,-2.9735,-3.0723,0.0,-2.9585,-3.0115,-2.9397,-2.7383,-2.5761,0.0,0.0,0.0,0.0,0.0,-2.6017,-2.7329,-2.8276,-2.8884,-2.9135,-2.9135,-2.9135,-2.9135,-2.9186,-2.9367,-2.9302,-2.9094,-2.9289,-2.8937,-2.8367,-2.8167,-2.7765,-2.729,-2.6828,-2.6487,-2.6071,-2.5454,-2.5062,-2.4733,-2.4358,-2.4368,-2.4368,-2.4325,-2.4057,-2.3797,-2.3711,-2.3406,-2.3091,-2.3091,-2.276,-2.2422,-2.2129,-2.106,-2.0381,-2.0896,0.0,0.0,0.0,0.0,0.0,0.0,-1.835,-1.811,-1.9626,-1.8311,0.0,0.0,0.0,0.0,0.0,0.0,0.0,0.0,0.0,0.0,0.0,-2.3824,-2.4096,-2.3823,-2.4132,-2.4601,-2.5188,-2.5589,-2.5955,-2.6259,-2.626,-2.6265,-2.6265,-2.5878,-2.5927,-2.6265,-2.6448,-2.6678,-2.7003,-2.7136,-2.7183,-2.7183,-3.0963,-3.1557,-3.2177,-3.2739,-3.3224,-3.3022,-3.1407,-3.3003,-3.3979,-3.2855,-3.4201,-3.5051,-3.4463,-3.356,-3.2501,-3.1146,-3.0544,-2.9096,-2.6369,-2.787,-2.8198,0.0,0.0,-2.8574,-2.8036,-2.8025,-2.8687,-2.9977,0.0,0.0,-2.7352,0.0,-2.4982,-2.7469,-2.7804,-2.9081,-3.0947,-3.0973,-3.0986,-3.0986,-3.0986,-3.0986,-3.0986,-3.0986,-3.0419,-2.9704,-2.9922,-2.9457,-2.8673,-2.8011,-2.7799,-2.773,-2.7342,-2.6426,-2.5485,-2.5496,-2.469,-2.3841,-2.3797,-2.398,-2.4153,-2.3884,-2.3797,-2.3754,-2.3547,-2.3276,-2.3091,-2.3091,-2.276,-2.251,-2.251,-2.2148,-2.1678,-2.0995,0.0,0.0,0.0,0.0,0.0,0.0,-1.9265,-1.9424,-2.0135,0.0,0.0,0.0,0.0,0.0,0.0,0.0,0.0,-2.2497,-2.4005,0.0,-2.2909,-2.4167,-2.4445,-2.3779,-2.3789,-2.4284,-2.5116,-2.5518,-2.5674,-2.5732,-2.5684,-2.5684,-2.5684,-2.5693,-2.5693,-2.5781,-2.6304,-2.6496,-2.6544,-2.7051,-2.7183,-2.7136,-2.8948,-3.1172,-3.3091,-3.2796,-3.3884,-3.4708,-3.4569,-3.5122,-3.543,-3.5064,-3.5495,-3.577,-3.5587,-3.4964,-3.4247,0.0,-3.2064,-3.14,0.0,-3.1201,-3.0868,-3.0979,-3.0905,-3.0486,-2.9654,-2.9642,-2.9378,-2.885,0.0,0.0,0.0,-2.7332,-2.8469,-3.0177,-3.0894,-3.1552,-3.2123,-3.1731,-3.1536,-3.1497,-3.1143,-3.0986,-3.0986,-3.0986,-3.0823,-3.0583,-3.0672,-3.0241,-2.9574,-2.9367,-2.8636,-2.7718,-2.7255,-2.6517,-2.5653,-2.5009,-2.4551,-2.4209,-2.3884,-2.3841,-2.3894,-2.3841,-2.3711,-2.359,-2.3503,-2.3276,-2.3091,-2.3091,-2.2984,-2.2896,-2.2896,-2.2598,-2.2221,-2.1919,-2.1625,0.0,0.0,0.0,0.0,0.0,-2.0042,-2.0083,0.0,-2.0665,0.0,0.0,0.0,0.0,0.0,0.0,0.0,0.0,-2.3612,0.0,-2.3029,-2.4096,-2.4373,-2.3799,-2.4385,-2.4961,-2.5527,-2.5625,-2.5693,-2.5693,-2.5693,-2.5693,-2.5693,-2.5693,-2.5693,-2.5742,-2.5878,-2.5975,-2.5975,-2.611,-2.6159,-2.6159,-3.0933,-3.2907,-3.4464,-3.4056,-3.4881,-3.5495,-3.5208,-3.5704,-3.5953,-3.5521,-3.6031,-3.6449,-3.6449,-3.6136,0.0,-3.509,-3.3532,-3.3029,-3.4126,-3.2663,-3.1955,-3.2457,-3.2001,-3.1449,-3.086,0.0,0.0,-3.0069,-2.9798,-2.9524,-2.9268,-3.0148,-3.1047,-3.1928,-3.2447,-3.2685,-3.2672,-3.2319,-3.2124,-3.2123,-3.1771,-3.1496,-3.1313,-3.1313,-3.1169,-3.0986,-3.0986,-3.071,-3.0317,-2.9999,-2.9081,-2.7867,-2.6924,-2.6027,-2.5253,-2.4584,-2.4198,-2.3907,-2.3614,-2.3624,-2.3667,-2.358,-2.3503,-2.346,-2.3363,-2.3232,-2.3091,-2.3091,-2.3091,-2.3091,-2.3091,-2.2877,-2.2686,-2.2622,-2.2312,-2.2089,-2.201,0.0,0.0,0.0,0.0,0.0,0.0,-2.1428,0.0,0.0,0.0,0.0,0.0,0.0,0.0,-2.2972,-2.3806,0.0,-2.3634,-2.4363,-2.4641,-2.447,-2.5028,-2.5469,-2.5693,-2.5693,-2.5693,-2.5693,-2.5693,-2.5693,-2.5693,-2.5693,-2.5693,-2.5693,-2.5693,-2.5693,-2.5693,-2.5693,-2.5693,-2.5693,-3.5579,-3.594,0.0,0.0,-3.6083,0.0,-3.4123,-3.5221,-3.5848,-3.4776,-3.6057,-3.7063,-3.7063,-3.7063,-3.6841,-3.6279,0.0,0.0,0.0,-3.2523,-3.168,-3.1709,-3.1644,-3.1595,-3.1508,-3.1508,-3.1949,-3.2895,-3.3325,-3.3558,-3.3545,-3.3037,-3.2816,-3.2816,-3.2816,-3.2816,-3.2816,-3.2777,-3.2751,-3.2751,-3.2712,-3.2372,-3.1863,-3.1863,-3.1536,-3.1104,-3.1104,-3.1104,-3.0978,-3.0177,-2.9337,-2.8323,-2.6539,-2.5401,-2.4614,-2.4262,-2.3647,-2.3091,-2.3091,-2.3276,-2.3406,-2.3144,-2.3276,-2.3416,-2.3144,-2.3091,-2.3091,-2.3091,-2.3091,-2.3091,-2.3091,-2.3091,-2.3091,-2.3091,-2.2812,-2.2519,-2.2516,0.0,0.0,0.0,0.0,0.0,0.0,-2.1987,-2.2405,0.0,0.0,0.0,0.0,0.0,-2.3332,-2.4061,-2.4423,-2.4581,-2.4448,-2.4777,-2.5152,-2.5516,-2.5633,-2.5693,-2.5693,-2.5693,-2.5693,-2.5693,-2.5693,-2.5693,-2.5693,-2.5693,-2.5693,-2.5693,-2.5693,-2.5693,-2.5693,-2.5693,-2.5693,-2.5693,0.0,0.0,-3.5822,-3.4946,-3.59,-3.6815,-3.6867,-3.722,-3.7377,-3.7116,-3.7429,-3.7691,-3.7691,-3.7691,-3.7639,-3.7495,-3.5154,-3.4053,-3.4921,-3.3392,-3.2501,-3.2642,-3.2089,-3.1405,-3.0704,-3.0704,-3.1102,-3.1928,-3.2727,-3.3157,-3.3145,-3.3713,-3.3992,-3.3992,-3.3992,-3.3992,-3.3966,-3.3548,-3.3378,-3.3339,-3.2881,-3.2607,-3.2489,-3.2489,-3.2411,-3.2293,-3.2293,-3.2293,-3.228,-3.2071,-3.1412,-3.0367,-2.8514,-2.7343,-2.6193,-2.4012,-2.3222,-2.3091,-2.3091,-2.3144,-2.3188,-2.3135,-2.3144,-2.3188,-2.3091,-2.3091,-2.3091,-2.3091,-2.3091,-2.3091,-2.3091,-2.3091,-2.3091,-2.3091,-2.3013,-2.284,-2.2544,-2.2191,0.0,0.0,-2.1861,-2.2112,-2.2418,-2.3012,-2.3453,0.0,0.0,0.0,0.0,0.0,-2.3978,-2.3857,-2.3803,-2.3909,-2.4196,-2.4426,-2.4924,-2.5634,-2.5684,-2.5693,-2.5693,-2.5693,-2.5693,-2.5693,-2.5693,-2.5693,-2.5693,-2.5693,-2.5693,-2.5693,-2.5693,-2.5693,-2.5693,-2.5693,-2.5693,-2.5693,-3.3772,-3.5366,-3.6577,-3.6109,-3.6789,-3.7521,-3.7848,-3.79,-3.79,-3.79,-3.79,-3.79,-3.79,-3.79,-3.79,-3.79,-3.6214,-3.5417,-3.6031,-3.4698,-3.3942,-3.4071,-3.3353,-3.2758,-3.2248,-3.2248,-3.2434,-3.2895,-3.3377,-3.3645,-3.3645,-3.4176,-3.4397,-3.4397,-3.4397,-3.4397,-3.4384,-3.4084,-3.3966,-3.3927,-3.36,-3.3326,-3.3104,-3.3104,-3.2934,-3.2685,-3.2685,-3.2685,-3.2685,-3.2685,-3.2102,-3.116,-2.9929,-2.8531,-2.6943,-2.5213,-2.4087,-2.3437,-2.3437,-2.3247,-2.3091,-2.3091,-2.3091,-2.3091,-2.3091,-2.3091,-2.3091,-2.3091,-2.3091,-2.3091,-2.3091,-2.3091,-2.3091,-2.3091,-2.2958,-2.2757,-2.2511,-2.2212,0.0,-2.2039,-2.2203,-2.2499,-2.3023,-2.3493,-2.3854,-2.3981,0.0,0.0,-2.432,-2.4309,-2.423,-2.4112,-2.4085,-2.4309,-2.4751,-2.5023,-2.5387,-2.5868,-2.5781,-2.5781,-2.5868,-2.5781,-2.5693,-2.5693,-2.5693,-2.5693,-2.5693,-2.5693,-2.5693,-2.5693,-2.5693,-2.5693,-2.5693,-2.5693,-2.5693,-2.5693,-3.7217,-3.7459,-3.7564,-3.7808,-3.7854,-3.79,-3.79,-3.79,-3.79,-3.79,-3.79,-3.79,-3.79,-3.79,-3.79,-3.79,-3.7429,-3.7103,-3.7011,-3.6096,-3.5482,-3.5312,-3.4803,-3.4489,-3.4397,-3.4397,-3.4397,-3.4397,-3.4397,-3.4397,-3.4397,-3.4397,-3.4397,-3.4397,-3.4397,-3.4397,-3.4397,-3.4397,-3.4397,-3.4397,-3.4397,-3.4123,-3.3718,-3.3718,-3.3391,-3.2947,-3.2947,-3.2947,-3.2947,-3.2947,-3.2399,-3.1615,-3.0851,-2.9234,-2.748,-2.6711,-2.5304,-2.3965,-2.3906,-2.3574,-2.3179,-2.311,-2.3091,-2.3091,-2.3091,-2.3091,-2.3091,-2.3091,-2.3091,-2.3091,-2.3091,-2.3091,-2.3076,-2.3044,-2.2706,-2.2491,-2.2426,0.0,-2.2006,-2.2457,-2.2446,-2.2696,-2.3438,-2.3667,-2.3927,-2.4163,-2.4239,0.0,0.0,-2.4458,-2.4457,-2.4716,-2.474,-2.498,-2.5452,-2.5847,-2.6052,-2.6052,-2.583,-2.583,-2.6052,-2.5781,-2.5693,-2.5693,-2.5693,-2.5693,-2.5693,-2.5693,-2.5693,-2.5693,-2.5693,-2.5693,-2.5693,-2.5693,-2.5693,-2.5693,-3.6849,-3.7201,-3.7505,-3.7551,-3.7749,-3.79,-3.79,-3.79,-3.79,-3.79,-3.79,-3.79,-3.79,-3.79,-3.79,-3.79,-3.7808,-3.7547,-3.7037,-3.6828,-3.6305,-3.5338,-3.5208,-3.492,-3.441,-3.4397,-3.4397,-3.4397,-3.4397,-3.4397,-3.4397,-3.4397,-3.4397,-3.4397,-3.4397,-3.4397,-3.4397,-3.4397,-3.4397,-3.4397,-3.4397,-3.4345,-3.428,-3.428,-3.4214,-3.4136,-3.4136,-3.4136,-3.4136,-3.4136,-3.3791,-3.2954,-3.0882,-2.968,-2.8624,-2.6493,-2.5395,-2.4785,-2.4414,-2.4014,-2.3603,-2.3188,-2.3091,-2.3091,-2.3091,-2.3091,-2.3091,-2.3091,-2.3091,-2.3091,-2.3091,-2.3091,-2.2978,-2.2644,-2.2553,-2.2376,-2.2035,0.0,-2.2401,-2.2494,-2.2763,-2.3093,-2.3484,-2.3667,-2.3927,-2.4163,-2.4363,-2.4636,-2.5055,-2.5072,-2.5228,-2.5658,-2.4934,-2.4761,-2.5149,-2.5575,-2.5781,-2.5781,-2.5742,-2.5732,-2.5781,-2.5742,-2.5693,-2.5693,-2.5693,-2.5693,-2.5693,-2.5693,-2.5693,-2.5693,-2.5693,-2.5693,-2.5693,-2.5693,-2.5693,-2.5693,-3.6709,-3.6909,-3.7155,-3.7459,-3.7598,-3.7703,-3.7854,-3.79,-3.79,-3.79,-3.79,-3.79,-3.79,-3.79,-3.79,-3.79,-3.79,-3.7782,-3.7508,-3.7181,-3.6776,-3.624,-3.5626,-3.5012,-3.441,-3.4397,-3.4397,-3.4397,-3.4397,-3.4397,-3.4397,-3.4397,-3.4397,-3.4397,-3.4397,-3.4397,-3.4397,-3.4397,-3.4397,-3.4397,-3.4397,-3.4397,-3.4397,-3.4397,-3.4397,-3.4397,-3.4397,-3.423,-3.4008,-3.4008,-3.3713,-3.3147,-3.2016,-3.0619,-2.9269,-2.868,-2.6879,-2.5018,-2.4531,-2.4277,-2.4023,-2.3603,-2.3486,-2.3428,-2.3149,-2.3091,-2.3091,-2.3091,-2.3091,-2.3091,-2.3091,-2.3091,-2.3016,-2.286,-2.2624,0.0,0.0,-2.2376,-2.2486,-2.2486,-2.286,-2.3232,-2.3624,-2.3754,-2.397,-2.4325,-2.4681,-2.4962,-2.5179,-2.5451,-2.5747,-2.6064,-2.5503,-2.5252,-2.542,-2.5635,-2.5781,-2.5917,-2.5781,-2.5781,-2.5917,-2.5781,-2.5693,-2.5693,-2.5693,-2.5693,-2.5693,-2.5693,-2.5693,-2.5693,-2.5693,-2.5693,-2.5693,-2.5693,-2.5693,-2.5693,-3.6675,-3.6722,-3.6909,-3.7261,-3.7366,-3.7459,-3.7703,-3.7762,-3.7808,-3.7808,-3.7854,-3.79,-3.79,-3.79,-3.79,-3.79,-3.79,-3.79,-3.79,-3.7469,-3.7155,-3.7011,-3.6031,-3.5273,-3.4803,-3.4672,-3.4607,-3.4607,-3.4463,-3.4397,-3.4397,-3.4397,-3.4397,-3.4397,-3.4397,-3.4397,-3.4397,-3.4397,-3.4397,-3.4397,-3.4397,-3.4397,-3.4397,-3.4397,-3.4397,-3.4397,-3.4397,-3.4105,-3.3713,-3.3713,-3.3343,-3.2828,-3.2599,-3.1178,-2.9647,-2.9966,-2.7772,-2.5127,-2.4687,-2.457,-2.4463,-2.4043,-2.3867,-2.3701,-2.3315,-2.3169,-2.3091,-2.3091,-2.3091,-2.3091,-2.3091,-2.3091,-2.3081,-2.3067,0.0,0.0,0.0,-2.2603,-2.265,-2.2783,-2.306,-2.344,-2.3841,-2.3985,-2.4219,-2.4609,-2.5075,-2.543,-2.5533,-2.5865,-2.612,-2.6266,-2.603,-2.5869,-2.5771,-2.5732,-2.5781,-2.6004,-2.5781,-2.583,-2.6004,-2.5781,-2.5693,-2.5693,-2.5693,-2.5693,-2.5693,-2.5693,-2.5693,-2.5693,-2.5693,-2.5693,-2.5693,-2.5693,-2.5693,-2.5693,-3.6499,-3.6781,-3.7015,-3.6815,-3.6956,-3.7155,-3.7168,-3.7366,-3.7505,-3.7505,-3.7762,-3.79,-3.79,-3.79,-3.79,-3.79,-3.79,-3.79,-3.79,-3.7861,-3.7586,-3.7024,-3.6384,-3.6018,-3.5979,-3.5482,-3.5234,-3.5234,-3.4672,-3.4397,-3.4397,-3.4397,-3.4397,-3.4397,-3.4397,-3.4397,-3.4397,-3.4397,-3.4397,-3.4397,-3.4397,-3.4397,-3.4397,-3.4397,-3.4397,-3.4397,-3.4397,-3.4105,-3.3713,-3.3713,-3.3129,-3.2288,-3.1359,-3.0621,-2.9795,-2.7981,-2.6617,-2.5596,-2.5146,-2.5067,-2.4959,-2.4473,-2.4082,-2.3779,-2.375,-2.3428,-2.3091,-2.3091,-2.3091,-2.3091,-2.3091,-2.3091,-2.3077,-2.291,0.0,0.0,-2.309,-2.2974,-2.3075,-2.3624,-2.3737,-2.3841,-2.4153,-2.454,-2.4917,-2.5137,-2.5585,-2.6065,-2.6444,-2.6542,-2.6547,-2.6484,-2.6196,-2.6061,-2.6052,-2.583,-2.5684,-2.5732,-2.5684,-2.5684,-2.5732,-2.5684,-2.5693,-2.5693,-2.5693,-2.5693,-2.5693,-2.5693,-2.5693,-2.5693,-2.5693,-2.5693,-2.5693,-2.5693,-2.5693,-2.5693,-3.4983,-3.5362,-3.579,-3.6188,-3.6581,-3.6909,-3.7062,-3.7214,-3.7307,-3.7459,-3.7598,-3.7703,-3.79,-3.79,-3.79,-3.79,-3.79,-3.79,-3.79,-3.79,-3.7639,-3.7037,-3.6789,-3.6488,-3.6109,-3.59,-3.5796,-3.5796,-3.5234,-3.4959,-3.4946,-3.4567,-3.4397,-3.4397,-3.4397,-3.4397,-3.4397,-3.4397,-3.4397,-3.4397,-3.4397,-3.4397,-3.4397,-3.4397,-3.423,-3.3979,-3.3979,-3.3513,-3.2884,-3.2884,-3.2463,-3.1893,-3.1516,-3.0396,-2.8866,-2.6839,-2.6418,-2.6474,-2.5662,-2.5478,-2.5381,-2.4932,-2.4697,-2.4443,-2.3906,-2.3662,-2.3467,-2.3149,-2.3091,-2.3091,-2.3091,-2.3232,-2.3325,-2.3272,0.0,-2.339,-2.3556,-2.3525,-2.3552,-2.378,-2.3797,-2.3995,-2.4594,-2.4645,-2.4859,-2.5358,-2.5844,-2.6162,-2.6336,-2.6801,-2.7028,-2.7023,-2.6736,-2.6448,-2.61,-2.6159,-2.611,-2.5965,-2.5965,-2.5868,-2.5693,-2.5693,-2.5693,-2.5693,-2.5693,-2.5693,-2.5693,-2.5693,-2.5693,-2.5693,-2.5693,-2.5693,-2.5693,-2.5693,-2.5693,-2.5693,-3.4472,-3.4747,-3.5176,-3.5998,-3.625,-3.6487,-3.6828,-3.6922,-3.7062,-3.7214,-3.7413,-3.7564,-3.7749,-3.7854,-3.79,-3.79,-3.79,-3.79,-3.79,-3.79,-3.7717,-3.7299,-3.7286,-3.709,-3.6671,-3.6488,-3.6384,-3.6384,-3.5652,-3.5299,-3.5286,-3.4672,-3.4397,-3.4397,-3.4397,-3.4397,-3.4397,-3.4397,-3.4397,-3.4397,-3.4397,-3.4397,-3.4397,-3.423,-3.3966,-3.367,-3.3543,-3.3,-3.24,-3.24,-3.2069,-3.1705,-3.1705,-3.0543,-2.8912,-2.7542,-2.7152,-2.7047,-2.637,-2.5965,-2.5615,-2.5352,-2.5176,-2.4959,-2.4326,-2.4082,-2.3867,-2.3393,-2.3305,-2.3257,-2.312,-2.3319,-2.3503,-2.358,-2.3711,-2.3841,-2.4013,-2.397,-2.3927,-2.4013,-2.4145,-2.4445,-2.4948,-2.5001,-2.5239,-2.5681,-2.6129,-2.6478,-2.6515,-2.7049,-2.7262,-2.7167,-2.7081,-2.6794,-2.6352,-2.6448,-2.6352,-2.61,-2.61,-2.5965,-2.5693,-2.5693,-2.5693,-2.5693,-2.5693,-2.5693,-2.5693,-2.5693,-2.5693,-2.5693,-2.5693,-2.5693,-2.5693,-2.5693,-2.5693,-2.5693,-3.5402,-3.5391,-3.5463,-3.6263,-3.5943,-3.5812,-3.631,-3.6581,-3.6709,-3.6709,-3.7155,-3.7505,-3.7505,-3.7749,-3.79,-3.79,-3.79,-3.79,-3.79,-3.79,-3.79,-3.79,-3.79,-3.79,-3.79,-3.7312,-3.7011,-3.7011,-3.5874,-3.5312,-3.5286,-3.4685,-3.4397,-3.4397,-3.4397,-3.4397,-3.4397,-3.4397,-3.4397,-3.4397,-3.4397,-3.4397,-3.4356,-3.3894,-3.3713,-3.3628,-3.3159,-3.2754,-3.2388,-3.2388,-3.2069,-3.1705,-3.1705,-3.1003,-3.0215,-3.017,-2.8773,-2.7189,-2.7189,-2.6466,-2.5693,-2.5693,-2.54,-2.5116,-2.5116,-2.4727,-2.4307,-2.3887,-2.3789,-2.3662,-2.3179,-2.3319,-2.358,-2.3754,-2.3797,-2.397,-2.4411,-2.4325,-2.4292,-2.4454,-2.491,-2.5189,-2.5199,-2.5833,-2.6217,-2.618,-2.6645,-2.6986,-2.7262,-2.7309,-2.7167,-2.69,-2.7177,-2.7177,-2.69,-2.6651,-2.6352,-2.61,-2.61,-2.5955,-2.5693,-2.5693,-2.5693,-2.5693,-2.5693,-2.5693,-2.5693,-2.5693,-2.5693,-2.5693,-2.5693,-2.5693,-2.5693,-2.5693,-2.5693,-2.5693,-3.3779,-3.421,-3.4713,-3.5678,-3.6038,-3.6228,-3.6358,-3.6452,-3.6534,-3.6675,-3.6815,-3.7062,-3.7459,-3.7564,-3.7703,-3.79,-3.79,-3.79,-3.79,-3.79,-3.79,-3.79,-3.79,-3.79,-3.79,-3.773,-3.7639,-3.7639,-3.6867,-3.6279,-3.5848,-3.5286,-3.4803,-3.4397,-3.4397,-3.4397,-3.4397,-3.4397,-3.4397,-3.4397,-3.4397,-3.4397,-3.4356,-3.3894,-3.3513,-3.3159,-3.2723,-3.2288,-3.1893,-3.1893,-3.1805,-3.1572,-3.0869,-3.0453,-3.0068,-2.9372,-2.8215,-2.7189,-2.7189,-2.6466,-2.5693,-2.5693,-2.5586,-2.5449,-2.5137,-2.4971,-2.4746,-2.4316,-2.3994,-2.3795,-2.3791,-2.3745,-2.3807,-2.4024,-2.4196,-2.4325,-2.4497,-2.4454,-2.4535,-2.4941,-2.5106,-2.5393,-2.5849,-2.5914,-2.5963,-2.6122,-2.6426,-2.6747,-2.6996,-2.7034,-2.7081,-2.7167,-2.7081,-2.6996,-2.69,-2.6805,-2.6747,-2.6651,-2.6294,-2.6052,-2.5955,-2.5781,-2.5693,-2.5693,-2.5693,-2.5693,-2.5693,-2.5693,-2.5693,-2.5693,-2.5693,-2.5693,-2.5693,-2.5693,-2.5693,-2.5693,-3.3658,-3.4006,-3.4438,-3.569,-3.5991,-3.6181,-3.6358,-3.6405,-3.6452,-3.6581,-3.6675,-3.6815,-3.7155,-3.7261,-3.7459,-3.7703,-3.7854,-3.79,-3.79,-3.79,-3.79,-3.79,-3.79,-3.79,-3.79,-3.79,-3.79,-3.79,-3.7299,-3.6698,-3.6096,-3.5547,-3.4972,-3.4397,-3.4397,-3.4397,-3.4397,-3.4397,-3.4397,-3.4397,-3.4397,-3.4397,-3.4314,-3.367,-3.3245,-3.2914,-3.2332,-3.1937,-3.1705,-3.1705,-3.1705,-3.1617,-3.0958,-3.0767,-3.0588,-2.9612,-2.8866,-2.8204,-2.7426,-2.6733,-2.6187,-2.5781,-2.5693,-2.5615,-2.54,-2.5332,-2.5205,-2.4766,-2.4473,-2.433,-2.439,-2.4138,-2.4015,-2.4297,-2.4362,-2.4387,-2.4474,-2.4679,-2.4898,-2.5262,-2.5478,-2.5762,-2.6166,-2.604,-2.6004,-2.6225,-2.64,-2.6651,-2.7034,-2.7081,-2.7129,-2.7309,-2.7129,-2.6996,-2.69,-2.6794,-2.6699,-2.6602,-2.6245,-2.6052,-2.5965,-2.5781,-2.5693,-2.5693,-2.5693,-2.5693,-2.5693,-2.5693,-2.5693,-2.5693,-2.5693,-2.5693,-2.5693,-2.5693,-2.5693,-2.5693,-3.4496,-3.4433,-3.4568,-3.6121,-3.5943,-3.58,-3.631,-3.6358,-3.637,-3.6405,-3.6534,-3.6675,-3.6709,-3.6922,-3.7168,-3.7459,-3.7762,-3.79,-3.79,-3.79,-3.79,-3.79,-3.79,-3.79,-3.79,-3.79,-3.79,-3.79,-3.7306,-3.6705,-3.6096,-3.5557,-3.5025,-3.4397,-3.4397,-3.4397,-3.4397,-3.4397,-3.4397,-3.4397,-3.4397,-3.4397,-3.4314,-3.3416,-3.3074,-3.2945,-3.2101,-3.1761,-3.1761,-3.1705,-3.1705,-3.1705,-3.1705,-3.1705,-3.1516,-3.0588,-3.026,-2.9795,-2.784,-2.7274,-2.6962,-2.5965,-2.5693,-2.5693,-2.5693,-2.5693,-2.5625,-2.5215,-2.5145,-2.5045,-2.4885,-2.4449,-2.4242,-2.452,-2.4409,-2.4374,-2.4559,-2.4975,-2.5372,-2.5589,-2.5962,-2.619,-2.6231,-2.6112,-2.6197,-2.6448,-2.6496,-2.6736,-2.7262,-2.7262,-2.7262,-2.7262,-2.7262,-2.7071,-2.6853,-2.6592,-2.64,-2.6149,-2.6091,-2.5955,-2.5791,-2.5732,-2.5732,-2.5732,-2.5684,-2.5693,-2.5693,-2.5693,-2.5693,-2.5693,-2.5693,-2.5693,-2.5693,-2.5693,-2.5693,-2.5693,-3.4568,-3.4726,-3.5017,-3.6168,-3.5943,-3.58,-3.631,-3.6038,-3.5943,-3.637,-3.6452,-3.6534,-3.6675,-3.6769,-3.6968,-3.7459,-3.7762,-3.79,-3.79,-3.79,-3.79,-3.79,-3.79,-3.79,-3.79,-3.79,-3.79,-3.79,-3.7573,-3.6962,-3.6096,-3.5799,-3.5245,-3.4397,-3.4397,-3.4397,-3.4397,-3.4397,-3.4397,-3.4397,-3.4397,-3.4397,-3.4356,-3.3755,-3.3543,-3.3416,-3.255,-3.2257,-3.2213,-3.1793,-3.1705,-3.1705,-3.1705,-3.1705,-3.1661,-3.1427,-3.0824,-2.9932,-2.8727,-2.7793,-2.6962,-2.5965,-2.5693,-2.5693,-2.5693,-2.5693,-2.5664,-2.5567,-2.5312,-2.5134,-2.527,-2.4951,-2.4699,-2.4927,-2.5128,-2.5233,-2.5289,-2.556,-2.5906,-2.6326,-2.6249,-2.6266,-2.6421,-2.6061,-2.5917,-2.6149,-2.64,-2.664,-2.6986,-2.6784,-2.6784,-2.6996,-2.6794,-2.6544,-2.6294,-2.64,-2.6448,-2.64,-2.6197,-2.6197,-2.6304,-2.611,-2.6004,-2.6004,-2.5781,-2.5693,-2.5693,-2.5693,-2.5693,-2.5693,-2.5693,-2.5693,-2.5693,-2.5693,-2.5693,-2.5693,-3.4286,-3.4628,-3.4969,-3.5548,-3.5608,-3.5608,-3.5644,-3.5416,-3.532,-3.5596,-3.5835,-3.6073,-3.6168,-3.6168,-3.6358,-3.6734,-3.7121,-3.7459,-3.7703,-3.7854,-3.79,-3.79,-3.79,-3.7854,-3.7703,-3.7703,-3.7703,-3.7703,-3.7564,-3.7085,-3.6337,-3.6077,-3.5535,-3.4816,-3.4528,-3.4397,-3.4397,-3.4397,-3.4397,-3.4397,-3.4397,-3.4397,-3.4356,-3.3894,-3.3713,-3.3598,-3.2723,-3.2257,-3.2025,-3.1793,-3.1705,-3.1705,-3.1705,-3.1705,-3.1705,-3.1705,-3.1339,-3.0678,-2.9704,-2.868,-2.7652,-2.6648,-2.6052,-2.5693,-2.5693,-2.5693,-2.5693,-2.5693,-2.5557,-2.5477,-2.5706,-2.5303,-2.5016,-2.5249,-2.5217,-2.5203,-2.5311,-2.5609,-2.6013,-2.6519,-2.6334,-2.6187,-2.6322,-2.6159,-2.6207,-2.6448,-2.6592,-2.6747,-2.69,-2.6757,-2.6699,-2.6699,-2.6544,-2.6342,-2.61,-2.6245,-2.6255,-2.612,-2.5965,-2.5965,-2.612,-2.5965,-2.5917,-2.5917,-2.5781,-2.5693,-2.5693,-2.5693,-2.5693,-2.5693,-2.5693,-2.5693,-2.5693,-2.5693,-2.5693,-2.5693,-3.3892,-3.4384,-3.4677,-3.4775,-3.5078,-3.5223,-3.4823,-3.4726,-3.4677,-3.4775,-3.5175,-3.5464,-3.5464,-3.5512,-3.5596,-3.581,-3.6238,-3.6769,-3.7307,-3.7564,-3.7749,-3.7854,-3.7854,-3.7716,-3.7459,-3.74,-3.7413,-3.7413,-3.7413,-3.711,-3.647,-3.6168,-3.5726,-3.5116,-3.462,-3.4397,-3.4397,-3.4397,-3.4397,-3.4397,-3.4397,-3.4397,-3.4356,-3.3979,-3.3797,-3.3713,-3.2896,-3.2288,-3.1805,-3.1705,-3.1705,-3.1705,-3.1705,-3.1705,-3.1705,-3.1705,-3.1705,-3.1472,-3.0453,-2.9612,-2.8727,-2.7699,-2.6686,-2.5965,-2.5965,-2.583,-2.5693,-2.5693,-2.5693,-2.5781,-2.6004,-2.5564,-2.5281,-2.548,-2.5268,-2.5149,-2.5317,-2.5744,-2.6226,-2.66,-2.639,-2.6197,-2.6197,-2.6352,-2.6592,-2.69,-2.69,-2.69,-2.69,-2.6853,-2.6699,-2.6448,-2.6448,-2.6294,-2.6052,-2.61,-2.5965,-2.5693,-2.5693,-2.5732,-2.5781,-2.5781,-2.5781,-2.5781,-2.5742,-2.5693,-2.5693,-2.5693,-2.5693,-2.5693,-2.5693,-2.5693,-2.5693,-2.5693,-2.5693,-2.5693,-3.3892,-3.404,-3.4237,-3.4726,-3.4482,-3.4335,-3.4726,-3.4384,-3.4286,-3.4738,-3.4872,-3.4932,-3.4932,-3.5102,-3.5283,-3.5319,-3.5571,-3.6048,-3.6769,-3.6862,-3.7062,-3.7551,-3.7551,-3.7413,-3.7168,-3.6922,-3.6909,-3.7155,-3.7155,-3.672,-3.5926,-3.5849,-3.5358,-3.4515,-3.4437,-3.4397,-3.4397,-3.4397,-3.4397,-3.4397,-3.4397,-3.4397,-3.4397,-3.4314,-3.4314,-3.423,-3.3725,-3.3013,-3.2257,-3.1849,-3.1705,-3.1705,-3.1705,-3.1705,-3.1705,-3.1705,-3.1705,-3.1472,-3.0453,-3.0125,-2.9749,-2.8773,-2.7746,-2.701,-2.701,-2.6322,-2.5693,-2.5693,-2.5693,-2.5684,-2.5732,-2.5684,-2.5644,-2.5644,-2.603,-2.6287,-2.63,-2.6778,-2.7094,-2.7156,-2.6938,-2.6699,-2.6448,-2.6496,-2.6592,-2.69,-2.69,-2.69,-2.69,-2.6699,-2.6448,-2.6149,-2.6149,-2.6014,-2.5781,-2.5955,-2.5965,-2.5693,-2.5693,-2.583,-2.6052,-2.6052,-2.6052,-2.6052,-2.5781,-2.5693,-2.5693,-2.5693,-2.5693,-2.5693,-2.5693,-2.5693,-2.5693,-2.5693,-2.5693,-2.5693,-3.3568,-3.3793,-3.3991,-3.3953,-3.3991,-3.3991,-3.3953,-3.3767,-3.3706,-3.3904,-3.4188,-3.4335,-3.4335,-3.447,-3.4507,-3.4507,-3.4787,-3.5223,-3.5798,-3.638,-3.6815,-3.7062,-3.7505,-3.7611,-3.7307,-3.7214,-3.7108,-3.7108,-3.6828,-3.6467,-3.6084,-3.573,-3.5357,-3.4881,-3.4554,-3.4397,-3.4397,-3.4397,-3.4397,-3.4397,-3.4397,-3.4397,-3.4356,-3.3979,-3.4063,-3.4314,-3.3586,-3.2927,-3.2344,-3.1849,-3.1705,-3.1705,-3.1705,-3.1705,-3.1705,-3.1705,-3.1705,-3.1617,-3.1149,-3.0633,-3.0068,-2.9658,-2.8355,-2.7189,-2.7189,-2.6418,-2.5693,-2.5693,-2.583,-2.5917,-2.5917,-2.6062,-2.6169,-2.6169,-2.6362,-2.6496,-2.6496,-2.6688,-2.6832,-2.6832,-2.7023,-2.7034,-2.6747,-2.6842,-2.6976,-2.7129,-2.6996,-2.6853,-2.6699,-2.64,-2.6149,-2.5868,-2.5868,-2.583,-2.5693,-2.583,-2.583,-2.5693,-2.5693,-2.5781,-2.5868,-2.5868,-2.5868,-2.5868,-2.5732,-2.5693,-2.5693,-2.5693,-2.5693,-2.5693,-2.5693,-2.5693,-2.5693,-2.5693,-2.5693,-2.5693]},{"header":{"parameterUnit":"m.s-1","parameterCategory":1,"la1":30.6,"la2":28.766,"lo1":-90.7593,"lo2":-88.6598,"dy":0.0162,"dx":0.0183,"nx":116,"ny":114,"refTime":"2023-10-25T12:00:00:Z","depth":0,"parameterNumber":3,"parameterNumberName":"V-component_of_WINDS"},"data":[0.0,0.0,0.0,0.0,0.0,0.0,0.0,0.0,0.0,0.0,0.0,0.0,0.0,0.0,0.0,0.0,0.0,0.0,0.0,0.0,0.0,0.0,0.0,0.0,0.0,0.0,0.0,0.0,0.0,0.0,0.0,0.0,0.0,0.0,0.0,0.0,0.0,0.0,0.0,0.0,0.0,0.0,0.0,0.0,0.0,0.0,0.0,0.0,0.0,0.0,0.0,0.0,0.0,0.0,0.0,0.0,0.0,0.0,0.0,0.0,0.0,0.0,0.0,0.0,0.0,0.0,0.0,0.0,0.0,0.0,0.0,0.0,0.0,0.0,0.0,0.0,0.0,0.0,0.0,0.0,0.0,0.0,0.0,0.0,0.0,0.0,0.0,0.0,0.0,0.0,0.0,0.0,0.0,0.0,0.0,0.0,0.0,0.0,0.0,0.0,0.0,0.0,0.0,0.0,0.0,0.0,0.0,0.0,0.0,0.0,0.0,0.0,0.0,0.0,0.0,0.0,0.0,0.0,0.0,0.0,0.0,0.0,0.0,0.0,0.0,0.0,0.0,0.0,0.0,0.0,0.0,0.0,0.0,0.0,0.0,0.0,0.0,0.0,0.0,0.0,0.0,0.0,0.0,0.0,0.0,0.0,0.0,0.0,0.0,0.0,0.0,0.0,0.0,0.0,0.0,0.0,0.0,0.0,0.0,0.0,0.0,0.0,0.0,0.0,0.0,0.0,0.0,0.0,0.0,0.0,0.0,0.0,0.0,0.0,0.0,0.0,0.0,0.0,0.0,0.0,0.0,0.0,0.0,0.0,0.0,0.0,0.0,0.0,0.0,0.0,0.0,0.0,0.0,0.0,0.0,0.0,0.0,0.0,0.0,0.0,0.0,0.0,0.0,0.0,0.0,0.0,0.0,0.0,0.0,0.0,0.0,0.0,0.0,0.0,0.0,0.0,0.0,0.0,0.0,0.0,0.0,0.0,0.0,0.0,0.0,0.0,0.0,0.0,0.0,0.0,0.0,0.0,0.0,0.0,0.0,0.0,0.0,0.0,0.0,0.0,0.0,0.0,0.0,0.0,0.0,0.0,0.0,0.0,0.0,0.0,0.0,0.0,0.0,0.0,0.0,0.0,0.0,0.0,0.0,0.0,0.0,0.0,0.0,0.0,0.0,0.0,0.0,0.0,0.0,0.0,0.0,0.0,0.0,0.0,0.0,0.0,0.0,0.0,0.0,0.0,0.0,0.0,0.0,0.0,0.0,0.0,0.0,0.0,0.0,0.0,0.0,0.0,0.0,0.0,0.0,0.0,0.0,0.0,0.0,0.0,0.0,0.0,0.0,0.0,0.0,0.0,0.0,0.0,0.0,0.0,0.0,0.0,0.0,0.0,0.0,0.0,0.0,0.0,0.0,0.0,0.0,0.0,0.0,0.0,0.0,0.0,0.0,0.0,0.0,0.0,0.0,0.0,0.0,0.0,0.0,0.0,0.0,0.0,0.0,0.0,0.0,0.0,0.0,0.0,0.0,0.0,0.0,0.0,0.0,0.0,0.0,0.0,0.0,0.0,0.0,0.0,0.0,0.0,0.0,0.0,0.0,0.0,0.0,0.0,0.0,0.0,0.0,0.0,0.0,0.0,0.0,0.0,0.0,0.0,0.0,0.0,0.0,0.0,0.0,0.0,0.0,0.0,0.0,0.0,0.0,0.0,0.0,0.0,0.0,0.0,0.0,0.0,0.0,0.0,0.0,0.0,0.0,0.0,0.0,0.0,0.0,0.0,0.0,0.0,0.0,0.0,0.0,0.0,0.0,0.0,0.0,0.0,0.0,0.0,0.0,0.0,0.0,0.0,0.0,0.0,0.0,0.0,0.0,0.0,0.0,0.0,0.0,0.0,0.0,0.0,0.0,0.0,0.0,0.0,0.0,0.0,0.0,0.0,0.0,0.0,0.0,0.0,0.0,0.0,0.0,0.0,0.0,0.0,0.0,0.0,0.0,0.0,0.0,0.0,0.0,0.0,0.0,0.0,0.0,0.0,0.0,0.0,0.0,0.0,0.0,0.0,0.0,0.0,0.0,0.0,0.0,0.0,0.0,0.0,0.0,0.0,0.0,0.0,0.0,0.0,0.0,0.0,0.0,0.0,0.0,0.0,0.0,0.0,0.0,0.0,0.0,0.0,0.0,0.0,0.0,0.0,0.0,0.0,0.0,0.0,0.0,0.0,0.0,0.0,0.0,0.0,0.0,0.0,0.0,0.0,0.0,0.0,0.0,0.0,0.0,0.0,0.0,0.0,0.0,0.0,0.0,0.0,0.0,0.0,0.0,0.0,0.0,0.0,0.0,0.0,0.0,0.0,0.0,0.0,0.0,0.0,0.0,0.0,0.0,0.0,0.0,0.0,0.0,0.0,0.0,0.0,0.0,0.0,0.0,0.0,0.0,0.0,0.0,0.0,0.0,0.0,0.0,0.0,0.0,0.0,0.0,0.0,0.0,0.0,0.0,0.0,0.0,0.0,0.0,0.0,0.0,0.0,0.0,0.0,0.0,0.0,0.0,0.0,0.0,0.0,0.0,0.0,0.0,0.0,0.0,0.0,0.0,0.0,0.0,0.0,0.0,0.0,0.0,0.0,0.0,0.0,0.0,0.0,0.0,0.0,0.0,0.0,0.0,0.0,0.0,0.0,0.0,0.0,0.0,0.0,0.0,0.0,0.0,0.0,0.0,0.0,0.0,0.0,0.0,0.0,0.0,0.0,0.0,0.0,0.0,0.0,0.0,0.0,0.0,0.0,0.0,0.0,0.0,0.0,0.0,0.0,0.0,0.0,0.0,0.0,0.0,0.0,0.0,0.0,0.0,0.0,0.0,0.0,0.0,0.0,0.0,0.0,0.0,0.0,0.0,0.0,0.0,0.0,0.0,0.0,0.0,0.0,0.0,0.0,0.0,0.0,0.0,0.0,0.0,0.0,0.0,0.0,0.0,0.0,0.0,0.0,0.0,0.0,0.0,0.0,0.0,0.0,0.0,0.0,0.0,0.0,0.0,0.0,0.0,0.0,0.0,0.0,0.0,0.0,0.0,0.0,0.0,0.0,0.0,0.0,0.0,0.0,0.0,0.0,0.0,0.0,0.0,0.0,0.0,0.0,0.0,0.0,0.0,0.0,0.0,0.0,0.0,0.0,0.0,0.0,0.0,0.0,0.0,0.0,0.0,0.0,0.0,0.0,0.0,0.0,0.0,0.0,0.0,0.0,0.0,0.0,0.0,0.0,0.0,0.0,0.0,0.0,0.0,0.0,0.0,0.0,0.0,0.0,0.0,0.0,0.0,0.0,0.0,0.0,0.0,0.0,0.0,0.0,0.0,0.0,0.0,0.0,0.0,0.0,0.0,0.0,0.0,0.0,0.0,0.0,0.0,0.0,0.0,0.0,0.0,0.0,0.0,0.0,0.0,0.0,0.0,0.0,0.0,0.0,0.0,0.0,0.0,0.0,0.0,0.0,0.0,0.0,0.0,0.0,0.0,0.0,0.0,0.0,0.0,0.0,0.0,0.0,0.0,0.0,0.0,0.0,0.0,0.0,0.0,0.0,0.0,0.0,0.0,0.0,0.0,0.0,0.0,0.0,0.0,0.0,0.0,0.0,0.0,0.0,0.0,0.0,0.0,0.0,0.0,0.0,0.0,0.0,0.0,0.0,0.0,0.0,0.0,0.0,0.0,0.0,0.0,0.0,0.0,0.0,0.0,0.0,0.0,0.0,0.0,0.0,0.0,0.0,0.0,0.0,0.0,0.0,0.0,0.0,0.0,0.0,0.0,0.0,0.0,0.0,0.0,0.0,0.0,0.0,0.0,0.0,0.0,0.0,0.0,0.0,0.0,0.0,0.0,0.0,0.0,0.0,0.0,0.0,0.0,0.0,0.0,0.0,0.0,0.0,0.0,0.0,0.0,0.0,0.0,0.0,0.0,0.0,0.0,0.0,0.0,0.0,0.0,0.0,0.0,0.0,0.0,0.0,0.0,0.0,0.0,0.0,0.0,0.0,0.0,0.0,0.0,0.0,0.0,0.0,0.0,0.0,0.0,0.0,0.0,0.0,0.0,0.0,0.0,0.0,0.0,0.0,0.0,0.0,0.0,0.0,0.0,0.0,0.0,0.0,0.0,0.0,0.0,0.0,0.0,0.0,0.0,0.0,0.0,0.0,0.0,0.0,0.0,0.0,0.0,0.0,0.0,0.0,0.0,0.0,0.0,0.0,0.0,0.0,0.0,0.0,0.0,0.0,0.0,0.0,0.0,0.0,0.0,0.0,0.0,0.0,0.0,0.0,0.0,0.0,0.0,0.0,0.0,0.0,0.0,0.0,0.0,0.0,0.0,0.0,0.0,0.0,0.0,0.0,0.0,0.0,0.0,0.0,0.0,0.0,0.0,0.0,0.0,0.0,0.0,0.0,0.0,0.0,0.0,0.0,0.0,0.0,0.0,0.0,0.0,0.0,0.0,0.0,0.0,0.0,0.0,0.0,0.0,0.0,0.0,0.0,0.0,0.0,0.0,0.0,0.0,0.0,0.0,0.0,0.0,0.0,0.0,0.0,0.0,0.0,0.0,0.0,0.0,0.0,0.0,0.0,0.0,0.0,0.0,0.0,0.0,0.0,0.0,0.0,0.0,0.0,0.0,0.0,0.0,0.0,0.0,0.0,0.0,0.0,0.0,0.0,0.0,0.0,0.0,0.0,0.0,0.0,0.0,0.0,0.0,0.0,0.0,0.0,0.0,0.0,0.0,0.0,0.0,0.0,0.0,0.0,0.0,0.0,0.0,0.0,0.0,0.0,0.0,0.0,0.0,0.0,0.0,0.0,0.0,0.0,0.0,0.0,0.0,0.0,0.0,0.0,0.0,0.0,0.0,0.0,0.0,0.0,0.0,0.0,0.0,0.0,0.0,0.0,0.0,0.0,0.0,0.0,0.0,0.0,0.0,0.0,0.0,0.0,0.0,0.0,0.0,0.0,0.0,0.0,0.0,0.0,0.0,0.0,0.0,0.0,0.0,0.0,0.0,0.0,0.0,0.0,0.0,0.0,0.0,0.0,0.0,0.0,0.0,0.0,0.0,0.0,0.0,0.0,0.0,0.0,0.0,0.0,0.0,0.0,0.0,0.0,0.0,0.0,0.0,0.0,0.0,0.0,0.0,0.0,0.0,0.0,0.0,0.0,0.0,0.0,0.0,0.0,0.0,0.0,0.0,0.0,0.0,0.0,0.0,0.0,0.0,0.0,0.0,0.0,0.0,0.0,0.0,0.0,0.0,0.0,0.0,0.0,0.0,0.0,0.0,0.0,0.0,0.0,0.0,0.0,0.0,0.0,0.0,0.0,0.0,0.0,0.0,0.0,0.0,0.0,0.0,0.0,0.0,0.0,0.0,0.0,0.0,0.0,0.0,0.0,0.0,0.0,0.0,0.0,0.0,0.0,0.0,0.0,0.0,0.0,0.0,0.0,0.0,0.0,0.0,0.0,0.0,0.0,0.0,0.0,0.0,0.0,0.0,0.0,0.0,0.0,0.0,0.0,0.0,0.0,0.0,0.0,0.0,0.0,0.0,0.0,0.0,0.0,0.0,0.0,0.0,0.0,0.0,0.0,0.0,0.0,0.0,0.0,0.0,0.0,0.0,0.0,0.0,0.0,0.0,0.0,0.0,0.0,0.0,0.0,0.0,0.0,0.0,0.0,0.0,0.0,0.0,0.0,0.0,0.0,0.0,0.0,0.0,0.0,0.0,0.0,0.0,0.0,0.0,0.0,0.0,0.0,0.0,0.0,0.0,0.0,0.0,0.0,0.0,0.0,0.0,0.0,0.0,0.0,0.0,0.0,0.0,0.0,0.0,0.0,0.0,0.0,0.0,0.0,0.0,0.0,0.0,0.0,0.0,0.0,0.0,0.0,0.0,0.0,0.0,0.0,0.0,0.0,0.0,0.0,0.0,0.0,0.0,0.0,0.0,0.0,0.0,0.0,0.0,0.0,0.0,0.0,0.0,0.0,0.0,0.0,0.0,0.0,0.0,0.0,0.0,0.0,0.0,0.0,0.0,0.0,0.0,0.0,0.0,0.0,0.0,0.0,1.7771,0.0,0.0,0.0,0.0,0.0,0.0,0.0,0.0,0.0,0.0,0.0,0.0,0.0,0.0,0.0,0.0,0.0,0.0,0.0,0.0,0.0,0.0,0.0,0.0,0.0,0.0,0.0,0.0,0.0,0.0,0.0,0.0,0.0,0.0,0.0,0.0,0.0,0.0,0.9958,1.0434,1.1076,1.1835,1.19,1.1499,1.0724,0.0,0.0,0.0,0.0,0.0,0.0,0.0,0.0,0.0,0.0,0.0,0.0,0.0,0.0,0.0,0.0,0.0,0.0,0.0,0.0,0.0,0.0,0.0,0.0,0.0,0.0,0.0,0.0,0.0,0.0,0.0,0.0,0.0,0.0,0.0,0.0,0.0,0.0,0.0,0.0,0.0,0.0,0.0,0.0,0.0,0.0,0.0,0.0,0.0,0.0,0.0,0.0,0.0,0.0,0.0,0.0,0.0,0.0,0.0,0.0,0.0,0.0,0.0,0.0,0.0,0.0,0.0,0.0,0.0,0.0,0.0,1.7366,0.0,0.0,0.0,0.0,0.0,0.0,0.0,0.0,0.0,0.0,0.0,0.0,0.0,0.0,0.0,0.0,0.0,0.0,0.0,0.0,0.0,0.0,0.0,0.5723,0.5782,0.5779,0.6053,0.6827,0.0,0.0,0.0,0.0,0.0,0.0,0.9709,0.9179,0.9251,1.0009,1.1103,1.2345,1.3716,1.3894,1.3236,1.1917,1.1958,0.0,0.0,0.0,0.0,0.0,0.0,0.0,0.0,0.0,0.0,0.0,0.0,0.0,0.0,0.0,0.0,0.0,0.0,0.0,0.0,0.0,0.0,0.0,0.0,0.0,0.0,0.0,0.0,0.0,0.0,0.0,0.0,0.0,0.0,0.0,0.0,0.0,0.0,0.0,0.0,0.0,0.0,0.0,0.0,0.0,0.0,0.0,0.0,0.0,0.0,0.0,0.0,0.0,0.0,0.0,0.0,0.0,0.0,0.0,0.0,0.0,0.0,0.0,2.0719,2.1031,2.1057,2.188,2.1515,2.0265,2.0288,2.1447,2.2966,0.0,0.0,0.0,0.0,0.0,0.0,0.0,0.0,0.0,0.0,0.0,0.0,0.0,0.0,0.0,0.0,0.0,0.0,0.0,0.0,0.0,0.0,0.5263,0.5721,0.5717,0.7105,0.8095,0.8369,0.0,0.0,0.0,0.0,0.0,0.9793,0.9697,1.0042,1.0831,1.2265,1.3358,1.4114,1.4218,1.4133,1.391,1.3939,1.3415,1.255,0.0,0.0,0.0,0.0,0.0,0.0,0.0,0.0,0.0,0.0,0.0,0.0,0.0,0.0,0.0,0.0,0.0,0.0,0.0,0.0,0.0,0.0,0.0,0.0,0.0,0.0,0.0,0.0,0.0,0.0,0.0,0.0,0.0,0.0,0.0,0.0,0.0,0.0,0.0,0.0,0.0,1.4223,1.452,0.0,0.0,0.0,0.0,0.0,0.0,0.0,0.0,0.0,0.0,0.0,0.0,0.0,0.0,1.8627,2.1652,2.3246,2.3406,2.7027,2.8728,2.8773,2.9569,2.9828,2.9503,2.7247,0.0,2.1024,2.089,0.0,0.0,0.0,0.0,0.0,0.0,0.0,0.0,0.0,0.0,0.0,0.0,0.0,0.0,0.0,0.0,0.0,0.0,0.0,0.0,0.0,0.6478,0.758,0.8075,0.9262,1.0006,1.0037,0.9824,0.0,0.0,0.0,0.8575,0.9067,0.9504,1.08,1.296,1.4409,1.5681,1.6796,1.7329,1.769,1.7951,1.7792,1.633,1.3975,1.4217,0.0,0.0,0.0,0.0,0.0,0.0,0.0,0.0,0.0,0.0,0.0,0.0,0.0,0.0,0.0,0.0,0.0,0.0,0.0,0.0,0.0,0.0,0.0,0.0,0.0,0.0,0.0,0.0,0.0,0.0,0.0,0.0,0.0,0.0,0.0,0.0,0.0,0.0,0.0,1.4147,1.469,1.5053,1.4957,1.4453,0.0,0.0,0.0,0.0,0.0,0.0,0.0,0.0,0.0,1.9265,2.1558,2.2932,2.3298,2.6063,2.7477,2.7548,2.9391,3.0255,3.0265,3.0621,3.0541,3.0035,2.8883,2.7238,2.5353,2.4062,2.4086,2.4652,0.0,0.0,0.0,0.0,0.0,2.2585,0.0,0.0,0.0,0.0,0.0,0.0,0.0,0.0,0.0,0.0,0.0,0.0,0.6339,0.8081,0.9507,1.0175,1.1033,1.1359,1.0949,1.0184,0.9367,0.8483,0.772,0.7787,0.8812,0.9988,1.204,1.4999,1.6556,1.7967,1.9254,2.021,2.0817,2.1155,2.0947,1.8933,1.5666,1.589,1.5412,1.448,0.0,0.0,0.0,0.0,0.0,0.0,0.0,0.0,0.0,0.0,0.0,0.0,0.0,0.0,0.0,0.0,0.0,0.0,0.0,0.0,0.0,0.0,0.0,0.0,0.0,0.0,0.0,0.0,0.0,0.0,0.0,0.0,0.0,0.0,0.0,0.0,0.0,1.477,1.5442,1.5866,1.6176,1.5898,0.0,0.0,0.0,0.0,0.0,0.0,1.7958,1.9631,2.1062,2.2163,2.4965,2.6766,2.7391,2.9382,3.048,3.0608,3.0802,3.0997,3.1176,3.1177,3.0947,3.0559,3.0559,3.0574,3.0371,2.7329,2.6655,2.7399,2.6091,2.4931,2.3953,2.3793,2.4212,2.4837,0.0,0.0,0.0,0.0,0.0,0.0,0.0,0.0,0.0,0.0,0.0,0.7188,0.8074,0.9682,1.0746,1.0843,1.1654,1.1514,0.998,0.9885,0.9507,0.8619,0.7764,0.8062,0.9698,1.1909,1.41,1.6295,1.8296,1.966,2.0442,2.1565,2.2104,2.2132,2.2127,2.029,1.722,1.7867,1.6808,1.4685,1.475,0.0,0.0,0.0,0.0,0.0,0.0,0.0,0.0,0.0,0.0,0.0,0.0,0.0,0.0,0.0,0.0,0.0,0.0,0.0,0.0,0.0,0.0,0.0,0.0,0.0,0.0,0.0,0.0,0.0,0.0,0.0,0.0,0.0,0.0,0.0,0.0,0.0,0.0,1.7206,1.9584,0.0,0.0,0.0,0.0,1.9256,1.9287,2.0287,2.2448,2.3329,2.4861,2.7249,2.811,2.8868,2.9535,3.03,3.0939,3.1455,3.2146,3.2889,3.3615,3.3564,3.39,3.4499,3.4499,3.4481,3.4127,3.0479,2.9205,2.9388,2.7602,2.6549,2.5841,2.3995,2.4944,2.7121,0.0,0.0,0.0,0.0,0.0,0.0,0.0,0.0,0.4636,0.5605,0.6932,0.8299,0.963,1.1977,1.3603,1.4031,1.4845,1.4893,1.3803,1.2129,1.0845,1.0057,0.9264,1.0097,1.2781,1.4168,1.5844,1.7808,1.936,2.0419,2.1036,2.1833,2.2408,2.2791,2.2791,2.2356,2.1625,2.1005,1.9682,1.7952,1.7626,1.6342,0.0,0.0,0.0,0.0,0.0,0.0,0.0,0.0,0.0,0.0,0.0,0.0,0.0,0.0,0.0,0.0,0.0,0.0,0.0,0.0,0.0,0.0,0.0,0.0,0.0,0.0,0.0,0.0,0.0,0.0,0.0,0.0,0.0,0.0,0.0,0.0,0.0,1.8541,1.9594,0.0,1.9941,2.0623,2.113,2.1232,2.2793,2.4094,2.4924,2.5903,2.7059,2.8369,2.8852,2.9646,3.0793,3.1202,3.1712,3.2344,3.3135,3.3655,3.3933,3.4229,3.4497,3.4743,3.4743,3.4725,3.4601,3.3283,3.2682,3.2514,3.1711,3.1127,3.0649,2.9786,3.0091,3.0897,0.0,0.0,0.0,0.0,0.0,0.0,0.0,0.0,0.5183,0.644,0.8116,0.9867,1.1675,1.3842,1.5432,1.6083,1.6664,1.6411,1.5043,1.329,1.1673,1.0286,1.0336,1.1778,1.466,1.582,1.7236,1.8977,2.0408,2.1298,2.1644,2.243,2.3007,2.3392,2.3636,2.3902,2.4135,2.3383,2.2272,2.0933,2.0115,1.8133,1.5614,0.0,0.0,0.0,0.0,0.0,0.0,0.0,0.0,0.0,0.0,0.0,0.0,0.0,0.0,0.0,0.0,0.0,0.0,0.0,0.0,0.0,0.0,0.0,0.0,0.0,0.0,0.0,0.0,0.0,0.0,0.0,0.0,0.0,0.0,0.0,1.8763,1.9481,2.0509,2.119,2.1348,2.2087,2.2723,2.3171,2.4941,2.6108,2.6363,2.7243,2.8206,2.9139,2.9378,3.0163,3.1522,3.1693,3.2095,3.2674,3.322,3.3603,3.3879,3.4191,3.4056,3.3628,3.4464,3.4555,3.4142,3.4929,3.5092,3.4836,3.4341,3.4032,3.3822,3.3702,3.3654,3.3687,0.0,0.0,0.0,0.0,0.0,0.0,0.0,0.4992,0.6211,0.7941,0.9759,1.1779,1.4135,1.5214,1.6064,1.6806,1.6877,1.5846,1.3383,1.316,1.1962,0.9328,1.0943,1.2984,1.5252,1.6793,1.8274,1.9757,2.1425,2.2272,2.2326,2.3412,2.3962,2.3992,2.4666,2.4749,2.4461,2.4848,2.4425,2.3339,2.1942,1.9874,1.7406,0.0,0.0,0.0,0.0,0.0,0.0,0.0,0.0,0.0,0.0,0.0,0.0,0.0,0.0,0.0,0.0,0.0,0.0,0.0,0.0,0.0,0.0,0.0,0.0,0.0,0.0,0.0,0.0,0.0,0.0,0.0,0.0,0.0,1.5188,1.8257,2.0389,2.0061,2.2607,2.4224,2.3861,2.4663,2.5215,2.523,2.5646,2.6204,2.6918,2.7388,2.8319,2.9758,2.9774,3.0378,3.1669,3.1749,3.2001,3.2406,3.2451,3.2875,3.3637,3.3677,3.29,3.1735,3.4124,3.437,3.3208,3.542,3.631,3.618,3.5209,3.4871,3.4907,3.5031,3.5101,3.5136,0.0,0.0,0.0,0.0,0.0,0.0,0.4268,0.5035,0.6019,0.7181,0.9406,1.177,1.4089,1.6062,1.7505,1.8175,1.8693,1.8184,1.6338,1.4608,1.3133,1.1905,1.3503,1.5452,1.7691,1.8671,1.9753,2.0932,2.1399,2.1842,2.2232,2.2561,2.2932,2.3374,2.4005,2.4473,2.4887,2.5639,2.5495,2.4687,2.3658,2.1901,1.9829,0.0,0.0,0.0,0.0,0.0,0.0,0.0,0.0,0.0,0.0,0.0,0.0,0.0,0.0,0.0,0.0,0.0,0.0,0.0,0.0,0.0,0.0,0.0,0.0,0.0,0.0,0.0,0.0,0.0,0.0,0.0,0.0,1.8263,1.9078,2.0084,2.1273,2.277,2.3688,2.4294,2.4626,2.516,2.5651,2.6115,2.7244,2.7991,2.8198,2.7161,2.6942,2.7849,2.7403,2.7766,2.9093,3.0886,3.212,3.277,3.3297,3.3982,3.4767,3.515,3.5433,3.5661,3.648,3.6602,3.629,3.7009,3.7592,3.7845,3.6167,3.5218,3.4725,3.4409,3.4066,3.3499,0.0,0.0,0.0,0.0,0.0,0.0,0.43,0.5344,0.6472,0.7383,0.981,1.2297,1.456,1.6354,1.7886,1.9147,1.9474,1.8801,1.6983,1.4651,1.3925,1.5202,1.588,1.725,1.9459,2.0147,2.0767,2.1404,2.1632,2.1897,2.2197,2.2197,2.2482,2.3053,2.3712,2.4323,2.4935,2.5783,2.5911,2.5514,2.5005,2.3539,2.1675,2.1644,2.0287,1.8352,1.7918,1.7969,1.8019,1.6261,0.0,0.0,0.0,0.0,0.0,0.0,0.0,0.0,0.0,0.0,0.0,0.0,0.0,0.0,0.0,0.0,0.0,0.0,0.0,0.0,0.0,0.0,0.0,0.0,1.7936,1.9877,2.1517,2.1991,2.2606,2.3915,2.4764,2.5386,2.5711,2.6127,2.6534,2.6889,2.7824,2.8355,2.8355,2.7547,2.7016,2.6862,2.756,2.8057,2.8268,3.0782,3.2439,3.3236,3.3672,3.4298,3.5075,3.5404,3.5286,0.0,3.6116,3.6233,3.5734,3.6821,3.7691,0.0,0.0,0.0,0.0,0.0,3.5544,3.4885,0.0,0.0,0.0,0.0,0.0,0.0,0.4329,0.5705,0.7123,0.811,1.0465,1.2924,1.5201,1.6324,1.7698,1.9585,1.9355,1.817,1.5997,1.3981,1.4521,1.8183,1.7854,1.8561,2.0589,2.1164,2.1428,2.1428,2.1938,2.2154,2.2154,2.2197,2.2463,2.2939,2.3666,2.4266,2.4766,2.5522,2.5866,2.5893,2.5866,2.4784,2.3156,2.2963,2.1831,2.0194,1.9139,1.8496,1.7892,1.6305,0.0,0.0,0.0,0.0,0.0,0.0,0.0,0.0,0.0,0.0,0.0,0.0,0.0,0.0,0.0,0.0,0.0,0.0,0.0,0.0,0.0,0.0,0.0,0.0,1.9123,2.0566,2.2786,2.3593,2.4024,2.408,2.5617,2.6706,2.6763,2.7136,2.7426,2.7485,2.7849,2.8037,2.8037,0.0,0.0,0.0,0.0,2.9597,2.8465,3.1174,3.294,3.3699,3.3805,3.425,3.5047,3.5047,3.4023,3.2395,3.4656,3.4877,3.3776,3.5944,3.7278,3.7972,3.84,3.8847,3.9108,3.8227,3.7772,0.0,0.0,0.0,0.0,0.0,0.0,0.0,0.4392,0.5309,0.6622,0.8297,1.0056,1.2146,1.4736,1.6616,1.7993,1.8782,1.8185,1.6806,1.4544,1.4491,1.5375,1.7282,1.8374,1.952,2.0807,2.1367,2.1639,2.1639,2.1858,2.1968,2.1968,2.2123,2.2463,2.2939,2.3547,2.415,2.4738,2.5328,2.5702,2.5893,2.5784,2.539,2.4856,2.5199,2.4891,2.4158,2.3143,2.3006,2.2857,2.0143,1.9265,1.9222,1.8677,1.7823,0.0,0.0,0.0,0.0,0.0,0.0,0.0,0.0,0.0,0.0,0.0,0.0,0.0,0.0,0.0,0.0,0.0,0.0,0.0,1.918,2.0281,2.1506,2.2818,2.3535,2.4102,2.4586,2.534,2.6081,2.6652,2.6701,2.6919,2.7456,2.839,2.8954,2.8954,2.7637,0.0,2.7217,2.7624,2.7947,2.8187,3.1674,3.3531,3.3699,0.0,0.0,3.5954,3.5954,3.6106,3.6382,3.6996,3.7086,3.6848,3.7418,3.807,3.8632,3.81,3.7732,3.7232,3.5141,3.5317,3.6274,0.0,0.0,0.0,0.0,0.0,0.0,0.4512,0.5212,0.6095,0.7081,0.8984,1.1001,1.2988,1.4632,1.6068,1.7257,1.6411,1.5539,1.4934,1.5371,1.6606,1.8755,1.9783,2.0701,2.1527,2.1806,2.1949,2.1949,2.203,2.2061,2.2061,2.2154,2.2574,2.3275,2.4064,2.4845,2.561,2.634,2.6525,2.6357,2.6274,2.6005,2.5629,2.5852,2.576,2.5404,2.4784,2.4311,2.3726,2.1917,2.1015,2.0533,1.9864,1.8936,1.8049,0.0,0.0,0.0,0.0,0.0,0.0,0.0,0.0,0.0,0.0,0.0,0.0,0.0,0.0,1.6923,1.7171,0.0,1.8777,2.0245,2.0936,2.1758,2.3212,2.3875,2.4347,2.4715,2.551,2.6196,2.6555,2.7149,2.7637,2.7978,2.8806,2.9247,2.9155,2.8299,2.741,2.6523,2.8197,2.8726,2.7907,3.1382,3.3394,3.3906,3.42,3.4876,3.5799,3.5799,3.6032,3.6466,3.6508,3.6537,3.6537,3.6622,3.6858,3.715,3.7255,3.76,3.7911,3.6744,3.6738,3.7166,0.0,0.0,0.0,0.0,0.0,0.0,0.0,0.511,0.5638,0.6084,0.7876,0.9648,1.1061,1.2295,1.3624,1.5105,1.4749,1.4732,1.5436,1.6375,1.7994,2.0458,2.1029,2.1542,2.2092,2.2061,2.2061,2.2104,2.2123,2.2123,2.2123,2.2278,2.2805,2.3679,2.4661,2.5593,2.6477,2.7209,2.727,2.6793,2.6652,2.6343,2.5948,2.5948,2.5838,2.567,2.5426,2.4554,2.3415,2.2894,2.2082,2.1201,2.067,2.0113,1.9405,1.812,1.7599,0.0,0.0,0.0,0.0,0.0,0.0,0.0,0.0,1.7778,1.8297,1.711,1.7441,1.8128,1.8765,1.8816,1.9409,2.1521,2.1732,2.2158,2.3718,2.4266,2.4568,2.4806,2.5679,2.6328,2.6472,2.7465,2.8136,2.8298,2.8885,2.9204,2.9169,2.9233,2.8455,2.6688,2.9491,3.0208,2.8468,3.1387,3.3263,3.4091,3.4106,3.4568,3.5398,3.5499,3.5572,3.5572,3.5657,3.572,3.5704,3.5591,3.5556,3.5628,3.6354,3.7365,3.8454,3.8875,3.8777,3.8391,0.0,0.0,0.0,0.0,0.0,0.0,0.0,0.0,0.5339,0.709,0.7348,0.8096,0.9968,1.1295,1.2076,1.2102,1.4088,1.5054,1.4333,1.7282,1.9485,2.0482,2.0885,2.1309,2.1737,2.1569,2.1569,2.1761,2.1874,2.1925,2.1968,2.2543,2.3155,2.3826,2.4942,2.5858,2.6565,2.6548,2.6649,2.6736,2.6078,2.5936,2.6084,2.6084,2.6068,2.6021,2.5867,2.5117,2.4156,2.3893,2.2698,2.1122,2.0124,2.0002,1.9901,1.8331,1.8394,1.8519,1.6483,1.4651,1.3517,1.4353,1.6224,1.762,0.0,1.8871,2.0695,1.8902,1.9799,2.1098,2.1643,2.2128,2.2636,2.3409,2.351,2.3718,2.4338,2.4482,2.4675,2.5188,2.5355,2.5693,2.6348,2.6548,2.6913,2.7571,2.8214,2.8847,2.9424,2.9756,3.0019,3.0317,3.0931,3.1223,3.1174,3.2817,3.3819,3.412,3.4851,3.5276,3.5412,3.5888,3.6124,3.6156,3.659,3.6841,3.6779,3.6317,3.6108,3.609,3.5851,3.5761,3.6023,3.7838,3.8448,3.8391,0.0,0.0,0.0,0.0,0.0,0.0,0.0,0.0,0.0,0.5703,0.6159,0.6831,0.7961,0.9465,1.0018,0.9121,1.1466,1.3128,1.3446,1.6386,1.8985,2.0949,2.1749,2.2429,2.3015,2.2967,2.2786,2.2506,2.2919,2.2937,2.2628,2.325,2.3813,2.4379,2.5298,2.6048,2.6636,2.7055,2.7043,2.6793,2.6554,2.6272,2.5975,2.6056,2.5893,2.5523,2.5212,2.4259,0.0,2.3084,2.1973,2.0694,2.1126,2.0457,1.9472,1.9436,1.8146,1.666,1.6248,1.6366,1.6795,1.7687,1.9017,1.9971,1.9507,2.0806,2.1786,2.056,2.1378,2.239,2.2606,2.2504,2.2761,2.3998,2.3632,2.3587,2.4817,2.4975,2.5059,2.5288,2.4721,2.4415,2.469,2.5749,2.6342,2.6239,2.7558,2.8792,2.9747,2.9923,3.0228,3.0787,3.1308,3.1576,3.1604,3.2505,3.3081,3.3307,3.3553,3.3938,3.45,3.4709,3.5036,3.5448,3.5687,3.5942,3.6225,3.602,3.6099,3.6381,3.6383,3.6111,3.5794,3.6689,3.6948,3.6909,0.0,0.0,0.0,0.0,0.0,0.0,0.0,0.0,0.0,0.0,0.5141,0.5782,0.6419,0.7435,0.7907,0.7554,0.9684,1.17,1.3221,1.5958,1.8599,2.1055,2.1941,2.28,2.3744,2.3712,2.3573,2.3357,2.3787,2.3787,2.3344,2.3933,2.441,2.4835,2.5704,2.6294,2.6693,2.7284,2.7242,2.6793,2.6708,2.6299,2.5734,2.5814,2.523,2.4315,2.4126,2.3146,2.1889,2.1496,2.0773,2.011,2.0484,1.993,1.9161,1.9263,1.7294,1.5355,1.6618,1.7462,1.8317,1.9726,2.0607,2.1221,2.1472,2.2017,2.227,2.1739,2.2354,2.3059,2.3204,2.2887,2.306,2.4492,2.4004,2.3851,2.513,2.5312,2.5179,2.4871,2.399,2.3176,2.2572,2.4523,2.5807,2.574,2.7284,2.8655,2.964,2.9997,3.0406,3.1005,3.159,3.1893,3.1907,3.2247,3.249,3.271,3.2546,3.2836,3.3511,3.3634,3.4319,3.5395,3.5395,3.5872,3.6645,3.6473,3.666,3.7002,3.7047,3.6717,3.6185,3.6166,3.6005,3.5856,0.0,0.0,0.0,0.0,0.0,0.0,0.0,0.0,0.0,0.0,0.0,0.0,0.0,0.5335,0.586,0.8157,0.9748,1.1635,1.401,1.6743,1.8939,2.0455,2.0861,2.1705,2.3102,2.3,2.3272,2.3962,2.3992,2.3992,2.3992,2.4467,2.478,2.5032,2.6103,2.6665,2.6792,2.6835,2.6835,2.6764,2.616,2.5664,2.5225,2.5233,2.3952,2.2257,2.2701,2.207,2.0801,1.9249,1.9238,1.9459,1.6901,1.7787,1.9307,1.6931,1.5791,1.5778,1.8023,1.6913,1.5772,1.839,1.9422,2.0055,2.1146,2.1813,2.2199,2.2192,2.2606,2.3168,2.3685,2.4121,2.4614,2.5192,2.524,2.524,2.53,2.5312,2.4907,2.3793,2.3279,2.2223,0.0,2.2707,2.5127,2.672,2.7582,2.8273,2.89,2.9996,3.0949,3.1729,3.2042,3.2345,3.2676,3.2475,3.2511,3.2698,3.267,3.2696,3.2735,3.3264,3.467,3.663,3.663,3.7544,3.895,3.8435,3.823,3.8183,3.7478,3.7105,3.6951,3.6672,3.6242,3.5856,0.0,0.0,0.0,0.0,0.0,0.0,0.0,0.0,0.0,0.0,0.0,0.0,0.0,0.0,0.0,0.0,0.8314,1.0002,1.1766,1.4495,1.7114,1.948,2.0918,2.2333,2.3722,2.371,2.3594,2.3392,2.3838,2.3838,2.3419,2.4012,2.4539,2.5021,2.5392,2.5796,2.6202,2.6202,2.5964,2.5611,2.548,2.536,2.5043,2.3037,2.2209,2.1644,0.0,1.7379,1.7942,1.7444,1.712,1.7017,1.7575,1.7292,1.647,1.5045,1.565,1.7004,1.8077,1.8241,1.8552,2.0399,2.1126,2.1442,2.1831,2.2065,2.2197,2.2197,2.1886,2.1691,2.1891,2.1641,2.1859,2.3274,2.2844,2.3004,2.5033,2.3888,2.3441,2.5071,2.3749,0.0,0.0,0.0,0.0,2.4406,2.6551,2.827,2.9364,2.9656,3.0413,3.1759,3.175,3.2042,3.2704,3.2632,3.2632,3.2704,3.319,3.342,3.3468,3.453,3.5722,3.6927,3.7319,3.8277,3.9567,3.9512,3.9683,3.9913,3.934,3.8841,3.831,3.7822,3.7265,3.6685,0.0,0.0,0.0,0.0,0.0,0.0,0.0,0.0,0.0,0.0,0.0,0.0,0.0,0.0,0.0,0.0,0.0,0.8566,1.059,1.2402,1.4532,1.7072,1.8627,1.9929,2.0926,2.1652,2.2041,2.2183,2.2841,2.3217,2.3372,2.3627,2.4078,2.4683,2.4683,2.4894,2.5246,2.528,2.5066,2.4662,2.4192,2.39,2.3458,2.0654,1.9453,0.0,1.4979,1.4128,1.4812,1.4845,1.5064,1.5483,1.6313,1.5662,1.4685,1.5286,1.6147,1.7215,1.8694,1.937,2.0035,2.1562,2.2023,2.2092,2.2185,2.2197,2.2197,2.2197,2.1998,2.1572,2.0705,2.0619,2.107,2.2201,2.2191,2.2885,2.5246,2.4594,2.4268,2.5371,2.4193,2.4038,0.0,0.0,0.0,2.4503,2.6282,2.7726,2.865,2.8762,2.9478,3.0994,3.1355,3.1773,3.2354,3.2583,3.2704,3.2704,3.3185,3.3543,3.3783,3.4659,3.5507,3.6362,3.7178,3.8099,3.9005,3.9617,4.0179,4.0653,4.0021,3.9668,3.9387,3.8512,3.8196,3.8058,0.0,0.0,0.0,0.0,0.0,0.0,0.0,0.0,0.0,0.0,0.0,0.0,0.0,0.0,0.0,0.0,0.0,0.0,1.0367,1.0607,1.1517,1.3502,1.4394,1.4985,1.533,1.7129,1.8779,2.0176,2.0864,2.195,2.3374,2.2975,2.3142,2.3815,2.3815,2.3844,2.3865,2.3944,2.3925,2.3741,2.2189,2.1261,2.0505,1.8051,1.5902,1.4085,1.3188,1.2404,1.18,1.1724,1.3263,1.4938,1.347,1.3278,1.4216,1.7281,1.7156,1.6678,1.9726,2.0152,2.0093,2.1759,2.203,2.1956,2.2154,2.2197,2.2161,2.2084,2.2658,2.2423,1.9909,2.0747,2.1825,2.182,2.3047,2.4416,2.5717,2.6907,2.682,2.4677,2.4499,2.4289,2.3613,0.0,0.0,2.6838,0.0,2.6855,2.6986,2.7475,2.8352,2.9654,3.0796,3.1539,3.1796,3.2439,3.2739,3.2739,3.2767,3.3099,3.373,3.3785,3.4331,3.5284,3.6439,3.722,3.768,3.8894,3.9809,4.037,3.9531,3.9604,3.9997,3.8727,3.8907,3.9716,0.0,0.0,0.0,0.0,0.0,0.0,0.0,0.0,0.0,0.0,0.0,0.0,0.0,0.0,0.0,0.0,0.0,0.0,0.7244,0.8835,1.0441,1.2068,1.3282,1.4481,1.5642,1.6157,1.6264,1.5965,1.6729,1.7318,1.7703,1.818,1.9031,2.015,2.015,2.0432,2.0892,2.0971,2.0317,1.9254,1.8893,1.8329,1.7399,1.443,1.3731,1.3942,1.0796,1.0616,1.1868,1.1842,1.3305,1.5191,1.5471,1.5953,1.6402,1.6501,1.7597,1.8776,1.8715,1.9969,2.1416,2.1887,2.1925,2.1956,2.2154,2.2197,2.1801,2.035,1.939,1.8213,1.6187,1.5736,1.6408,1.8721,1.9415,2.0463,2.2715,2.3492,2.3942,2.434,2.5036,2.592,2.7053,2.7483,0.0,0.0,2.7615,2.8053,2.8079,2.8234,2.8714,2.9653,2.9999,3.0745,3.2015,3.2775,3.3136,3.3136,3.3583,3.389,3.4086,3.5069,3.5909,3.6729,3.7519,3.8157,3.8668,3.9133,3.9429,3.9516,3.935,3.944,3.9604,3.9018,3.9053,3.9379,0.0,0.0,0.0,0.0,0.0,0.0,0.0,0.0,0.0,0.0,0.0,0.0,0.0,0.0,0.0,0.0,0.0,0.0,0.0,0.7266,0.8296,0.9066,1.016,1.0934,1.1321,1.252,1.2861,1.2346,1.3782,1.4669,1.5002,1.561,1.6426,1.7393,1.7438,1.7649,1.8014,1.8099,1.76,0.0,0.0,1.5495,1.4805,1.1971,1.1498,1.1991,0.9421,0.9756,1.1669,1.3313,1.4394,1.5368,1.7233,1.7735,1.773,1.8255,1.9207,2.0086,2.0071,2.092,2.1902,2.2285,2.2103,2.1668,2.1036,2.1117,2.071,1.8461,1.7761,1.6814,1.4418,1.4255,1.5237,1.754,1.8878,2.0276,2.2122,2.3301,2.412,2.4408,2.5243,2.6517,2.8306,2.851,2.8243,0.0,2.7674,2.7746,2.7784,2.7746,2.8151,2.916,2.9523,3.0481,3.2074,3.2547,3.307,3.3697,3.4034,3.4483,3.5068,3.5756,3.6174,3.6378,0.0,3.7517,3.7368,3.8047,3.8483,3.874,3.8462,3.8566,3.8857,3.8297,3.8487,3.8953,0.0,0.0,0.0,0.0,0.0,0.0,0.0,0.0,0.0,0.0,0.0,0.0,0.0,0.0,0.0,0.0,0.0,0.0,0.0,0.0,0.593,0.5911,0.6589,0.6595,0.5819,0.8126,0.9292,0.9161,1.1226,1.2572,1.3191,1.3612,1.4179,1.4892,1.4936,1.5023,1.5148,1.5273,1.5179,1.4815,1.3433,1.2764,1.2356,0.0,0.9486,0.9472,0.897,0.966,1.1385,1.5239,1.5984,1.5814,1.8738,1.9093,1.8784,2.0707,2.0974,2.0883,2.1944,2.1942,2.1836,2.2603,2.2206,2.1315,1.9979,1.9924,1.9489,1.709,1.7101,1.6718,1.3976,1.473,1.6166,1.7333,1.9574,2.138,2.1965,2.4197,2.5383,2.4359,2.5265,2.6603,2.8318,2.8378,2.8366,2.8498,2.754,2.6992,2.7125,2.698,2.7432,2.8462,2.9289,3.0405,3.1928,3.2051,3.2813,3.4203,3.4287,3.4955,3.6103,3.6188,3.5934,3.5498,0.0,0.0,3.5508,3.6636,3.7473,3.7991,3.7335,3.7504,3.7993,3.7256,3.7648,3.8392,0.0,0.0,0.0,0.0,0.0,0.0,0.0,0.0,0.0,0.0,0.4818,0.4859,0.0,0.0,0.0,0.0,0.0,0.0,0.0,0.0,0.0,0.5948,0.6121,0.6387,0.6834,0.7262,0.7096,0.6313,0.7322,0.7841,0.7927,0.8659,0.9765,1.1148,1.1148,1.1527,1.2149,1.2297,1.1821,1.0977,1.0744,1.0125,0.926,0.8851,0.0,0.0,0.9939,1.0497,1.1385,1.5757,1.7078,1.7326,1.9732,2.0693,2.0792,1.9873,2.0515,2.1223,1.9965,2.0511,2.1486,2.1631,2.1552,2.159,2.2134,2.0776,1.9158,1.8303,1.6603,1.5069,1.4412,1.4772,1.5457,1.6381,1.7935,1.8684,1.7672,2.1565,2.4097,2.2982,2.5126,2.7177,2.839,2.7678,0.0,0.0,0.0,2.8207,2.8207,2.8207,2.83,2.8498,2.9289,3.0139,3.1119,3.1783,3.2813,3.4217,3.4745,3.5414,3.6131,3.6638,3.6768,3.6722,0.0,0.0,3.6708,3.6922,3.713,3.7271,3.7101,3.716,3.7334,3.7082,3.7163,3.7359,0.0,0.0,0.0,0.0,0.0,0.0,0.0,0.51,0.4853,0.4844,0.4884,0.4909,0.4907,0.4895,0.49,0.0,0.0,0.0,0.0,0.0,0.0,0.0,0.5356,0.5516,0.5843,0.6193,0.5916,0.4971,0.0,0.6474,0.604,0.6859,0.7887,0.9048,0.9047,0.9494,1.0256,1.0318,0.9985,0.9427,0.9463,0.9077,0.8502,0.8502,0.0,0.0,1.0219,1.0748,1.1293,1.489,1.6084,1.6712,2.0531,2.1941,2.1881,2.0462,2.1109,2.1965,2.0282,2.0582,2.1521,2.196,2.1799,2.13,2.0268,1.9421,1.8141,1.5671,1.4506,1.3744,1.32,1.3312,1.4271,1.6638,1.7739,1.8551,1.9249,2.1715,2.3455,2.3514,2.4953,2.6287,2.7152,2.6728,2.6607,2.7212,0.0,2.7555,2.8462,2.851,2.851,2.851,2.8882,2.9665,3.0895,3.1596,3.2898,3.4716,3.5372,3.5991,3.6595,3.6852,3.6978,3.6978,3.6978,0.0,3.6117,3.6764,3.6646,3.618,3.6767,3.7059,3.7096,3.7009,3.7013,3.7054,0.0,0.0,0.0,0.0,0.0,0.0,0.0,0.4862,0.4904,0.4907,0.4917,0.4827,0.4592,0.4754,0.4906,0.0,0.0,0.0,0.0,0.0,0.0,0.0,0.0,0.0,0.4717,0.0,0.0,0.4412,0.5637,0.0,0.0,0.0,0.0,0.0,0.7935,0.8459,0.9241,0.9211,0.9078,0.0,0.0,0.8731,0.0,0.0,0.0,0.0,0.0,1.0633,1.1131,1.3735,1.4707,1.5639,2.0352,2.1695,2.1443,2.1041,2.15,2.1989,2.1236,2.1199,2.1556,2.2232,2.1961,2.0932,1.869,1.8134,1.7153,1.3851,1.3266,1.3191,1.269,1.2633,1.376,1.7059,1.7374,1.8216,2.1133,2.1882,2.2757,2.4425,2.5044,2.5665,2.6539,2.6307,0.0,2.6755,0.0,0.0,2.841,2.851,2.851,2.851,2.851,2.9184,3.0632,3.1419,3.2852,3.4952,3.5733,3.6427,3.6978,3.6978,3.6978,3.6978,3.6978,0.0,0.0,3.6511,3.63,3.5316,3.6539,3.6978,3.6978,3.6978,3.6978,3.6978,0.0,0.0,0.0,0.0,0.0,0.0,0.0,0.4892,0.4907,0.4907,0.4951,0.4592,0.3553,0.4309,0.4908,0.0,0.0,0.0,0.0,0.0,0.0,0.0,0.0,0.0,0.0,0.0,0.0,0.4488,0.4635,0.0,0.0,0.0,0.0,0.0,0.0,0.8518,0.9378,0.9258,0.0,0.0,0.0,0.0,0.0,0.0,0.0,0.0,0.0,1.0068,1.0842,1.2999,1.4081,1.5066,1.811,1.8447,1.817,2.0562,2.0526,2.0103,2.1939,2.1918,2.1431,2.1509,2.1241,2.0952,2.0785,1.8653,1.6682,1.665,1.5136,1.4116,1.5001,1.4782,1.5084,1.7015,1.5618,1.5561,1.923,2.0093,2.1521,2.4664,2.5631,2.6611,2.8138,2.7378,2.7414,0.0,0.0,0.0,2.8522,2.851,2.851,2.851,2.851,2.8922,2.9819,3.1112,3.2585,3.4134,3.5453,3.6427,3.6978,3.6978,3.6978,3.6978,0.0,0.0,0.0,3.6511,3.63,3.5316,3.6539,3.6978,3.6978,3.6978,3.6978,3.6978,0.0,0.0,0.0,0.0,0.0,0.0,0.4894,0.4936,0.4967,0.4964,0.438,0.4067,0.4307,0.4709,0.4942,0.4898,0.0,0.0,0.0,0.0,0.0,0.0,0.0,0.0,0.0,0.0,0.4642,0.4614,0.4579,0.0,0.0,0.0,0.0,0.0,0.0,0.8501,0.9325,0.9199,0.0,0.0,0.0,0.0,0.0,0.0,0.0,0.0,0.0,0.0,1.0833,1.1869,1.27,1.3504,1.4769,1.504,1.5471,1.8242,1.9764,2.0514,2.041,2.1234,2.2072,2.188,2.1811,2.1323,1.9465,1.8204,1.7015,1.5691,1.4541,1.3835,1.4016,1.3585,1.3738,1.5451,1.4642,1.532,1.9713,2.0335,2.1755,2.5607,2.6357,2.6719,0.0,0.0,2.7193,0.0,0.0,0.0,2.8943,2.8691,2.851,2.851,2.851,2.9106,3.0405,3.1746,3.3175,3.4728,3.6035,3.6754,3.6978,3.6978,3.6978,3.6978,0.0,0.0,0.0,3.6178,3.5826,3.4239,3.622,3.6978,3.6978,3.6978,3.6978,3.6978,0.0,0.0,0.0,0.0,0.0,0.491,0.4925,0.4979,0.5016,0.5033,0.4324,0.4135,0.492,0.4992,0.4982,0.4931,0.4939,0.0,0.0,0.0,0.0,0.0,0.0,0.0,0.0,0.0,0.4726,0.4702,0.49,0.527,0.0,0.0,0.7073,0.8202,0.0,0.0,0.0,0.0,0.0,0.0,0.0,0.0,0.0,0.0,0.0,0.0,0.0,0.0,0.0,0.0,0.0,1.2523,1.2806,1.3082,1.3863,1.6687,1.8861,2.0257,1.9693,2.091,2.2246,2.2018,2.1741,2.086,1.8423,1.7615,1.6777,1.4724,1.4144,1.3868,1.3348,1.2759,1.2886,1.4548,1.4302,1.528,1.9209,1.9848,2.1336,2.5148,2.584,2.6219,0.0,2.7388,2.7948,0.0,0.0,0.0,0.0,2.9112,2.8667,2.8522,2.851,2.9028,3.019,3.1941,3.3391,3.4503,3.6196,3.6894,3.6764,3.6908,3.688,3.6764,0.0,0.0,0.0,3.6121,3.5756,3.407,3.6164,3.6978,3.6978,3.6978,3.6978,3.6978,0.0,0.0,0.0,0.0,0.0,0.0,0.4985,0.4997,0.5028,0.5093,0.5093,0.5053,0.5008,0.5006,0.5005,0.4992,0.4999,0.0,0.0,0.0,0.0,0.0,0.0,0.0,0.0,0.0,0.4769,0.4708,0.5488,0.586,0.584,0.7427,0.8179,0.8223,0.0,0.0,0.0,0.0,0.0,0.0,0.0,0.0,0.0,0.0,0.0,0.0,0.0,0.0,0.0,0.0,0.0,0.0,0.0,1.3103,1.3661,1.6479,1.7743,1.8645,2.0572,2.1342,2.1605,2.1605,2.0512,1.9225,1.8464,1.7057,1.5613,1.4528,1.4572,1.4529,1.3749,1.3091,1.3213,1.4833,1.4699,1.5011,1.6783,1.7884,1.9637,2.2685,2.3501,2.5125,2.8357,2.952,0.0,0.0,0.0,0.0,0.0,2.9857,2.9051,2.8522,2.851,2.851,2.851,3.1366,3.2791,3.2843,3.5664,3.6708,3.6131,3.675,3.6694,0.0,0.0,0.0,0.0,3.6511,3.6286,3.5287,3.6539,3.6978,3.6978,3.6978,3.6978,3.6978,0.0,0.0,0.0,0.0,0.0,0.0,0.0,0.5003,0.5021,0.5084,0.51,0.5083,0.5066,0.5036,0.4998,0.5,0.4991,0.0,0.0,0.0,0.0,0.0,0.0,0.0,0.0,0.0,0.5705,0.5582,0.6387,0.7051,0.7593,0.7912,0.8425,0.9092,0.9163,0.9248,0.0,0.0,0.0,0.0,0.0,0.0,0.0,0.0,0.0,0.0,0.0,0.0,0.0,0.0,0.0,0.0,0.0,0.0,0.0,1.397,1.5535,1.7062,1.7539,1.89,2.0001,1.9254,1.9025,1.8584,1.7021,1.6363,1.5761,1.4561,1.4381,1.427,1.3648,1.3226,1.3416,1.4738,1.4755,1.5717,1.8945,1.9953,2.159,2.4922,2.6308,2.7692,0.0,0.0,0.0,0.0,0.0,0.0,0.0,3.0218,2.9593,2.9063,2.8703,2.8776,2.9328,3.0996,3.2422,3.3636,3.5297,3.6097,3.6131,3.6736,0.0,0.0,0.0,0.0,0.0,3.6511,3.63,3.5316,3.6539,3.6978,3.6978,3.6978,3.6978,3.6978,0.0,0.0,0.0,0.0,0.0,0.0,0.0,0.4977,0.5019,0.5056,0.5069,0.5058,0.5065,0.5029,0.4986,0.4954,0.498,0.0,0.0,0.0,0.0,0.0,0.0,0.0,0.549,0.6285,0.6483,0.6071,0.6859,0.7464,0.7918,0.8049,0.8576,0.9381,0.9274,0.9253,0.0,0.0,0.0,0.0,0.0,0.0,0.8592,0.0,0.0,0.0,0.0,0.0,0.0,0.0,0.0,0.0,0.0,0.0,0.0,0.0,1.3423,1.5134,1.5797,1.7455,1.8848,1.8113,1.7893,1.7557,1.6386,1.587,1.5416,1.461,1.4545,1.4483,1.3931,1.3556,1.3441,1.3784,1.4992,1.6314,1.7436,1.9349,2.1634,2.4375,2.6575,0.0,0.0,0.0,0.0,0.0,0.0,0.0,0.0,3.0675,3.0146,2.9617,2.9192,2.9172,2.9704,3.1498,3.2935,3.402,3.5507,3.605,3.5794,3.6638,0.0,0.0,0.0,0.0,0.0,3.6708,3.6581,3.5949,3.6722,3.6978,3.6978,3.6978,3.6978,3.6978,0.0,0.0,0.0,0.0,0.0,0.0,0.0,0.4939,0.4982,0.4986,0.4993,0.4991,0.499,0.5002,0.4969,0.4906,0.0,0.0,0.0,0.0,0.0,0.0,0.0,0.0,0.6384,0.7181,0.7191,0.6375,0.7108,0.7378,0.7207,0.7939,0.8588,0.9133,0.9191,0.9207,0.9217,0.0,0.0,0.0,0.0,0.0,0.0,0.0,0.0,0.0,0.0,0.0,0.0,0.0,0.0,0.0,0.0,0.0,0.0,0.0,0.0,0.0,0.0,1.6694,1.7794,1.774,1.6889,1.6123,1.6288,1.5433,0.0,1.4629,1.4897,1.4973,1.4428,1.4093,1.3523,1.2453,1.5459,1.6838,1.3738,1.7244,2.0592,0.0,2.4942,0.0,0.0,0.0,0.0,0.0,0.0,0.0,0.0,3.1243,3.0755,3.0182,3.0015,2.9819,2.9626,3.247,3.3865,3.3876,3.5881,3.6238,3.5161,3.6399,0.0,0.0,0.0,0.0,0.0,3.6978,3.6978,3.6978,3.6978,3.6978,3.6978,3.6978,3.6978,3.6978,0.0,0.0,0.0,0.0,0.0,0.0,0.0,0.0,0.0,0.0,0.4916,0.4916,0.492,0.4916,0.4919,0.0,0.0,0.0,0.0,0.0,0.0,0.0,0.0,0.0,0.72,0.8055,0.8339,0.8045,0.8783,0.8779,0.8087,0.8122,0.8253,0.8443,0.8391,0.8753,0.9347,0.9231,0.0,0.0,0.0,0.0,0.0,0.0,0.0,0.0,0.8502,0.9442,0.0,0.0,0.0,0.0,0.0,0.0,0.0,0.0,1.1786,1.2086,1.356,0.0,1.4266,1.4744,1.4476,1.4143,0.0,1.418,1.3942,1.3932,1.4241,1.4357,1.3813,1.4794,1.5292,1.4128,1.631,1.813,1.8147,2.1686,0.0,2.2506,2.579,2.8145,0.0,0.0,0.0,0.0,0.0,0.0,0.0,3.181,3.1634,3.1058,3.1798,3.1111,2.8816,3.1537,3.2736,3.2352,3.4302,3.4944,3.4492,3.5728,0.0,0.0,0.0,0.0,3.6978,3.6978,3.6978,3.6978,3.6978,3.6978,3.6978,3.6978,3.6978,3.6978,0.0,0.0,0.0,0.0,0.0,0.0,0.0,0.0,0.0,0.0,0.0,0.4897,0.4896,0.4895,0.0,0.0,0.0,0.0,0.0,0.0,0.0,0.0,0.0,0.7234,0.8042,0.8909,0.932,0.9251,0.9607,0.9708,0.9533,0.9081,0.9034,0.9282,0.8877,0.8957,0.9394,0.9324,0.9204,0.0,0.8936,0.0,0.0,0.0,0.0,0.0,0.884,0.9688,0.0,1.1035,1.1806,1.2585,0.0,0.0,0.0,0.0,1.1684,1.2112,1.2578,1.3035,1.3657,1.4877,1.435,1.3814,1.4858,1.4095,1.3428,1.4254,1.4098,1.3896,1.418,1.4815,1.5297,1.5279,1.7021,1.9208,2.1591,2.3147,2.4004,2.3897,2.5542,0.0,0.0,0.0,0.0,0.0,0.0,0.0,0.0,3.2704,3.2373,3.1915,3.2837,3.2342,3.0152,3.2571,3.349,3.2922,3.455,3.4927,3.4245,3.5503,0.0,0.0,0.0,0.0,3.6964,3.6722,3.6764,3.6978,3.6978,3.6978,3.6978,3.6978,3.6978,3.6978,0.0,0.0,0.0,0.0,0.0,0.0,0.0,0.0,0.0,0.0,0.0,0.0,0.0,0.0,0.0,0.0,0.0,0.0,0.0,0.0,0.0,0.0,0.7286,0.8064,0.8878,0.9627,1.0003,1.0003,0.9928,1.0125,1.0517,0.9879,0.9816,1.0217,0.9658,0.9403,0.9412,0.9353,0.9211,0.9005,0.8968,0.0,0.0,0.0,0.0,0.0,0.0,0.0,0.0,1.1455,1.2118,1.2597,1.2288,0.0,0.0,0.0,0.0,0.0,1.1938,1.2731,1.4055,1.5994,1.5077,1.4148,1.5875,1.4428,1.3248,1.5038,1.4453,1.3933,1.5023,1.5198,1.5404,1.6055,1.7863,0.0,2.3826,2.3575,2.3647,2.5329,2.5545,0.0,0.0,0.0,0.0,0.0,0.0,0.0,0.0,3.3733,3.3219,3.2791,3.3582,3.3482,3.2282,3.4116,3.4652,3.3882,3.5199,3.5194,3.4104,3.5363,3.5681,0.0,0.0,0.0,3.695,3.6469,3.6553,3.6978,3.6978,3.6978,3.6978,3.6978,3.6978,3.6978,0.0,0.0,0.0,0.0,0.0,0.0,0.0,0.0,0.0,0.0,0.0,0.0,0.0,0.0,0.0,0.0,0.0,0.0,0.0,0.0,0.0,0.8251,0.8438,0.8914,0.9776,0.9938,1.0001,1.0001,0.9926,0.9544,0.8866,0.8702,0.8621,0.8681,0.9176,0.9435,0.947,0.9176,0.9076,0.9054,0.8778,0.0,0.0,0.0,0.0,0.0,0.0,0.0,0.0,1.1454,1.22,1.2704,1.1878,0.0,0.0,0.0,0.0,0.0,1.1496,1.2102,1.2661,1.495,1.4568,1.3806,1.4571,1.4026,1.3836,1.5545,1.5686,1.5525,1.5664,1.8157,1.9264,1.6409,1.9294,2.2363,0.0,0.0,2.6879,2.5817,0.0,0.0,0.0,0.0,0.0,0.0,0.0,0.0,0.0,0.0,3.4781,3.3648,3.4499,3.4365,3.3136,3.3942,3.3704,3.2454,3.3815,3.4104,3.3473,3.4767,3.5287,0.0,0.0,3.6894,3.6978,3.688,3.6908,3.6978,3.6978,3.6978,3.6978,3.6978,3.6978,3.6978,0.0,0.0,0.0,0.0,0.0,0.0,0.0,0.0,0.0,0.0,0.0,0.0,0.0,0.0,0.0,0.0,0.0,0.0,0.0,0.0,0.7378,0.8585,0.9104,0.9533,0.9945,0.9954,1.0186,1.0643,1.0574,1.0551,1.0549,1.0455,1.0133,0.9661,0.9974,0.9879,0.9496,0.9336,0.92,0.9081,0.0,0.0,0.0,0.0,0.0,0.0,0.0,0.0,0.0,0.0,1.1948,1.2085,1.1061,0.0,0.0,0.0,0.0,0.0,1.1247,1.2237,1.3473,1.5551,1.5058,1.4719,1.72,1.5513,1.4416,1.7838,1.6143,1.479,1.7152,1.8419,1.931,1.9992,0.0,2.5682,2.6779,2.7297,2.7746,0.0,0.0,0.0,0.0,0.0,0.0,0.0,0.0,0.0,0.0,0.0,3.4969,3.4564,3.4631,3.4225,3.329,3.3894,3.3701,3.2753,3.4122,3.4239,3.3333,3.4978,3.5513,3.5245,0.0,3.6722,3.695,3.6666,3.6722,3.6978,3.6978,3.6978,3.6978,3.6978,3.6978,3.6978,0.0,0.0,0.0,0.0,0.0,0.0,0.0,0.0,0.0,0.0,0.0,0.0,0.0,0.0,0.0,0.0,0.0,0.0,0.0,0.7247,0.806,0.8861,0.9536,0.9893,0.9893,0.992,1.0241,1.0869,1.0841,1.1213,1.1934,1.1622,1.1237,1.0763,1.0517,1.0055,0.95,0.9399,0.9247,0.9073,0.0,0.0,0.0,0.0,0.0,0.0,0.0,0.0,0.0,0.0,0.0,0.0,0.0,0.0,0.0,0.9305,0.991,1.0757,1.088,1.2159,1.3899,1.5709,1.5356,1.5618,1.9653,1.6987,1.5052,2.0012,1.7292,1.5192,1.9052,1.8961,1.9591,2.3515,2.6014,2.8077,2.9797,2.8897,0.0,0.0,0.0,0.0,0.0,0.0,0.0,0.0,0.0,0.0,0.0,0.0,3.4875,3.4955,3.4478,3.3908,3.329,3.3894,3.3894,3.334,3.4598,3.4542,3.3347,3.5236,3.5766,3.5231,3.5991,3.6581,3.695,3.6511,3.6595,3.6978,3.6978,3.6978,3.6978,3.6978,3.6978,3.6978,0.0,0.0,0.0,0.0,0.0,0.0,0.0,0.0,0.0,0.0,0.0,0.0,0.0,0.0,0.0,0.0,0.0,0.0,0.0,0.8116,0.8961,0.9774,0.9871,0.9893,0.9893,0.9965,0.9967,0.9894,0.9951,1.0301,1.089,1.0063,1.0055,1.0661,0.9855,0.9502,0.9483,0.9093,0.8967,0.8976,0.8732,0.0,0.0,0.0,0.0,0.0,0.0,0.0,0.0,0.0,0.0,0.0,0.0,0.0,0.9039,0.8388,0.8309,0.8766,1.0234,1.122,1.2307,1.4108,1.4665,1.5775,1.9546,1.732,1.5859,2.0947,2.0147,1.918,2.1307,2.1622,2.2431,2.5125,2.6228,2.7861,3.0916,0.0,0.0,0.0,0.0,0.0,0.0,0.0,0.0,0.0,0.0,0.0,0.0,0.0,0.0,3.4287,3.4231,3.3908,3.329,3.3894,3.3894,3.334,3.4598,3.4542,3.3347,3.5236,3.5766,3.5245,3.6441,3.695,3.6978,3.6936,3.695,3.6978,3.6978,3.6978,3.6978,3.6978,3.6978,3.6978,0.0,0.0,0.0,0.0,0.0,0.0,0.0,0.0,0.0,0.0,0.0,0.0,0.0,0.0,0.0,0.0,0.0,0.0,0.0,0.8481,0.9015,0.9852,0.99,0.99,0.9893,0.9926,0.9897,0.9799,0.9738,1.0089,1.079,1.0426,1.0403,1.0656,0.9839,0.9457,0.9399,0.8735,0.8692,0.9054,0.8958,0.902,0.0,0.0,0.0,0.0,0.0,0.0,0.0,0.0,0.9856,0.9684,0.8688,0.8652,0.8884,0.8425,0.8804,0.9571,1.0479,1.1488,1.3053,1.6332,1.5839,1.5594,1.9568,1.8525,1.8295,2.3719,2.1433,1.8782,1.9884,2.2081,2.4142,2.5473,2.7286,2.9185,0.0,0.0,0.0,0.0,0.0,0.0,0.0,0.0,0.0,0.0,0.0,0.0,0.0,0.0,0.0,3.4217,3.3838,3.3515,3.329,3.4309,3.4506,3.3866,3.5138,3.4885,3.3361,3.5616,3.6131,3.5259,3.6497,3.6978,3.6978,3.6978,3.6978,3.6978,3.6978,3.6978,3.6978,3.6978,3.6978,3.6978,0.0,0.0,0.0,0.0,0.0,0.0,0.0,0.0,0.0,0.0,0.0,0.0,0.0,0.0,0.0,0.0,0.0,0.0,0.8593,0.8878,0.9278,0.9871,0.991,1.0016,1.0273,1.0016,0.9844,0.9774,0.9892,1.0221,1.0772,1.0979,1.0922,1.0653,1.0346,1.0026,0.971,0.9075,0.9044,0.942,0.9121,0.9055,0.0,0.0,0.0,0.0,0.0,0.0,0.0,0.0,0.9186,0.9267,0.8499,0.8719,0.9237,0.8998,0.9628,1.0481,1.0936,1.1925,1.3651,1.699,1.607,1.5589,2.0194,1.9542,1.9375,2.4358,2.2972,2.0896,2.1066,2.3304,2.5272,0.0,2.7673,0.0,0.0,0.0,0.0,0.0,0.0,0.0,0.0,0.0,0.0,0.0,0.0,0.0,0.0,0.0,0.0,0.0,3.3515,3.329,3.329,3.457,3.4843,3.4217,3.5672,3.5489,3.3972,3.6037,3.6469,3.5541,3.6581,3.6978,3.6978,3.6978,3.6978,3.6978,3.6978,3.707,3.7187,3.707,3.7173,3.7327,0.0,0.0,0.0,0.0,0.0,0.0,0.0,0.0,0.0,0.0,0.0,0.0,0.0,0.0,0.0,0.0,0.0,0.0,0.8609,0.9426,0.9893,0.9893,0.9897,1.0276,1.107,1.0232,0.9771,0.9706,1.0361,1.0698,1.0715,1.1494,1.1412,1.0622,1.1374,1.1244,1.0466,1.0221,1.0146,1.0117,0.9167,0.9113,0.9595,0.0,0.0,0.0,0.0,0.0,0.0,0.0,0.8738,0.9331,0.8938,0.9413,1.0103,1.0115,1.054,1.1095,1.1502,1.2482,1.3767,1.5336,1.5017,1.5824,2.1557,2.0133,1.8663,2.2277,2.5037,2.6563,2.5825,2.5704,2.594,2.6596,0.0,0.0,0.0,0.0,0.0,0.0,0.0,0.0,0.0,0.0,0.0,0.0,0.0,0.0,0.0,0.0,0.0,0.0,3.329,3.329,3.329,3.457,3.488,3.4231,3.6107,3.6385,3.5231,3.6469,3.6694,3.6131,3.6764,3.6978,3.6978,3.6978,3.6978,3.6978,3.6978,3.7264,3.7534,3.7148,3.7519,3.8089,0.0,0.0,0.0,0.0,0.0,0.0,0.0,0.0,0.0,0.0,0.0,0.0,0.0,0.0,0.0,0.0,0.0,0.0,0.9486,0.9755,0.9893,0.9893,0.9803,0.9896,1.0176,0.9839,0.9677,0.9699,0.9807,0.9852,0.9866,1.0105,1.0013,0.9739,1.1152,1.0926,0.958,1.0591,1.0346,0.9253,0.8831,0.8813,0.9027,0.0,0.0,0.0,0.0,0.0,0.0,0.0,0.0,0.0,0.9764,1.0208,1.0564,1.0747,1.1234,1.1845,1.254,1.3024,1.3895,1.6306,1.6684,1.7044,1.9182,1.9656,2.0564,2.3879,2.5368,2.5715,2.4513,2.6217,0.0,2.6819,0.0,0.0,0.0,0.0,0.0,0.0,0.0,0.0,0.0,0.0,0.0,0.0,0.0,0.0,0.0,0.0,0.0,0.0,3.329,3.329,3.329,3.457,3.5105,3.4936,3.6318,3.6385,3.5231,3.6469,3.6694,3.6131,3.6764,3.6978,3.6978,3.6978,3.6978,3.6978,3.6978,3.7264,3.7586,3.7457,3.7763,3.8165,0.0,0.0,0.0,0.0,0.0,0.0,0.0,0.0,0.0,0.0,0.6617,0.6953,0.0,0.0,0.0,0.0,0.0,0.0,0.0,0.9893,0.9884,0.986,0.9766,0.9699,0.9721,0.9661,0.9627,0.9621,0.985,0.9816,0.9505,1.0127,1.0021,0.9378,1.0945,1.0883,0.9676,1.0472,1.0248,0.9291,0.8794,0.8604,0.8602,0.0,0.0,0.0,0.0,0.0,0.0,0.0,0.0,0.0,1.0463,1.0992,1.153,1.1616,1.2094,1.292,1.4385,1.4914,1.5845,1.9209,1.8941,1.8209,1.9681,2.0597,2.2248,2.5964,2.6854,2.6757,2.6092,2.7629,0.0,0.0,0.0,0.0,0.0,0.0,0.0,0.0,0.0,0.0,0.0,0.0,0.0,0.0,0.0,0.0,0.0,0.0,0.0,0.0,3.329,3.329,3.329,3.4295,3.495,3.5203,3.6188,3.6399,3.5949,3.6694,3.6782,3.6497,3.6824,3.6978,3.6978,3.6978,3.6978,3.7017,3.7187,3.7495,3.7839,3.7839,3.8202,3.8612,0.0,0.0,0.0,0.0,0.0,0.0,0.0,0.0,0.0,0.0,0.7509,0.7848,0.0,0.0,0.0,0.0,0.0,0.0,0.0,0.9893,0.9866,0.9809,0.9735,0.9658,0.9578,0.9574,0.9548,0.9504,1.0155,1.0146,0.9524,1.0934,1.0775,0.9364,1.0866,1.1058,1.0265,1.0176,1.0034,0.9824,0.9013,0.8579,0.8437,0.8624,0.0,0.0,0.0,0.0,0.0,0.0,0.0,0.0,1.1107,1.1713,1.2578,1.2548,1.3126,1.4257,1.66,1.7443,1.8612,2.252,2.1018,1.9377,2.2472,2.2914,2.3886,2.8196,2.8771,2.8654,2.9289,2.9383,2.9383,0.0,0.0,0.0,0.0,0.0,0.0,0.0,0.0,0.0,0.0,0.0,0.0,0.0,0.0,0.0,0.0,0.0,0.0,0.0,3.329,3.329,3.329,3.3894,3.4548,0.0,3.5808,3.6427,3.6978,3.6978,3.6978,3.6978,3.6978,3.6978,3.6978,3.6978,3.7017,3.7109,3.7457,3.7877,3.824,3.824,3.8738,3.9301,0.0,0.0,0.0,0.0,0.0,0.0,0.0,0.0,0.0,0.0,0.0,0.0,0.0,0.0,0.0,0.0,0.0,0.0,0.0,0.9893,0.9866,0.9809,0.968,0.9564,0.9448,0.8896,0.8898,0.9504,0.9038,0.9057,0.9514,0.983,0.9712,0.9324,1.1523,1.1286,0.9344,1.1117,1.0774,0.9071,0.9301,0.9361,0.9375,0.9931,1.0222,0.0,0.0,0.0,0.0,0.0,0.0,0.0,1.1907,1.1948,1.1903,1.2671,1.4188,1.5866,1.7049,1.7397,1.7707,1.874,1.9061,2.0599,2.626,2.6895,2.6811,2.8711,2.7844,2.7322,2.9229,2.9352,0.0,0.0,0.0,0.0,0.0,0.0,0.0,0.0,0.0,0.0,0.0,0.0,0.0,0.0,0.0,0.0,0.0,0.0,0.0,3.329,3.329,3.329,3.329,3.3894,3.4548,0.0,3.5808,3.6427,3.6978,3.6978,3.6978,3.6978,3.6978,3.6978,3.6978,3.6978,3.7187,3.7457,3.7586,3.8052,3.8671,3.8671,3.8995,3.9388,0.0,0.0,0.0,0.0,0.0,0.0,0.0,0.0,0.0,0.0,0.0,0.0,0.0,0.0,0.0,0.0,0.0,0.0,0.0,0.0,0.9812,0.9706,0.9567,0.9492,0.9444,0.8702,0.8686,0.9504,0.8691,0.8709,0.95,0.9399,0.9321,0.929,1.0423,1.0204,0.9093,1.05,1.0383,0.929,0.9884,1.012,1.0115,1.0509,1.0833,1.1065,1.0998,0.0,0.0,0.0,0.0,0.0,0.0,0.0,1.2003,1.2663,1.3833,1.5272,1.6949,1.8213,1.9398,2.0677,2.2412,2.45,2.7134,2.8238,2.8855,2.9468,2.8755,2.8344,2.9282,2.9293,0.0,0.0,0.0,0.0,0.0,0.0,0.0,0.0,0.0,0.0,0.0,0.0,0.0,0.0,0.0,0.0,0.0,3.3241,3.329,3.329,3.3542,3.3722,3.3791,3.449,3.5243,3.5953,3.6223,3.6593,3.7063,3.7031,3.7003,3.7063,3.7007,3.7109,3.7303,3.7303,3.7534,3.7915,3.8089,3.8427,3.8819,3.9017,3.9228,3.9388,0.0,0.0,0.0,0.0,0.0,0.0,0.0,0.0,0.0,0.0,0.0,0.0,0.0,0.0,0.0,0.0,0.0,0.0,0.0,0.0,0.0,0.9599,0.9618,0.9583,0.9479,0.884,0.8834,0.9504,0.8679,0.891,1.0105,0.993,0.9951,1.0115,0.9847,0.9623,0.9452,0.9778,0.99,0.9931,1.0626,1.0857,1.0801,1.0954,1.1323,1.1748,1.1641,1.1926,1.2333,1.2282,0.0,0.0,0.0,0.0,1.2215,1.2517,1.3193,1.4342,1.6563,1.8898,2.1333,2.3856,2.6055,2.7469,2.6998,2.8312,2.9756,3.0101,3.008,2.9896,2.9512,0.0,0.0,0.0,0.0,0.0,0.0,0.0,0.0,0.0,0.0,0.0,0.0,0.0,0.0,0.0,0.0,0.0,3.3199,3.3493,3.3667,3.3722,3.4172,3.4466,3.4637,3.5374,3.6107,3.6871,3.6977,3.7266,3.7643,3.7402,3.7223,3.7083,3.7082,3.7303,3.7625,3.7687,3.7938,3.8352,3.8671,3.8819,3.8943,3.9265,3.9388,3.9388,0.0,0.0,0.0,0.0,0.0,0.0,0.0,0.0,0.0,0.0,0.9847,0.9847,0.0,0.0,0.0,0.0,0.0,0.0,0.0,0.0,0.0,0.9595,1.02,1.0171,0.9426,0.9366,0.9392,0.9504,0.8637,0.969,1.2525,1.2448,1.2775,1.3442,1.319,1.2197,1.0748,1.0806,1.0737,1.0627,1.136,1.1611,1.1605,1.2078,1.2307,1.2353,1.2107,1.2077,1.2143,1.2133,1.1955,0.0,0.0,0.0,1.1696,1.2137,1.3684,1.5375,1.6003,1.8021,2.0538,2.303,2.3445,2.4151,2.7612,2.805,2.8297,3.0144,3.0066,2.9727,0.0,0.0,0.0,0.0,0.0,0.0,0.0,0.0,0.0,0.0,0.0,0.0,0.0,0.0,0.0,0.0,0.0,0.0,3.3968,3.471,3.524,3.5471,3.5535,3.5711,3.6027,3.6152,3.6521,3.7164,3.8323,3.9249,3.9918,3.8987,3.8023,3.7134,3.7401,3.7534,3.7625,3.7991,3.8352,3.8723,3.8782,3.9017,3.9337,3.9388,3.9388,3.9388,0.0,0.0,0.0,0.0,0.0,0.0,0.0,0.0,0.0,0.0,0.0,0.9912,0.0,0.0,0.0,0.0,0.0,0.0,0.0,0.0,0.0,1.0884,1.0735,1.0477,1.0131,0.9713,0.9488,0.9435,0.9055,1.0964,1.4973,1.5251,1.4856,1.3963,1.4754,1.357,1.1087,1.2403,1.2323,1.1384,1.2075,1.234,1.2336,1.2584,1.2562,1.2429,1.2318,1.2107,1.188,1.188,1.1751,1.1586,1.1619,0.0,0.0,0.0,1.2679,1.4312,1.73,1.8006,1.9078,2.411,2.386,2.3407,2.7265,2.7761,2.7908,2.9653,3.0111,0.0,0.0,0.0,0.0,0.0,0.0,0.0,0.0,0.0,0.0,0.0,0.0,0.0,0.0,0.0,0.0,0.0,0.0,3.5277,3.5183,3.5616,3.5964,3.6074,3.6369,3.6645,3.6857,3.735,3.7757,3.8042,3.9593,4.0117,3.9803,4.0152,3.9825,3.8895,3.8009,3.8121,3.8863,3.8634,3.876,3.9141,3.9141,3.9228,3.9388,3.9388,3.9388,3.9388,0.0,0.0,0.0,0.0,0.0,0.0,0.0,0.0,0.0,0.0,0.0,0.0,0.0,0.0,0.0,0.0,0.0,0.0,0.0,0.0,0.0,1.1873,1.1244,1.0831,1.0692,1.0077,0.9636,0.9399,0.9352,1.1552,1.5844,1.6853,1.6598,1.5318,1.6484,1.5584,1.3226,1.4135,1.3934,1.3022,1.313,1.3013,1.2773,1.2845,1.273,1.2541,1.2437,1.218,1.1848,1.1696,1.1575,1.1489,1.1489,1.1489,0.0,0.0,0.0,1.2955,1.7429,1.7355,1.7492,2.3735,2.3326,2.2289,2.5805,2.6604,2.7037,0.0,2.9857,0.0,0.0,0.0,0.0,0.0,0.0,0.0,0.0,0.0,0.0,0.0,0.0,0.0,0.0,0.0,0.0,0.0,0.0,3.6338,3.6214,3.6553,3.6811,3.6931,3.7336,3.7616,3.7819,3.8451,3.8909,3.914,4.0353,4.0619,4.0097,4.0896,4.1199,4.0992,3.9223,3.8947,3.9713,3.955,3.9636,3.9879,3.9915,3.9809,3.9681,3.9681,3.9553,3.9388,0.0,0.0,0.0,0.0,0.0,0.0,0.0,0.0,0.0,0.0,0.0,0.0,1.1804,1.189,1.189,1.189,1.1928,1.195,1.1908,1.1918,1.1882,1.1805,1.1754,0.0,1.071,1.0532,1.0094,0.9399,0.9217,1.0761,1.3984,1.6316,1.8084,1.9307,1.9254,1.918,1.8857,1.5854,1.5265,1.6241,1.4802,1.3609,1.2735,1.2988,1.3049,1.2921,1.2544,1.2391,0.0,0.0,1.15,1.1489,1.1489,1.1489,1.1489,0.0,0.0,0.0,1.4776,1.5228,1.5894,2.0154,1.9896,1.9494,2.2866,2.4012,2.4974,2.7072,0.0,0.0,0.0,0.0,0.0,0.0,0.0,0.0,0.0,0.0,0.0,0.0,0.0,0.0,0.0,0.0,0.0,0.0,0.0,3.7041,3.6751,3.7544,3.8214,3.865,3.8706,3.886,3.9175,3.9245,3.9609,4.031,4.0204,4.0844,4.2118,4.1035,4.1427,4.2878,4.1233,4.0074,3.9448,4.0808,4.1294,4.1209,4.1327,4.0992,4.0443,4.0443,4.0021,3.9388,0.0,0.0,0.0,0.0,0.0,0.0,0.0,0.0,0.0,0.0,0.0,0.0,0.0,1.1998,1.1998,1.1998,1.2462,1.2968,1.3412,1.3437,1.3202,1.2661,1.2129,1.1449,1.0583,1.0026,0.9534,0.9141,0.9588,1.1136,1.3721,1.5487,1.7159,1.8822,2.1572,2.092,1.78,1.8349,1.6792,1.4216,1.6925,1.5725,1.2571,1.4815,1.5555,1.513,1.3314,0.0,0.0,0.0,0.0,1.1489,1.1489,1.1768,1.2163,1.2594,1.2598,1.304,1.5774,1.5246,1.4918,1.9141,1.8551,1.7725,2.0782,2.2888,2.4306,2.4694,0.0,0.0,0.0,0.0,0.0,0.0,0.0,0.0,0.0,0.0,0.0,0.0,0.0,0.0,0.0,0.0,0.0,0.0,0.0,0.0,3.8129,3.7613,3.7836,3.9077,3.9121,3.9191,3.9299,3.9175,3.9253,3.949,3.9717,4.0169,4.0762,4.1065,4.1344,4.1594,4.1965,4.1738,4.1127,4.1294,4.1327,4.1294,4.136,4.094,4.027,4.015,3.9636,3.9017,0.0,0.0,0.0,0.0,0.0,0.0,0.0,0.0,0.0,1.2274,0.0,0.0,0.0,0.0,1.2701,1.2701,1.296,1.3329,1.3834,1.3606,1.3227,1.2698,1.1895,1.1284,1.0902,0.9822,0.9434,0.9767,1.0011,1.1148,1.3096,1.4904,1.6431,1.7845,2.1334,2.1428,1.9052,2.058,1.9252,1.6285,1.8448,1.7372,1.4675,1.667,1.7271,0.0,0.0,0.0,0.0,0.0,0.0,1.3084,1.3277,1.3067,1.2816,1.3278,1.3315,1.3595,1.5428,1.4637,1.4026,1.7061,1.6701,1.6198,1.8503,2.1524,2.3778,2.3634,0.0,0.0,0.0,0.0,0.0,0.0,0.0,0.0,0.0,0.0,0.0,0.0,0.0,0.0,0.0,0.0,0.0,0.0,0.0,0.0,3.8504,3.7677,3.7796,3.9239,3.9299,3.9299,3.9299,3.9175,3.9067,3.8996,3.9257,3.9532,3.9866,4.058,4.0913,4.1069,4.2036,4.225,4.1884,4.19,4.1868,4.1851,4.19,4.1475,4.0786,4.0413,3.9783,3.9133,0.0,0.0,0.0,0.0,0.0,0.0,0.0,0.0,1.2056,1.2839,0.0,0.0,0.0,0.0,0.0,1.4114,1.3446,1.304,1.3051,1.2311,1.1862,1.1835,1.1085,1.0996,1.1683,1.0095,0.9933,1.1301,1.0471,1.0726,1.2057,1.4553,1.6026,1.6662,1.8426,2.061,2.2928,2.2287,2.2335,2.2534,1.9332,1.8392,1.8859,1.8485,1.8116,0.0,2.1289,2.056,0.0,2.0156,0.0,0.0,1.6755,1.5321,1.3423,1.3452,1.3465,1.3465,0.0,0.0,0.0,1.3784,1.4268,1.4906,1.5999,1.974,2.3209,2.3926,0.0,0.0,0.0,0.0,0.0,0.0,0.0,0.0,0.0,0.0,0.0,0.0,0.0,0.0,0.0,0.0,0.0,0.0,0.0,3.6653,3.7707,3.78,3.8262,3.9249,3.9282,3.9299,3.9299,3.9272,3.9175,3.8996,3.886,3.907,3.9646,3.9547,4.0251,4.1547,4.1579,4.1548,4.1592,4.2632,4.3037,4.2899,4.3052,4.2664,4.1997,4.1276,4.055,3.9819,0.0,0.0,0.0,0.0,0.0,1.334,1.336,1.3356,1.3454,0.0,0.0,0.0,1.4159,1.4177,1.419,1.4234,1.4056,1.3942,1.3948,1.3738,1.3341,1.277,1.2389,1.1984,1.1567,1.1012,1.0804,1.1006,1.1449,1.1759,1.1959,1.3232,1.3883,1.4048,1.6323,1.7399,1.7605,1.9489,1.7663,1.4108,2.1067,2.0006,1.4965,0.0,0.0,0.0,0.0,2.2183,2.1972,0.0,1.981,1.6997,0.0,1.4598,1.4152,1.4631,1.4776,1.4776,1.4776,0.0,0.0,0.0,0.0,0.0,1.4974,1.7818,2.0628,2.1132,0.0,0.0,0.0,0.0,0.0,0.0,0.0,0.0,0.0,0.0,0.0,0.0,0.0,0.0,0.0,0.0,0.0,0.0,3.4404,3.4782,3.6747,3.7547,3.8111,3.8493,3.8884,3.9094,3.9094,3.8892,3.8755,3.8699,3.8572,3.8602,3.8772,3.9262,3.9716,4.0154,4.1158,4.1586,4.1625,4.2579,4.2914,4.2899,4.2961,4.2507,4.1835,4.1492,4.0876,4.0154,0.0,0.0,0.0,1.3266,1.3648,1.3973,1.4005,1.3995,1.404,0.0,0.0,0.0,1.421,1.4223,1.4254,1.426,1.3979,1.3768,1.3675,1.3394,1.2968,1.2406,1.2277,1.2109,1.1871,1.1497,1.1487,1.1857,1.2094,1.2248,1.2327,1.2798,1.2942,1.2857,1.3942,1.3942,1.3266,1.5373,1.552,1.4829,2.0972,2.1306,0.0,2.4232,2.4787,0.0,0.0,0.0,2.4995,2.5553,2.3106,0.0,0.0,1.5785,1.4892,1.5802,1.5683,1.5298,1.5298,1.5192,1.4913,1.427,0.0,0.0,1.4929,1.7882,2.0899,0.0,0.0,0.0,0.0,0.0,0.0,0.0,0.0,0.0,0.0,0.0,0.0,0.0,0.0,0.0,0.0,0.0,0.0,3.47,3.3938,3.4246,3.6039,3.7094,3.7793,3.8091,3.8407,3.8673,3.8914,3.8766,3.8672,3.8588,3.8504,3.8448,3.8408,3.8845,3.9214,3.957,4.0672,4.132,4.1661,4.2436,4.2759,4.2759,4.2759,4.2523,4.2077,4.1656,4.1211,4.069,0.0,0.0,1.39,1.3902,1.3897,1.3922,1.3995,1.4019,1.4051,0.0,1.4177,1.4186,1.421,1.426,1.4267,1.4203,1.3599,1.3124,1.293,1.2298,1.1841,1.1664,1.1662,1.192,1.2515,1.1877,1.2064,1.3184,1.2548,1.2448,1.2883,1.2896,1.2815,1.2649,1.178,1.089,1.0125,1.1097,1.4713,1.9797,1.985,2.2147,0.0,0.0,2.6593,2.6438,2.9861,2.9417,2.7535,2.9564,2.7225,0.0,0.0,0.0,0.0,0.0,1.6249,1.5486,1.5414,1.5399,1.5224,1.4514,1.467,0.0,1.5384,1.8579,2.1898,2.3328,0.0,0.0,0.0,0.0,0.0,0.0,0.0,0.0,0.0,0.0,0.0,0.0,0.0,0.0,0.0,3.4101,3.4101,3.4126,3.4126,3.4527,3.5405,3.6396,3.7241,3.7854,3.7926,3.8235,3.8777,3.875,3.8711,3.856,3.856,3.852,3.8391,3.8391,3.8748,3.9424,4.0156,4.0853,4.1547,4.2279,4.2602,4.2602,4.2602,4.2602,4.2523,4.1868,4.1624,4.1411,0.0,1.3916,1.3894,1.39,1.3905,1.3923,1.3991,1.404,1.4047,1.3966,1.4005,1.41,1.4254,1.4298,1.4241,1.4123,1.3998,1.3819,1.3613,1.3472,1.3363,1.3327,1.3238,1.3225,1.3357,1.312,1.3,1.3033,1.3007,1.2894,1.2747,1.2843,1.2776,1.2506,1.1749,1.0834,0.9902,1.0595,1.238,1.513,1.9736,2.1757,2.2638,2.8572,2.8796,2.6494,3.0799,3.1056,2.9249,2.8754,2.7948,2.6243,0.0,0.0,0.0,1.6335,0.0,0.0,0.0,0.0,0.0,0.0,0.0,0.0,1.5092,1.5782,1.7097,0.0,2.0538,0.0,0.0,0.0,0.0,0.0,0.0,0.0,0.0,0.0,0.0,0.0,0.0,0.0,0.0,3.4176,3.4151,3.425,3.4349,3.4464,3.4561,3.5514,3.6329,3.6924,3.7482,3.8057,3.8628,3.8532,3.8448,3.842,3.842,3.8436,3.8391,3.8391,3.8472,3.8683,3.9946,4.0577,4.0804,4.2068,4.2602,4.2602,4.2602,4.2602,4.2602,4.2429,4.2397,4.2174,1.3719,1.3796,1.3821,1.389,1.3902,1.3891,1.3858,1.3934,1.3934,1.3771,1.3843,1.3977,1.4175,1.4098,1.4064,1.4107,1.4009,1.3891,1.3718,1.3711,1.3673,1.3605,1.3543,1.347,1.3395,1.3337,1.3183,1.2951,1.3016,1.2754,1.2219,1.2511,1.2374,1.1889,1.163,1.1051,1.0316,1.0485,1.1957,1.4631,1.952,0.0,2.3898,2.9486,3.0566,2.9399,3.1679,3.2045,3.1193,2.9475,2.8401,0.0,0.0,2.1128,1.9202,0.0,1.6436,1.6559,0.0,0.0,0.0,1.5747,0.0,0.0,0.0,1.5996,1.7035,1.8912,2.0102,2.0881,0.0,0.0,0.0,0.0,0.0,0.0,0.0,0.0,0.0,0.0,0.0,0.0,0.0,3.4088,3.43,3.43,3.4423,3.4448,3.43,3.4841,3.5431,3.6041,3.6718,3.7329,3.794,3.8241,3.8391,3.8391,3.8391,3.8391,3.8391,3.8391,3.8391,3.8472,3.9881,4.0496,4.061,4.2004,4.2602,4.2602,4.2602,4.2602,4.2602,4.2602,4.2602,4.2429,1.3613,1.3646,1.3669,1.3774,1.3811,1.3781,1.3667,1.3771,1.3809,1.3665,1.3708,1.4043,1.4816,1.4236,1.4091,1.4811,1.4711,1.4322,1.3617,1.4091,1.4093,1.3396,1.3244,1.316,1.3175,1.3041,1.2955,1.2898,1.2852,1.2421,1.1651,1.1986,1.1866,1.1379,1.1411,1.1527,1.1671,1.1398,1.3187,1.6557,0.0,2.3095,2.5542,2.9721,3.151,3.1867,3.2439,3.2912,3.2918,3.0471,2.882,2.7491,2.5721,2.2692,0.0,0.0,0.0,0.0,0.0,0.0,0.0,0.0,0.0,1.4501,0.0,0.0,0.0,1.8482,2.0024,0.0,0.0,0.0,0.0,0.0,0.0,0.0,0.0,0.0,0.0,0.0,0.0,0.0,0.0,3.3052,3.3695,3.4226,3.4096,3.4055,3.4243,3.4423,3.475,3.5333,3.6023,3.6685,3.7279,3.8035,3.8391,3.8391,3.8391,3.8391,3.8391,3.8391,3.8391,3.8472,3.9881,4.0496,4.061,4.2004,4.2602,4.2602,4.2602,4.2602,4.2602,4.2602,4.2602,4.2492,1.337,1.3437,1.3412,1.3378,1.347,1.3519,1.3453,1.3597,1.3746,1.3768,1.3639,1.4607,1.7435,1.5383,1.4844,1.7417,1.7621,1.6417,1.3608,1.5862,1.6109,1.3344,1.2647,1.2581,1.3103,1.2473,1.2389,1.2898,1.2652,1.2158,1.1426,1.1246,1.1338,1.1634,1.1054,1.2325,1.4862,1.4542,1.6687,0.0,2.3585,2.4159,0.0,2.9307,3.0767,3.0254,3.2935,3.408,3.3825,0.0,2.956,2.8884,0.0,2.2559,2.132,1.9502,0.0,0.0,0.0,0.0,0.0,0.0,1.479,0.0,0.0,0.0,1.476,1.4892,0.0,0.0,0.0,0.0,0.0,0.0,0.0,0.0,0.0,0.0,0.0,0.0,0.0,0.0,0.0,0.0,3.0942,3.3907,3.2866,3.271,3.4053,3.4349,3.4725,3.5205,3.5997,3.6685,3.7279,3.8035,3.8391,3.8391,3.8391,3.8391,3.8391,3.8391,3.8391,3.8472,3.9881,4.0496,4.061,4.2004,4.2602,4.2602,4.2602,4.2602,4.2602,4.2602,4.2602,4.2492,1.3244,1.3278,1.3303,1.3354,1.3446,1.3446,1.3303,1.3362,1.3453,1.3552,1.3496,1.4855,1.8558,1.7642,1.805,2.1231,0.0,2.0283,0.0,0.0,1.6874,1.4805,1.3059,1.2023,1.1778,1.1844,1.1726,1.1393,1.2485,1.2174,1.0561,1.1489,1.1614,1.1093,1.1832,1.3503,1.5876,1.686,1.8393,0.0,0.0,0.0,0.0,2.9907,3.2301,3.2224,3.2327,3.3224,3.3795,0.0,2.9585,0.0,0.0,0.0,0.0,0.0,0.0,0.0,0.0,0.0,0.0,0.0,0.0,0.0,1.5314,0.0,1.3889,0.0,0.0,0.0,0.0,0.0,0.0,0.0,1.5664,0.0,0.0,0.0,0.0,0.0,0.0,0.0,0.0,0.0,0.0,0.0,0.0,3.2078,3.2562,3.3672,3.4372,3.4563,3.5724,3.6443,3.6724,3.7841,3.8391,3.8391,3.8391,3.8391,3.8391,3.8391,3.8391,3.8472,3.9881,4.0496,4.061,4.2004,4.2602,4.2602,4.2602,4.2602,4.2602,4.2602,4.2602,4.2571,1.3123,1.314,1.3166,1.3244,1.332,1.3346,1.3218,1.3739,1.4272,1.4571,1.4473,1.5974,2.0125,1.8859,0.0,2.377,2.3874,2.3296,0.0,0.0,1.9164,0.0,0.0,0.0,0.0,1.2284,1.1635,1.0787,1.2271,1.1989,1.0118,1.1377,1.1544,1.0839,1.2326,1.4354,1.681,0.0,2.0635,2.2321,2.4731,2.569,2.6197,3.0612,3.3014,3.3795,3.2335,3.2798,3.358,2.9986,2.9649,0.0,2.8057,0.0,0.0,0.0,0.0,0.0,2.0598,0.0,0.0,0.0,0.0,0.0,0.0,0.0,0.0,0.0,0.0,0.0,0.0,0.0,0.0,0.0,0.0,1.6174,0.0,0.0,0.0,0.0,0.0,0.0,0.0,0.0,0.0,2.9829,3.0645,3.1232,3.155,3.3176,3.4101,3.4101,3.5542,3.6303,3.6303,3.7695,3.8391,3.8391,3.8391,3.8391,3.8391,3.8391,3.8391,3.8472,3.9881,4.0496,4.061,4.2004,4.2602,4.2602,4.2602,4.2602,4.2602,4.2602,4.2602,4.2602,1.2988,1.3013,1.2979,1.2926,1.3031,1.3129,1.3192,1.5136,1.6845,1.7563,0.0,0.0,0.0,0.0,0.0,0.0,0.0,2.4455,2.4404,0.0,2.4132,0.0,0.0,1.5212,0.0,0.0,1.2463,1.203,1.1986,1.1486,1.0573,1.0444,1.0662,1.1223,1.2047,1.4549,1.8269,2.0545,2.4169,2.8558,3.0129,3.1884,3.3301,0.0,3.1706,3.3694,3.3646,0.0,0.0,3.0786,2.998,0.0,0.0,0.0,0.0,0.0,0.0,0.0,0.0,0.0,0.0,1.9327,0.0,0.0,0.0,0.0,1.5793,0.0,0.0,0.0,0.0,0.0,0.0,0.0,0.0,0.0,0.0,0.0,0.0,0.0,0.0,0.0,0.0,0.0,0.0,2.8071,2.8715,2.9789,3.1598,3.3225,3.4101,3.4101,3.5542,3.6303,3.6303,3.7695,3.8391,3.8391,3.8391,3.8391,3.8391,3.8391,3.8391,3.8472,3.9881,4.0496,4.061,4.2004,4.2602,4.2602,4.2602,4.2602,4.2602,4.2602,4.2602,4.2602,1.3266,1.3399,1.349,1.298,1.297,1.3242,1.3844,1.4641,0.0,0.0,1.9087,0.0,0.0,2.6554,2.6284,0.0,0.0,3.0959,2.7012,2.7334,0.0,0.0,0.0,1.8516,0.0,0.0,0.0,1.1432,1.2143,1.1778,1.0419,1.1185,1.1438,1.1249,1.241,1.4827,0.0,0.0,0.0,0.0,0.0,3.0366,3.2285,0.0,0.0,3.4593,3.4953,3.4798,0.0,3.1872,3.1167,3.115,3.0449,2.9175,2.8361,3.0642,2.9167,0.0,0.0,0.0,2.7539,2.4985,0.0,0.0,0.0,0.0,0.0,0.0,0.0,0.0,0.0,0.0,0.0,0.0,0.0,0.0,0.0,0.0,0.0,0.0,0.0,0.0,0.0,0.0,0.0,2.5608,2.6846,2.7749,0.0,3.0975,3.2514,3.2514,3.4962,3.6303,3.6303,3.7695,3.8391,3.8391,3.8391,3.8391,3.8391,3.8391,3.8391,3.8472,3.9881,4.0496,4.061,4.2004,4.2602,4.2602,4.2602,4.2602,4.2602,4.2602,4.2602,4.2602,1.4116,1.4077,1.4082,1.3477,1.3604,0.0,0.0,0.0,0.0,0.0,2.2124,0.0,3.0026,0.0,3.0328,0.0,3.2874,3.3052,3.1027,2.8595,0.0,2.9424,2.4507,0.0,0.0,0.0,0.0,0.0,1.3292,1.2426,1.1928,1.1897,1.176,1.1608,1.2749,1.476,1.7625,2.2592,2.5334,0.0,0.0,3.0768,0.0,0.0,3.4752,3.5057,0.0,3.5529,3.4947,3.356,3.3155,3.3164,3.2902,3.1885,3.1135,3.3086,3.1651,2.9595,3.0253,3.0832,0.0,2.8627,2.7451,0.0,2.3178,0.0,0.0,0.0,0.0,0.0,0.0,0.0,0.0,0.0,0.0,0.0,0.0,1.5799,0.0,0.0,0.0,0.0,0.0,0.0,2.2683,2.3966,2.5784,2.677,0.0,0.0,3.171,3.171,3.4694,3.6303,3.6303,3.7695,3.8391,3.8391,3.8391,3.8391,3.8391,3.8391,3.8391,3.8472,3.9881,4.0496,4.061,4.2004,4.2602,4.2602,4.2602,4.2602,4.2602,4.2602,4.2602,4.2602,1.5424,1.4978,1.474,0.0,1.4846,0.0,0.0,0.0,2.1161,0.0,2.615,2.6623,3.0835,2.9512,2.9536,3.2515,3.049,3.0975,3.5572,2.8405,0.0,0.0,2.7065,2.4534,2.8533,0.0,0.0,0.0,0.0,1.3517,1.496,1.2524,1.1696,1.2284,1.3069,1.4471,1.6579,2.2274,2.5519,2.7092,3.0038,3.3083,3.5658,3.4117,0.0,3.5196,3.5711,3.5881,3.5822,3.5689,3.5633,3.5629,3.5629,3.507,3.4514,3.4957,3.4594,3.389,3.3129,3.3089,3.2684,3.0322,0.0,0.0,0.0,0.0,2.5245,0.0,0.0,0.0,0.0,0.0,0.0,0.0,0.0,0.0,0.0,0.0,0.0,0.0,0.0,0.0,0.0,2.0687,2.2222,2.3172,2.5357,2.6707,0.0,0.0,3.1574,3.171,3.4555,3.6136,3.6303,3.7603,3.8298,3.8391,3.8391,3.8391,3.8391,3.8391,3.8391,3.8472,3.9881,4.0496,4.061,4.2004,4.2602,4.2602,4.2602,4.2602,4.2602,4.2602,4.2602,4.2602,1.5414,1.5412,1.5625,0.0,1.6223,1.75,0.0,0.0,0.0,0.0,2.9171,3.1301,3.2543,3.4583,3.4158,3.0019,3.2114,0.0,0.0,0.0,0.0,3.599,3.347,3.1417,3.0309,2.7476,0.0,2.2641,0.0,1.6174,1.6478,1.3961,1.2846,1.2967,1.3679,1.4819,1.6579,2.2274,2.6781,3.0085,3.0049,3.1428,0.0,0.0,3.5337,3.6907,3.7231,3.7094,3.6729,3.6434,3.6182,3.5958,3.5958,3.6018,3.6094,3.6215,3.6266,3.6265,3.614,3.5849,3.5344,3.4385,3.2567,3.0655,0.0,0.0,0.0,0.0,0.0,0.0,0.0,0.0,0.0,0.0,0.0,0.0,0.0,0.0,0.0,1.5813,0.0,0.0,0.0,1.9597,2.1049,2.2374,2.3974,0.0,0.0,0.0,0.0,3.1638,3.2571,3.4091,3.626,3.6355,3.7074,3.8391,3.8391,3.8391,3.8391,3.8391,3.8391,3.8472,3.9881,4.0496,4.061,4.2004,4.2602,4.2602,4.2602,4.2602,4.2602,4.2602,4.2602,4.2602,1.6087,1.6,0.0,1.5742,0.0,0.0,2.1325,2.2994,0.0,2.8933,3.1115,0.0,3.4605,3.7209,3.7386,3.3718,3.336,0.0,3.2506,0.0,0.0,3.6387,3.5013,3.3205,3.1164,3.0156,0.0,2.499,0.0,1.8484,1.8548,1.4957,1.3433,1.3694,1.4082,1.4963,1.661,2.2906,2.8147,3.2196,3.1565,0.0,0.0,3.4606,3.586,3.7897,3.7819,3.7706,3.754,3.7253,3.7025,3.689,3.7001,3.6956,3.6912,3.7081,3.7025,3.6975,3.722,3.7085,3.6829,3.6675,3.5206,3.3572,3.2689,3.1303,3.0203,0.0,0.0,0.0,0.0,0.0,0.0,0.0,0.0,0.0,0.0,0.0,0.0,0.0,1.7182,0.0,0.0,1.9619,2.0904,2.2106,0.0,0.0,0.0,0.0,0.0,3.0219,3.183,3.3182,3.4377,3.4752,3.5721,3.723,3.7508,3.7915,3.8391,3.8391,3.8391,3.8472,3.9881,4.0496,4.061,4.2004,4.2602,4.2602,4.2602,4.2602,4.2602,4.2602,4.2602,4.2602,1.6907,1.6539,0.0,0.0,0.0,0.0,0.0,2.4826,0.0,3.2194,0.0,3.3403,3.6199,3.8089,3.9143,3.9159,0.0,3.3202,3.7567,3.0861,2.9759,3.6685,3.4594,3.2924,3.218,3.2167,3.0742,0.0,2.3004,2.0678,2.0642,1.583,1.3864,1.4428,1.4428,1.5563,0.0,2.3979,2.9258,3.3519,3.3598,3.5337,3.7653,3.5605,3.6302,3.8307,3.7847,3.7921,3.818,3.7992,3.7963,3.8049,3.825,3.7886,3.7452,3.7817,3.7482,3.7127,3.7494,3.7628,3.7684,3.7823,3.7388,3.6632,3.5482,3.4682,3.4182,3.4116,3.3176,3.2432,0.0,0.0,0.0,0.0,0.0,0.0,0.0,0.0,0.0,0.0,0.0,0.0,0.0,0.0,0.0,0.0,0.0,0.0,0.0,0.0,0.0,2.8801,3.1665,0.0,3.2442,0.0,3.4703,3.6105,3.6506,3.7315,3.8391,3.8391,3.844,3.8618,3.993,4.0545,4.0739,4.2052,4.2602,4.2602,4.2602,4.2602,4.2602,4.2602,4.2602,4.2602,1.6673,0.0,0.0,0.0,0.0,2.3645,2.7604,3.0698,3.2341,3.1694,3.4584,3.6245,3.5031,3.7232,3.8127,3.6451,3.5364,0.0,0.0,0.0,0.0,3.8833,3.7943,3.703,3.6276,3.5785,3.4159,0.0,2.6416,2.3161,2.1415,1.7012,1.5008,1.5124,1.5124,1.8468,2.4186,2.5426,0.0,3.355,3.4091,3.467,3.534,3.693,3.7814,3.8209,3.7817,3.7921,3.8209,3.8103,3.8258,3.8528,3.8777,3.8903,3.8939,3.8993,3.8937,3.8891,3.9075,3.8772,3.843,3.8572,3.8164,3.7652,3.7405,3.6808,3.6271,3.6265,3.5559,3.4648,3.3681,0.0,0.0,0.0,0.0,0.0,0.0,0.0,0.0,0.0,0.0,2.1132,0.0,0.0,0.0,0.0,0.0,0.0,0.0,0.0,0.0,0.0,0.0,0.0,0.0,0.0,3.5427,3.8248,3.7195,3.7315,3.8391,3.8391,3.8732,3.936,4.014,4.0867,4.1482,4.2278,4.2602,4.2602,4.2602,4.2602,4.2602,4.2602,4.2602,4.2602,1.8084,0.0,0.0,0.0,0.0,0.0,0.0,3.2872,0.0,3.3445,3.5202,3.6348,3.5799,3.7405,3.8214,3.7541,3.6321,3.6324,3.8017,3.6409,3.6637,3.9379,3.8769,0.0,3.5423,3.6385,3.4914,3.081,2.7146,2.4295,2.2124,1.7477,1.5472,1.585,1.7878,2.1212,0.0,0.0,0.0,3.4165,3.586,3.652,3.6633,3.7664,3.8107,3.8151,3.773,3.773,3.7934,3.7918,3.7988,3.8205,3.8572,3.8794,3.8958,3.9094,3.9218,3.9325,3.9458,3.9287,3.9098,3.9226,3.8799,3.8359,3.8359,3.7858,3.7364,3.7364,3.6755,3.5459,3.2997,2.9935,0.0,0.0,0.0,0.0,0.0,0.0,0.0,0.0,0.0,0.0,0.0,0.0,0.0,0.0,0.0,0.0,0.0,0.0,0.0,0.0,0.0,0.0,0.0,0.0,0.0,3.7416,3.7077,3.744,3.8391,3.8391,3.8796,3.9554,4.0205,4.1037,4.1904,4.2757,4.3021,4.2867,4.2867,4.2743,4.2602,4.2602,4.2602,4.2602,0.0,1.9514,0.0,0.0,2.3888,0.0,3.134,3.3952,3.5576,3.5687,3.5749,3.6165,3.7111,3.7979,3.8501,3.8418,3.7468,3.7261,3.8245,3.7394,3.7464,3.8847,3.882,3.7555,3.4904,3.6819,3.5427,0.0,2.8023,2.5407,0.0,1.8323,1.6632,0.0,0.0,0.0,0.0,0.0,3.3477,3.5078,3.7157,3.7988,3.7931,3.7639,3.7714,3.7934,3.7494,3.7494,3.7716,3.7671,3.77,3.7817,3.825,3.8516,3.8678,3.8887,3.9121,3.9325,3.9448,3.9475,3.9528,3.9642,3.9336,3.9017,3.9017,3.8569,3.8142,3.8142,3.7415,3.5875,3.2782,3.1057,0.0,0.0,0.0,0.0,0.0,0.0,0.0,0.0,0.0,0.0,2.3916,0.0,0.0,0.0,0.0,0.0,0.0,0.0,0.0,0.0,0.0,3.2714,3.4039,0.0,3.5577,0.0,3.7086,3.7739,3.8832,3.8832,3.9288,4.018,4.0717,4.1488,4.2492,4.3258,4.3429,4.3188,4.3143,4.2929,4.268,4.2634,4.2602,4.2602,0.0,0.0,0.0,0.0,0.0,0.0,0.0,3.5373,3.5091,3.7334,3.7332,3.7393,3.8078,3.8777,3.8307,3.6034,3.8973,3.8826,3.3787,3.8195,3.9822,3.7093,3.9114,3.9887,3.8962,3.9176,3.7472,0.0,3.1349,2.7545,0.0,0.0,0.0,0.0,0.0,0.0,0.0,3.1799,3.3937,3.623,3.6492,3.66,3.6569,3.643,3.6754,3.7254,3.6892,3.718,3.7671,3.7569,3.7685,3.7943,3.8307,3.8572,3.8805,3.8805,3.904,3.9299,3.9325,3.9422,3.9501,3.9528,3.967,3.98,3.98,3.9328,3.8886,3.8886,3.7794,3.6327,3.4776,3.2874,3.0261,0.0,0.0,0.0,0.0,0.0,0.0,2.3739,0.0,0.0,0.0,2.2309,0.0,0.0,0.0,0.0,0.0,0.0,0.0,3.0676,0.0,3.2504,3.4875,3.5208,0.0,3.9339,3.806,3.8428,4.0227,4.0227,4.0955,4.2212,4.2295,4.2741,4.3466,4.3545,4.3578,4.3519,4.3218,4.3066,4.3021,4.2711,4.2602,4.2618,0.0,0.0,0.0,0.0,0.0,0.0,0.0,3.6439,3.6599,3.8231,3.7783,3.7543,3.8172,3.8473,3.8245,3.7216,3.9023,3.9188,3.6856,3.8903,3.9654,3.8387,3.8862,3.9051,3.8795,3.8369,3.7328,0.0,0.0,0.0,0.0,0.0,0.0,0.0,0.0,3.0195,3.1894,3.3969,3.5447,3.6415,3.6415,3.6415,3.6384,3.6243,3.6352,3.6569,3.6305,3.66,3.7089,3.7029,3.73,3.7714,3.7988,3.8173,3.8343,3.8678,3.8887,3.904,3.9245,3.9325,3.9379,3.9379,3.959,3.9781,3.9781,3.9725,3.9673,3.9673,3.8843,3.7811,3.6847,3.4945,3.2908,0.0,0.0,0.0,0.0,0.0,0.0,0.0,0.0,2.6251,0.0,2.4661,2.2403,0.0,0.0,0.0,0.0,0.0,0.0,3.1964,0.0,3.4897,3.8027,3.7324,3.789,3.9703,3.9531,3.9796,4.0426,4.0857,4.1586,4.2531,4.3169,4.3639,4.3906,4.4109,4.408,4.3877,4.3759,4.3565,4.3369,4.3248,4.3188,4.3218,3.3203,0.0,3.1176,0.0,3.2932,3.3952,3.6126,3.7105,3.7703,3.8025,3.7952,3.7955,3.8188,3.8412,3.8142,3.7194,3.8835,3.9137,3.7207,3.9097,3.9862,3.8927,3.9323,0.0,3.9261,3.8807,3.8053,3.7006,3.2242,0.0,0.0,0.0,0.0,0.0,3.1074,3.2497,3.318,3.504,3.5819,3.5819,3.5819,3.5819,3.5802,3.5705,3.5784,3.5928,3.5769,3.6054,3.6554,3.6708,3.7013,3.7389,3.7698,3.7915,3.8201,3.8639,3.8871,3.9104,3.9362,3.9379,3.9379,3.9405,3.9547,3.9703,3.9755,3.9935,4.0096,4.0096,3.952,3.8836,3.8328,3.6847,3.5301,3.4016,0.0,0.0,0.0,0.0,0.0,0.0,2.7789,2.7104,3.0733,2.6519,0.0,0.0,0.0,0.0,0.0,0.0,0.0,0.0,0.0,0.0,0.0,3.7668,3.8282,4.0143,4.0663,4.1044,4.1305,4.2066,4.2667,4.3168,4.392,4.4258,4.4258,4.4485,4.4457,4.4258,4.4126,4.3964,4.3743,4.3638,4.3608,4.3608,3.7477,3.703,3.6934,3.7662,3.747,3.6917,3.605,3.7222,3.7738,3.6489,3.7984,3.8928,3.8275,3.8863,3.797,3.4743,3.8744,3.87,3.2202,3.8537,4.1124,0.0,0.0,4.2263,4.1565,4.1549,4.0498,3.8369,0.0,0.0,3.0511,0.0,2.9315,3.0642,3.2555,3.375,3.437,3.4399,3.4414,3.4414,3.4414,3.4414,3.4414,3.4414,3.4839,3.54,3.5267,3.5655,3.629,3.6753,3.689,3.6966,3.7375,3.8004,3.8595,3.8611,3.9131,3.9677,3.9703,3.9616,3.9511,3.9651,3.9703,3.9729,3.9875,4.0011,4.0096,4.0096,3.952,3.8988,3.8988,3.8362,3.6986,3.4345,0.0,0.0,0.0,0.0,0.0,0.0,2.6947,2.6735,2.9365,0.0,0.0,0.0,0.0,0.0,0.0,0.0,0.0,2.9586,2.9644,0.0,3.4045,3.5245,3.7642,4.1187,4.1204,4.1955,4.3392,4.4198,4.4581,4.457,4.4598,4.4598,4.4598,4.4615,4.4615,4.4542,4.4212,4.4097,4.4068,4.3713,4.3608,4.3638,3.4044,3.6177,3.7899,3.6988,3.7797,3.8632,3.8731,3.9179,3.9349,3.8942,3.9421,3.9726,3.9523,3.9346,3.8624,0.0,3.7212,3.7009,0.0,3.7101,3.8034,3.8772,3.808,3.7816,3.8126,3.8111,3.7772,3.7093,0.0,0.0,0.0,3.1931,3.2678,3.5177,3.5305,3.5507,3.5677,3.5241,3.5101,3.5058,3.4588,3.4414,3.4414,3.4414,3.4534,3.4721,3.4668,3.5019,3.5559,3.5705,3.6244,3.6951,3.7342,3.787,3.8483,3.8882,3.9195,3.9408,3.9651,3.9677,3.9668,3.9677,3.9755,3.9849,3.9901,4.0011,4.0096,4.0096,3.991,3.9757,3.9757,3.914,3.7913,3.568,3.5813,0.0,0.0,0.0,0.0,0.0,2.9995,2.9496,0.0,3.0351,0.0,0.0,0.0,0.0,0.0,0.0,0.0,0.0,3.4843,0.0,3.8137,3.8097,3.91,4.1221,4.2236,4.3234,4.4215,4.4496,4.4615,4.4615,4.4615,4.4615,4.4615,4.4615,4.4615,4.4587,4.4485,4.4429,4.4429,4.4327,4.4298,4.4298,3.5272,3.7359,3.8954,3.7906,3.8739,3.9421,3.9102,3.9654,3.9929,3.945,4.0017,4.0481,4.0481,4.0133,0.0,3.8971,3.7901,3.7745,3.8913,3.7908,3.7998,3.9637,3.8138,3.7479,3.794,0.0,0.0,3.7549,3.6715,3.6056,3.5584,3.4453,3.5015,3.6891,3.6514,3.6301,3.6286,3.5894,3.5755,3.5677,3.5285,3.498,3.4777,3.4777,3.4617,3.4414,3.4414,3.4635,3.4953,3.5201,3.5913,3.6814,3.7485,3.8137,3.8701,3.9152,3.9391,3.9592,3.979,3.9807,3.9781,3.9833,3.9901,3.9926,3.9961,4.0037,4.0096,4.0096,4.0096,4.0096,4.0096,3.9723,3.8999,3.7743,3.7973,3.7877,3.663,0.0,0.0,0.0,0.0,0.0,0.0,3.2917,0.0,0.0,0.0,0.0,0.0,0.0,0.0,3.4871,3.6052,0.0,3.914,3.9083,4.0014,4.196,4.324,4.4113,4.4615,4.4615,4.4615,4.4615,4.4615,4.4615,4.4615,4.4615,4.4615,4.4615,4.4615,4.4615,4.4615,4.4615,4.4615,4.4615,3.9688,3.9915,0.0,0.0,4.0075,0.0,3.7897,3.9117,3.9813,3.8623,4.0046,4.1163,4.1163,4.1163,4.0916,4.0292,0.0,0.0,0.0,4.0163,4.0186,4.0313,4.014,4.0079,4.0148,4.0148,3.9897,3.9376,3.8083,3.7434,3.7419,3.6772,3.6446,3.6446,3.6446,3.6446,3.6446,3.6402,3.6373,3.6373,3.633,3.5952,3.5465,3.5465,3.5101,3.4545,3.4545,3.4545,3.4632,3.5255,3.5906,3.6662,3.7902,3.8743,3.9295,3.9398,3.9747,4.0096,4.0096,4.0011,3.9935,4.0087,4.0011,3.9952,4.0087,4.0096,4.0096,4.0096,4.0096,4.0096,4.0096,4.0096,4.0096,4.0096,3.9512,3.9005,3.8804,0.0,0.0,0.0,0.0,0.0,0.0,3.5017,3.5169,0.0,0.0,0.0,0.0,0.0,3.0963,3.3577,3.4399,3.5766,3.7826,3.8706,4.0547,4.3317,4.4176,4.4615,4.4615,4.4615,4.4615,4.4615,4.4615,4.4615,4.4615,4.4615,4.4615,4.4615,4.4615,4.4615,4.4615,4.4615,4.4615,4.4615,0.0,0.0,3.9784,3.8812,3.9871,4.0887,4.0945,4.1337,4.1512,4.1221,4.157,4.186,4.186,4.186,4.1802,4.1642,3.9386,3.8405,3.9384,3.8076,3.797,3.951,3.7654,3.6852,3.7412,3.7412,3.8322,4.0139,3.9262,3.8822,3.8807,3.8106,3.7752,3.7752,3.7752,3.7752,3.7723,3.7259,3.707,3.7027,3.6519,3.6214,3.6083,3.6083,3.5996,3.5865,3.5865,3.5865,3.5851,3.6012,3.6536,3.7334,3.8622,3.9507,4.0046,3.9962,4.002,4.0096,4.0096,4.0087,4.0062,4.007,4.0087,4.0062,4.0096,4.0096,4.0096,4.0096,4.0096,4.0096,4.0096,4.0096,4.0096,4.0096,3.996,3.9067,3.6878,3.5948,0.0,0.0,3.3824,3.4961,3.553,3.7369,3.79,0.0,0.0,0.0,0.0,0.0,3.5633,3.8086,3.8465,3.9111,4.017,4.1057,4.2419,4.4288,4.4485,4.4615,4.4615,4.4615,4.4615,4.4615,4.4615,4.4615,4.4615,4.4615,4.4615,4.4615,4.4615,4.4615,4.4615,4.4615,4.4615,4.4615,3.8341,3.9799,4.0891,4.0104,4.0858,4.1671,4.2034,4.2092,4.2092,4.2092,4.2092,4.2092,4.2092,4.2092,4.2092,4.2092,4.022,3.9334,4.0017,3.8536,3.8112,3.9195,3.7616,3.6864,3.726,3.726,3.7976,3.9376,3.8994,3.8789,3.8789,3.8375,3.8202,3.8202,3.8202,3.8202,3.8188,3.7854,3.7723,3.768,3.7317,3.7012,3.6765,3.6765,3.6577,3.6301,3.6301,3.6301,3.6301,3.6301,3.6766,3.7466,3.8308,3.936,4.0323,4.0348,4.0486,4.0595,4.0595,4.0367,4.0096,4.0096,4.0096,4.0096,4.0096,4.0096,4.0096,4.0096,4.0096,4.0096,4.0096,4.0096,4.0096,4.0096,3.8975,3.7594,3.6025,3.4782,0.0,3.3615,3.502,3.6447,3.7569,3.8906,3.9213,3.8008,0.0,0.0,3.7629,3.6727,3.7222,3.9444,3.9986,4.0558,4.1295,4.2587,4.3641,4.4468,4.4542,4.4542,4.4468,4.4542,4.4615,4.4615,4.4615,4.4615,4.4615,4.4615,4.4615,4.4615,4.4615,4.4615,4.4615,4.4615,4.4615,4.4615,4.2438,4.2433,4.2366,4.2175,4.2133,4.2092,4.2092,4.2092,4.2092,4.2092,4.2092,4.2092,4.2092,4.2092,4.2092,4.2092,4.157,4.1207,4.1105,4.0089,3.9407,3.9218,3.8652,3.8304,3.8202,3.8202,3.8202,3.8202,3.8202,3.8202,3.8202,3.8202,3.8202,3.8202,3.8202,3.8202,3.8202,3.8202,3.8202,3.8202,3.8202,3.7897,3.7447,3.7447,3.7085,3.6591,3.6591,3.6591,3.6591,3.6591,3.7025,3.7594,3.8098,3.9328,4.0645,4.1131,4.1394,4.1508,4.1407,4.0832,4.0248,4.013,4.0096,4.0096,4.0096,4.0096,4.0096,4.0096,4.0096,4.0096,4.0096,4.0096,3.9969,3.9514,3.7419,3.5646,3.5202,0.0,3.3169,3.5506,3.6273,3.7494,3.969,3.9781,3.9625,3.9528,3.7775,0.0,0.0,3.7843,3.775,3.9553,4.0274,4.1065,4.1944,4.3552,4.4338,4.4338,4.4514,4.4514,4.4338,4.4542,4.4615,4.4615,4.4615,4.4615,4.4615,4.4615,4.4615,4.4615,4.4615,4.4615,4.4615,4.4615,4.4615,4.4615,4.286,4.2607,4.2392,4.2351,4.2201,4.2092,4.2092,4.2092,4.2092,4.2092,4.2092,4.2092,4.2092,4.2092,4.2092,4.2092,4.199,4.17,4.1134,4.0902,4.0321,3.9247,3.9102,3.8783,3.8217,3.8202,3.8202,3.8202,3.8202,3.8202,3.8202,3.8202,3.8202,3.8202,3.8202,3.8202,3.8202,3.8202,3.8202,3.8202,3.8202,3.8144,3.8072,3.8072,3.7999,3.7912,3.7912,3.7912,3.7912,3.7912,3.8194,3.8841,4.0337,4.1228,4.204,4.3551,4.3546,4.2929,4.2286,4.1593,4.0882,4.0265,4.0096,4.0096,4.0096,4.0096,4.0096,4.0096,4.0096,4.0096,4.0096,4.0096,3.9303,3.6862,3.6092,3.4955,3.2514,0.0,3.5333,3.5737,3.7978,3.9598,3.9867,3.9781,3.9625,3.9528,3.9083,3.9235,4.0194,3.9929,4.0178,4.1061,4.0888,4.1516,4.3124,4.4074,4.4542,4.4542,4.4587,4.457,4.4542,4.4587,4.4615,4.4615,4.4615,4.4615,4.4615,4.4615,4.4615,4.4615,4.4615,4.4615,4.4615,4.4615,4.4615,4.4615,4.2981,4.2835,4.2648,4.2433,4.231,4.2242,4.2133,4.2092,4.2092,4.2092,4.2092,4.2092,4.2092,4.2092,4.2092,4.2092,4.2092,4.1961,4.1657,4.1294,4.0844,4.0249,3.9567,3.8884,3.8217,3.8202,3.8202,3.8202,3.8202,3.8202,3.8202,3.8202,3.8202,3.8202,3.8202,3.8202,3.8202,3.8202,3.8202,3.8202,3.8202,3.8202,3.8202,3.8202,3.8202,3.8202,3.8202,3.8352,3.8523,3.8523,3.8782,3.9241,4.0069,4.1098,4.2093,4.252,4.3015,4.3223,4.2489,4.2049,4.161,4.0882,4.0679,4.0578,4.0197,4.0096,4.0096,4.0096,4.0096,4.0096,4.0096,4.0096,3.9665,3.8329,3.6829,0.0,0.0,3.4955,3.5811,3.5811,3.8329,4.0037,3.9807,3.9729,3.9599,3.9405,3.969,4.0044,4.0393,4.0729,4.1304,4.2119,4.2028,4.2656,4.4028,4.4401,4.4542,4.444,4.4542,4.4542,4.444,4.4542,4.4615,4.4615,4.4615,4.4615,4.4615,4.4615,4.4615,4.4615,4.4615,4.4615,4.4615,4.4615,4.4615,4.4615,4.3036,4.2996,4.2835,4.2581,4.2514,4.2433,4.2242,4.2216,4.2175,4.2175,4.2133,4.2092,4.2092,4.2092,4.2092,4.2092,4.2092,4.2092,4.2092,4.1613,4.1265,4.1105,4.0017,3.9175,3.8652,3.8507,3.8434,3.8434,3.8275,3.8202,3.8202,3.8202,3.8202,3.8202,3.8202,3.8202,3.8202,3.8202,3.8202,3.8202,3.8202,3.8202,3.8202,3.8202,3.8202,3.8202,3.8202,3.8464,3.8782,3.8782,3.9126,3.9559,3.9722,4.0724,4.1852,4.1625,4.2561,4.3521,4.276,4.2557,4.2371,4.1644,4.1339,4.1052,4.0485,4.0231,4.0096,4.0096,4.0096,4.0096,4.0096,4.0096,3.9876,3.916,0.0,0.0,0.0,3.5737,3.5985,3.6638,3.8665,3.9893,3.9677,3.9819,3.9814,3.9574,4.0227,4.0696,4.0862,4.1392,4.2107,4.3072,4.3215,4.3698,4.4525,4.457,4.4542,4.4367,4.4542,4.4514,4.4367,4.4542,4.4615,4.4615,4.4615,4.4615,4.4615,4.4615,4.4615,4.4615,4.4615,4.4615,4.4615,4.4615,4.4615,4.4615,4.321,4.297,4.2769,4.2915,4.2795,4.2648,4.2662,4.2514,4.2392,4.2392,4.2216,4.2092,4.2092,4.2092,4.2092,4.2092,4.2092,4.2092,4.2092,4.2049,4.1744,4.112,4.0408,4.0002,3.9958,3.9407,3.9131,3.9131,3.8507,3.8202,3.8202,3.8202,3.8202,3.8202,3.8202,3.8202,3.8202,3.8202,3.8202,3.8202,3.8202,3.8202,3.8202,3.8202,3.8202,3.8202,3.8202,3.8464,3.8782,3.8782,3.9307,4.0051,4.0684,4.1194,4.1771,4.2984,4.3864,4.4333,4.3555,4.3308,4.3122,4.2388,4.1711,4.1187,4.1136,4.0578,4.0096,4.0096,4.0096,4.0096,4.0096,4.0096,3.9177,3.6398,0.0,0.0,3.5471,3.5546,3.6571,3.9124,3.9603,3.9677,3.9511,4.0144,4.0463,4.0326,4.0945,4.1612,4.2319,4.2373,4.29,4.3968,4.414,4.4243,4.4338,4.4514,4.4598,4.457,4.4598,4.4598,4.457,4.4598,4.4615,4.4615,4.4615,4.4615,4.4615,4.4615,4.4615,4.4615,4.4615,4.4615,4.4615,4.4615,4.4615,4.4615,4.3297,4.3089,4.2938,4.3319,4.3115,4.2835,4.2729,4.2622,4.2541,4.2433,4.231,4.2242,4.2092,4.2092,4.2092,4.2092,4.2092,4.2092,4.2092,4.2092,4.1802,4.1134,4.0858,4.0525,4.0104,3.9871,3.9755,3.9755,3.9131,3.8826,3.8812,3.8391,3.8202,3.8202,3.8202,3.8202,3.8202,3.8202,3.8202,3.8202,3.8202,3.8202,3.8202,3.8202,3.8352,3.8575,3.8575,3.898,3.9538,3.9538,3.991,4.0366,4.0612,4.136,4.2395,4.3798,4.4076,4.3951,4.4114,4.413,4.3961,4.3183,4.2777,4.2337,4.1407,4.0984,4.0646,4.0197,4.0096,4.0096,4.0096,4.0037,3.9598,3.8446,0.0,3.8169,3.8066,3.8109,3.8528,3.9577,3.9703,3.9835,4.0134,4.0515,4.0865,4.1178,4.1865,4.238,4.2663,4.2995,4.3359,4.3776,4.3952,4.4126,4.431,4.4298,4.4327,4.4412,4.4412,4.4468,4.4615,4.4615,4.4615,4.4615,4.4615,4.4615,4.4615,4.4615,4.4615,4.4615,4.4615,4.4615,4.4615,4.4615,4.4615,4.4615,4.3531,4.3487,4.3342,4.3476,4.3394,4.3195,4.293,4.285,4.2729,4.2622,4.2474,4.2366,4.2201,4.2133,4.2092,4.2092,4.2092,4.2092,4.2092,4.2092,4.1889,4.1424,4.141,4.1192,4.0728,4.0525,4.0408,4.0408,3.9596,3.9204,3.9189,3.8507,3.8202,3.8202,3.8202,3.8202,3.8202,3.8202,3.8202,3.8202,3.8202,3.8202,3.8202,3.8352,3.856,3.8819,3.8929,3.9415,4.0011,4.0011,4.0226,4.0489,4.0489,4.1276,4.2363,4.3336,4.3558,4.3601,4.4105,4.4412,4.4479,4.391,4.3606,4.3122,4.2134,4.1711,4.1339,4.062,4.0468,4.0383,4.0146,3.9986,3.9901,3.9833,3.9755,3.9677,3.9573,3.9599,3.9625,3.9573,3.979,4.0087,4.0513,4.1099,4.1593,4.201,4.2744,4.3103,4.3057,4.3393,4.3628,4.3687,4.3763,4.3939,4.4184,4.4126,4.4184,4.431,4.431,4.4412,4.4615,4.4615,4.4615,4.4615,4.4615,4.4615,4.4615,4.4615,4.4615,4.4615,4.4615,4.4615,4.4615,4.4615,4.4615,4.4615,4.3913,4.4097,4.3989,4.3409,4.3699,4.3832,4.3369,4.3115,4.2981,4.2981,4.2648,4.2392,4.2392,4.2201,4.2092,4.2092,4.2092,4.2092,4.2092,4.2092,4.2092,4.2092,4.2092,4.2092,4.2092,4.1439,4.1105,4.1105,3.9842,3.9218,3.9189,3.8522,3.8202,3.8202,3.8202,3.8202,3.8202,3.8202,3.8202,3.8202,3.8202,3.8202,3.824,3.8649,3.8782,3.8855,3.9256,3.9646,3.9996,3.9996,4.0226,4.0489,4.0489,4.0956,4.1492,4.1525,4.2458,4.3512,4.3512,4.4047,4.4615,4.4615,4.3995,4.3392,4.3392,4.2828,4.21,4.1373,4.1204,4.0984,4.0248,3.9986,3.9833,3.9729,3.9703,3.9599,3.9352,3.9405,3.9448,3.9325,3.9962,4.0409,4.0426,4.1848,4.2782,4.2827,4.3481,4.3822,4.3628,4.3598,4.3687,4.3898,4.3704,4.3704,4.3898,4.4027,4.4184,4.431,4.431,4.4395,4.4615,4.4615,4.4615,4.4615,4.4615,4.4615,4.4615,4.4615,4.4615,4.4615,4.4615,4.4615,4.4615,4.4615,4.4615,4.4615,4.4022,4.3886,4.3739,4.3765,4.3621,4.3463,4.3329,4.325,4.3155,4.3036,4.2915,4.2729,4.2433,4.2366,4.2242,4.2092,4.2092,4.2092,4.2092,4.2092,4.2092,4.2092,4.2092,4.2092,4.2092,4.1903,4.1802,4.1802,4.0945,4.0292,3.9813,3.9189,3.8652,3.8202,3.8202,3.8202,3.8202,3.8202,3.8202,3.8202,3.8202,3.8202,3.824,3.8649,3.898,3.9256,3.9696,4.0051,4.0366,4.0366,4.0436,4.0593,4.1057,4.1343,4.1575,4.2046,4.2831,4.3512,4.3512,4.4047,4.4615,4.4615,4.4429,4.4079,4.3538,4.325,4.2861,4.2117,4.1559,4.111,4.0796,4.0211,3.972,3.959,3.9484,3.9405,3.9299,3.9325,3.9551,4.0011,4.0276,4.0835,4.1976,4.26,4.321,4.3798,4.398,4.3969,4.3839,4.3793,4.3763,4.3687,4.3763,4.3839,4.3898,4.3956,4.3969,4.4027,4.4196,4.4338,4.4395,4.4542,4.4615,4.4615,4.4615,4.4615,4.4615,4.4615,4.4615,4.4615,4.4615,4.4615,4.4615,4.4615,4.4615,4.4615,4.4262,4.4217,4.4079,4.378,4.366,4.3503,4.3329,4.329,4.325,4.3115,4.3036,4.2915,4.2648,4.2581,4.2433,4.2242,4.2133,4.2092,4.2092,4.2092,4.2092,4.2092,4.2092,4.2092,4.2092,4.2092,4.2092,4.2092,4.1424,4.0757,4.0089,3.9479,3.8841,3.8202,3.8202,3.8202,3.8202,3.8202,3.8202,3.8202,3.8202,3.8202,3.8277,3.8819,3.9184,3.9487,4.0016,4.0331,4.0489,4.0489,4.0489,4.0558,4.099,4.1109,4.1243,4.1901,4.2395,4.2814,4.3363,4.3839,4.4236,4.4542,4.4615,4.4479,4.3995,4.3876,4.3656,4.2895,4.2388,4.1929,4.1509,4.0774,4.0165,4.0041,3.9658,3.9505,3.9841,3.9783,4.0038,4.0823,4.1172,4.1732,4.2699,4.3232,4.3709,4.4191,4.4155,4.4027,4.3793,4.3763,4.3734,4.3598,4.3734,4.3839,4.3898,4.3939,4.3998,4.4056,4.4224,4.4338,4.4412,4.4542,4.4615,4.4615,4.4615,4.4615,4.4615,4.4615,4.4615,4.4615,4.4615,4.4615,4.4615,4.4615,4.4615,4.4615,4.4653,4.4874,4.4746,4.3527,4.3699,4.3817,4.3369,4.3329,4.3344,4.329,4.3155,4.3036,4.2981,4.285,4.2662,4.2433,4.2216,4.2092,4.2092,4.2092,4.2092,4.2092,4.2092,4.2092,4.2092,4.2092,4.2092,4.2092,4.1523,4.0855,4.0089,3.9576,3.8899,3.8202,3.8202,3.8202,3.8202,3.8202,3.8202,3.8202,3.8202,3.8202,3.8277,3.9038,3.9328,3.9436,4.0176,4.047,4.047,4.0489,4.0489,4.0489,4.0489,4.0489,4.0612,4.1243,4.1459,4.1771,4.3075,4.3436,4.3676,4.4412,4.4615,4.4615,4.4615,4.4615,4.4384,4.3673,4.3443,4.3162,4.2351,4.161,4.1052,4.091,4.0224,3.9971,4.0772,4.0656,4.0801,4.1655,4.2365,4.2844,4.291,4.3781,4.4253,4.4126,4.4097,4.3952,4.3628,4.3628,4.3628,4.3628,4.3628,4.3747,4.3927,4.4039,4.4155,4.4281,4.4293,4.4395,4.4559,4.457,4.457,4.457,4.4598,4.4615,4.4615,4.4615,4.4615,4.4615,4.4615,4.4615,4.4615,4.4615,4.4615,4.4615,4.4746,4.4648,4.4419,4.3488,4.3699,4.3817,4.3369,4.3621,4.3699,4.3344,4.325,4.3155,4.3036,4.2955,4.2809,4.2433,4.2216,4.2092,4.2092,4.2092,4.2092,4.2092,4.2092,4.2092,4.2092,4.2092,4.2092,4.2092,4.2097,4.1412,4.0089,4.0198,3.9488,3.8202,3.8202,3.8202,3.8202,3.8202,3.8202,3.8202,3.8202,3.8202,3.824,3.8745,3.8929,3.9038,3.9839,4.0101,4.0137,4.042,4.0489,4.0489,4.0489,4.0489,4.0524,4.0681,4.1091,4.1673,4.2489,4.3106,4.3676,4.4412,4.4615,4.4615,4.4615,4.4615,4.4564,4.4395,4.3842,4.3314,4.3008,4.2358,4.1826,4.1691,4.141,4.1277,4.1472,4.1305,4.1458,4.2232,4.2625,4.3072,4.3755,4.4243,4.444,4.4281,4.4155,4.401,4.3822,4.3923,4.3923,4.3839,4.3939,4.4068,4.4196,4.4155,4.4126,4.4155,4.4253,4.4253,4.4212,4.4327,4.4367,4.4367,4.4542,4.4615,4.4615,4.4615,4.4615,4.4615,4.4615,4.4615,4.4615,4.4615,4.4615,4.4615,4.4986,4.4723,4.4458,4.3996,4.3972,4.3972,4.3918,4.4127,4.4205,4.3957,4.3762,4.3566,4.3488,4.3488,4.3329,4.301,4.2703,4.2433,4.2242,4.2133,4.2092,4.2092,4.2092,4.2133,4.2242,4.2242,4.2242,4.2242,4.2366,4.1825,4.0712,4.0421,3.9727,3.8667,3.8347,3.8202,3.8202,3.8202,3.8202,3.8202,3.8202,3.8202,3.824,3.8649,3.8782,3.8907,3.9696,4.0101,4.0261,4.042,4.0489,4.0489,4.0489,4.0489,4.0489,4.0489,4.0749,4.1176,4.1836,4.252,4.3196,4.3914,4.4338,4.4615,4.4615,4.4615,4.4615,4.4615,4.4265,4.3905,4.3749,4.317,4.2682,4.2545,4.2177,4.2049,4.2439,4.2306,4.2449,4.3169,4.3397,4.369,4.4133,4.4298,4.427,4.4126,4.4039,4.3969,4.3898,4.3985,4.3998,4.3998,4.4068,4.4167,4.431,4.4224,4.4241,4.4344,4.4412,4.4412,4.4344,4.4412,4.444,4.444,4.4542,4.4615,4.4615,4.4615,4.4615,4.4615,4.4615,4.4615,4.4615,4.4615,4.4615,4.4615,4.5284,4.4911,4.4685,4.461,4.4396,4.4281,4.4572,4.4648,4.4685,4.461,4.432,4.4089,4.4089,4.405,4.3957,4.3732,4.3379,4.2955,4.2541,4.2366,4.2201,4.2133,4.2133,4.2257,4.2433,4.2459,4.2474,4.2474,4.2474,4.2038,4.1222,4.0523,3.9765,3.9,3.8449,3.8202,3.8202,3.8202,3.8202,3.8202,3.8202,3.8202,3.824,3.8575,3.8708,3.8782,3.9553,4.0051,4.0436,4.0489,4.0489,4.0489,4.0489,4.0489,4.0489,4.0489,4.0489,4.0646,4.1343,4.1901,4.2489,4.3166,4.3869,4.4412,4.4412,4.4514,4.4615,4.4615,4.4615,4.4542,4.4367,4.3945,4.3567,4.3474,4.2896,4.2694,4.3411,4.3272,4.3325,4.3943,4.4138,4.4253,4.4253,4.4184,4.4039,4.3898,4.3898,4.3898,4.3898,4.3927,4.3998,4.4126,4.4126,4.4196,4.4338,4.431,4.4412,4.4615,4.4615,4.457,4.4542,4.4542,4.4542,4.4542,4.4587,4.4615,4.4615,4.4615,4.4615,4.4615,4.4615,4.4615,4.4615,4.4615,4.4615,4.4615,4.5284,4.5173,4.5024,4.4648,4.4836,4.4949,4.4648,4.4911,4.4986,4.4663,4.4534,4.4511,4.4511,4.4328,4.4159,4.4105,4.3927,4.3536,4.2955,4.2875,4.2729,4.2351,4.2351,4.2474,4.2662,4.285,4.2835,4.2648,4.2648,4.1964,4.0607,4.052,3.9702,3.8333,3.8246,3.8202,3.8202,3.8202,3.8202,3.8202,3.8202,3.8202,3.8202,3.8277,3.8277,3.8352,3.8797,3.943,4.0101,4.0401,4.0489,4.0489,4.0489,4.0489,4.0489,4.0489,4.0489,4.0646,4.1343,4.1558,4.1804,4.2458,4.3136,4.3647,4.3647,4.4133,4.4615,4.4615,4.4615,4.4598,4.457,4.4485,4.4418,4.4418,4.408,4.3858,4.3987,4.3698,4.3571,4.3671,4.3852,4.3998,4.4126,4.4097,4.4039,4.3898,4.3898,4.3898,4.3898,4.3998,4.4126,4.4281,4.4281,4.4384,4.4542,4.4395,4.4412,4.4615,4.4615,4.4514,4.4338,4.4338,4.4338,4.4338,4.4542,4.4615,4.4615,4.4615,4.4615,4.4615,4.4615,4.4615,4.4615,4.4615,4.4615,4.4615,4.5573,4.5358,4.521,4.5262,4.521,4.521,4.5262,4.5426,4.5447,4.53,4.5061,4.4949,4.4949,4.4821,4.4768,4.4768,4.4526,4.4182,4.3717,4.326,4.2915,4.2729,4.2392,4.2325,4.2541,4.2622,4.2688,4.2688,4.293,4.2416,4.1146,4.0832,3.9964,3.8739,3.8376,3.8202,3.8202,3.8202,3.8202,3.8202,3.8202,3.8202,3.824,3.8575,3.8501,3.8277,3.8892,3.9502,4.0031,4.0401,4.0489,4.0489,4.0489,4.0489,4.0489,4.0489,4.0489,4.0558,4.087,4.1209,4.1575,4.1868,4.2738,4.3512,4.3512,4.4076,4.4615,4.4615,4.4514,4.444,4.444,4.4355,4.4315,4.4315,4.42,4.4097,4.4097,4.3981,4.3894,4.3894,4.3776,4.3793,4.3969,4.391,4.3805,4.3734,4.3839,4.3927,4.3998,4.4155,4.4281,4.4468,4.4468,4.4514,4.4615,4.4514,4.4514,4.4615,4.4615,4.4542,4.4468,4.4468,4.4468,4.4468,4.457,4.4615,4.4615,4.4615,4.4615,4.4615,4.4615,4.4615,4.4615,4.4615,4.4615,4.4615]}]]